<?xml version="1.0" encoding="UTF-8" standalone="no" ?>
<gpx xmlns="http://www.topografix.com/GPX/1/1" xmlns:xsi="http://www.w3.org/2001/XMLSchema-instance" xsi:schemaLocation="http://www.topografix.com/GPX/1/1 http://www.topografix.com/GPX/1/1/gpx.xsd" version="1.1" creator="VisuGPX - https://www.visugpx.com">
  <metadata>
    <name>Traversée AM jour 2</name>
    <desc><![CDATA[St Etienne de Tinée, St Martin d\\\'Entraune]]></desc>
  </metadata>
  <trk>
    <name><![CDATA[j2]]></name>
    <trkseg>
      <trkpt lat="44.25671" lon="6.92527">
        <ele>1191</ele>
        <time>2013-09-21T06:42:48Z</time>
      </trkpt>
      <trkpt lat="44.25669" lon="6.92553">
        <ele>1190</ele>
        <time>2013-09-21T06:42:55Z</time>
      </trkpt>
      <trkpt lat="44.2566" lon="6.92558">
        <ele>1190</ele>
        <time>2013-09-21T06:42:58Z</time>
      </trkpt>
      <trkpt lat="44.25646" lon="6.92557">
        <ele>1190</ele>
        <time>2013-09-21T06:43:02Z</time>
      </trkpt>
      <trkpt lat="44.25608" lon="6.92552">
        <ele>1189</ele>
        <time>2013-09-21T06:43:15Z</time>
      </trkpt>
      <trkpt lat="44.25595" lon="6.92548">
        <ele>1189</ele>
        <time>2013-09-21T06:43:20Z</time>
      </trkpt>
      <trkpt lat="44.25581" lon="6.92549">
        <ele>1189</ele>
        <time>2013-09-21T06:43:26Z</time>
      </trkpt>
      <trkpt lat="44.25567" lon="6.92553">
        <ele>1189</ele>
        <time>2013-09-21T06:43:32Z</time>
      </trkpt>
      <trkpt lat="44.25555" lon="6.92565">
        <ele>1189</ele>
        <time>2013-09-21T06:43:37Z</time>
      </trkpt>
      <trkpt lat="44.25546" lon="6.9257">
        <ele>1188</ele>
        <time>2013-09-21T06:43:41Z</time>
      </trkpt>
      <trkpt lat="44.25539" lon="6.92584">
        <ele>1188</ele>
        <time>2013-09-21T06:43:45Z</time>
      </trkpt>
      <trkpt lat="44.25532" lon="6.92612">
        <ele>1187</ele>
        <time>2013-09-21T06:43:54Z</time>
      </trkpt>
      <trkpt lat="44.25528" lon="6.92615">
        <ele>1184</ele>
        <time>2013-09-21T06:44:14Z</time>
      </trkpt>
      <trkpt lat="44.25515" lon="6.92638">
        <ele>1183</ele>
        <time>2013-09-21T06:44:25Z</time>
      </trkpt>
      <trkpt lat="44.25512" lon="6.92651">
        <ele>1181</ele>
        <time>2013-09-21T06:44:31Z</time>
      </trkpt>
      <trkpt lat="44.25507" lon="6.92656">
        <ele>1180</ele>
        <time>2013-09-21T06:44:43Z</time>
      </trkpt>
      <trkpt lat="44.25476" lon="6.92681">
        <ele>1178</ele>
        <time>2013-09-21T06:44:55Z</time>
      </trkpt>
      <trkpt lat="44.25426" lon="6.92732">
        <ele>1175</ele>
        <time>2013-09-21T06:45:10Z</time>
      </trkpt>
      <trkpt lat="44.25405" lon="6.92745">
        <ele>1175</ele>
        <time>2013-09-21T06:45:15Z</time>
      </trkpt>
      <trkpt lat="44.2537" lon="6.92753">
        <ele>1173</ele>
        <time>2013-09-21T06:45:24Z</time>
      </trkpt>
      <trkpt lat="44.25322" lon="6.92787">
        <ele>1171</ele>
        <time>2013-09-21T06:45:38Z</time>
      </trkpt>
      <trkpt lat="44.2529" lon="6.9284">
        <ele>1170</ele>
        <time>2013-09-21T06:45:51Z</time>
      </trkpt>
      <trkpt lat="44.25246" lon="6.92897">
        <ele>1168</ele>
        <time>2013-09-21T06:46:03Z</time>
      </trkpt>
      <trkpt lat="44.25201" lon="6.92973">
        <ele>1166</ele>
        <time>2013-09-21T06:46:14Z</time>
      </trkpt>
      <trkpt lat="44.25171" lon="6.93013">
        <ele>1165</ele>
        <time>2013-09-21T06:46:20Z</time>
      </trkpt>
      <trkpt lat="44.25138" lon="6.93076">
        <ele>1164</ele>
        <time>2013-09-21T06:46:27Z</time>
      </trkpt>
      <trkpt lat="44.25115" lon="6.93113">
        <ele>1163</ele>
        <time>2013-09-21T06:46:31Z</time>
      </trkpt>
      <trkpt lat="44.2508" lon="6.93191">
        <ele>1161</ele>
        <time>2013-09-21T06:46:39Z</time>
      </trkpt>
      <trkpt lat="44.25061" lon="6.93218">
        <ele>1160</ele>
        <time>2013-09-21T06:46:44Z</time>
      </trkpt>
      <trkpt lat="44.25035" lon="6.93183">
        <ele>1159</ele>
        <time>2013-09-21T06:46:55Z</time>
      </trkpt>
      <trkpt lat="44.2501" lon="6.93161">
        <ele>1157</ele>
        <time>2013-09-21T06:47:08Z</time>
      </trkpt>
      <trkpt lat="44.24969" lon="6.93192">
        <ele>1155</ele>
        <time>2013-09-21T06:47:21Z</time>
      </trkpt>
      <trkpt lat="44.24905" lon="6.93257">
        <ele>1153</ele>
        <time>2013-09-21T06:47:33Z</time>
      </trkpt>
      <trkpt lat="44.24838" lon="6.93354">
        <ele>1151</ele>
        <time>2013-09-21T06:47:44Z</time>
      </trkpt>
      <trkpt lat="44.24799" lon="6.9336">
        <ele>1150</ele>
        <time>2013-09-21T06:47:49Z</time>
      </trkpt>
      <trkpt lat="44.24781" lon="6.9335">
        <ele>1149</ele>
        <time>2013-09-21T06:47:52Z</time>
      </trkpt>
      <trkpt lat="44.24764" lon="6.93356">
        <ele>1149</ele>
        <time>2013-09-21T06:47:56Z</time>
      </trkpt>
      <trkpt lat="44.24754" lon="6.93366">
        <ele>1148</ele>
        <time>2013-09-21T06:48:00Z</time>
      </trkpt>
      <trkpt lat="44.24741" lon="6.93385">
        <ele>1147</ele>
        <time>2013-09-21T06:48:08Z</time>
      </trkpt>
      <trkpt lat="44.24724" lon="6.93422">
        <ele>1146</ele>
        <time>2013-09-21T06:48:23Z</time>
      </trkpt>
      <trkpt lat="44.24697" lon="6.93449">
        <ele>1144</ele>
        <time>2013-09-21T06:48:41Z</time>
      </trkpt>
      <trkpt lat="44.24675" lon="6.93474">
        <ele>1144</ele>
        <time>2013-09-21T06:48:59Z</time>
      </trkpt>
      <trkpt lat="44.24654" lon="6.93499">
        <ele>1144</ele>
        <time>2013-09-21T06:49:18Z</time>
      </trkpt>
      <trkpt lat="44.24631" lon="6.9353">
        <ele>1146</ele>
        <time>2013-09-21T06:49:37Z</time>
      </trkpt>
      <trkpt lat="44.24619" lon="6.93567">
        <ele>1148</ele>
        <time>2013-09-21T06:49:52Z</time>
      </trkpt>
      <trkpt lat="44.24591" lon="6.9361">
        <ele>1149</ele>
        <time>2013-09-21T06:50:04Z</time>
      </trkpt>
      <trkpt lat="44.24565" lon="6.93626">
        <ele>1149</ele>
        <time>2013-09-21T06:50:08Z</time>
      </trkpt>
      <trkpt lat="44.24554" lon="6.93645">
        <ele>1149</ele>
        <time>2013-09-21T06:50:10Z</time>
      </trkpt>
      <trkpt lat="44.24516" lon="6.93699">
        <ele>1148</ele>
        <time>2013-09-21T06:50:15Z</time>
      </trkpt>
      <trkpt lat="44.24485" lon="6.93734">
        <ele>1148</ele>
        <time>2013-09-21T06:50:18Z</time>
      </trkpt>
      <trkpt lat="44.2444" lon="6.93815">
        <ele>1147</ele>
        <time>2013-09-21T06:50:23Z</time>
      </trkpt>
      <trkpt lat="44.24389" lon="6.9389">
        <ele>1146</ele>
        <time>2013-09-21T06:50:28Z</time>
      </trkpt>
      <trkpt lat="44.2434" lon="6.93954">
        <ele>1145</ele>
        <time>2013-09-21T06:50:33Z</time>
      </trkpt>
      <trkpt lat="44.2423" lon="6.94041">
        <ele>1142</ele>
        <time>2013-09-21T06:50:44Z</time>
      </trkpt>
      <trkpt lat="44.24181" lon="6.9411">
        <ele>1140</ele>
        <time>2013-09-21T06:50:51Z</time>
      </trkpt>
      <trkpt lat="44.24122" lon="6.94161">
        <ele>1138</ele>
        <time>2013-09-21T06:50:59Z</time>
      </trkpt>
      <trkpt lat="44.24073" lon="6.94214">
        <ele>1137</ele>
        <time>2013-09-21T06:51:07Z</time>
      </trkpt>
      <trkpt lat="44.24043" lon="6.9426">
        <ele>1135</ele>
        <time>2013-09-21T06:51:13Z</time>
      </trkpt>
      <trkpt lat="44.24023" lon="6.94317">
        <ele>1133</ele>
        <time>2013-09-21T06:51:21Z</time>
      </trkpt>
      <trkpt lat="44.24019" lon="6.94325">
        <ele>1133</ele>
        <time>2013-09-21T06:51:23Z</time>
      </trkpt>
      <trkpt lat="44.24019" lon="6.9433">
        <ele>1131</ele>
        <time>2013-09-21T06:51:29Z</time>
      </trkpt>
      <trkpt lat="44.24009" lon="6.9436">
        <ele>1122</ele>
        <time>2013-09-21T06:52:26Z</time>
      </trkpt>
      <trkpt lat="44.23992" lon="6.94423">
        <ele>1120</ele>
        <time>2013-09-21T06:52:34Z</time>
      </trkpt>
      <trkpt lat="44.23981" lon="6.94455">
        <ele>1120</ele>
        <time>2013-09-21T06:52:38Z</time>
      </trkpt>
      <trkpt lat="44.23961" lon="6.94467">
        <ele>1119</ele>
        <time>2013-09-21T06:52:42Z</time>
      </trkpt>
      <trkpt lat="44.23934" lon="6.9448">
        <ele>1119</ele>
        <time>2013-09-21T06:52:47Z</time>
      </trkpt>
      <trkpt lat="44.23888" lon="6.94523">
        <ele>1117</ele>
        <time>2013-09-21T06:52:55Z</time>
      </trkpt>
      <trkpt lat="44.23794" lon="6.94533">
        <ele>1115</ele>
        <time>2013-09-21T06:53:08Z</time>
      </trkpt>
      <trkpt lat="44.23718" lon="6.94537">
        <ele>1113</ele>
        <time>2013-09-21T06:53:20Z</time>
      </trkpt>
      <trkpt lat="44.23692" lon="6.94556">
        <ele>1113</ele>
        <time>2013-09-21T06:53:25Z</time>
      </trkpt>
      <trkpt lat="44.23679" lon="6.94571">
        <ele>1112</ele>
        <time>2013-09-21T06:53:28Z</time>
      </trkpt>
      <trkpt lat="44.23645" lon="6.94598">
        <ele>1111</ele>
        <time>2013-09-21T06:53:35Z</time>
      </trkpt>
      <trkpt lat="44.23606" lon="6.94646">
        <ele>1110</ele>
        <time>2013-09-21T06:53:44Z</time>
      </trkpt>
      <trkpt lat="44.23555" lon="6.94731">
        <ele>1108</ele>
        <time>2013-09-21T06:53:57Z</time>
      </trkpt>
      <trkpt lat="44.23492" lon="6.94799">
        <ele>1106</ele>
        <time>2013-09-21T06:54:10Z</time>
      </trkpt>
      <trkpt lat="44.23471" lon="6.94825">
        <ele>1105</ele>
        <time>2013-09-21T06:54:17Z</time>
      </trkpt>
      <trkpt lat="44.23452" lon="6.9484">
        <ele>1104</ele>
        <time>2013-09-21T06:54:23Z</time>
      </trkpt>
      <trkpt lat="44.23421" lon="6.94855">
        <ele>1103</ele>
        <time>2013-09-21T06:54:31Z</time>
      </trkpt>
      <trkpt lat="44.23361" lon="6.94933">
        <ele>1102</ele>
        <time>2013-09-21T06:54:45Z</time>
      </trkpt>
      <trkpt lat="44.23309" lon="6.95049">
        <ele>1100</ele>
        <time>2013-09-21T06:55:01Z</time>
      </trkpt>
      <trkpt lat="44.23277" lon="6.95121">
        <ele>1099</ele>
        <time>2013-09-21T06:55:11Z</time>
      </trkpt>
      <trkpt lat="44.23248" lon="6.95177">
        <ele>1098</ele>
        <time>2013-09-21T06:55:19Z</time>
      </trkpt>
      <trkpt lat="44.23198" lon="6.95313">
        <ele>1096</ele>
        <time>2013-09-21T06:55:36Z</time>
      </trkpt>
      <trkpt lat="44.23137" lon="6.95434">
        <ele>1094</ele>
        <time>2013-09-21T06:55:52Z</time>
      </trkpt>
      <trkpt lat="44.23059" lon="6.95552">
        <ele>1092</ele>
        <time>2013-09-21T06:56:08Z</time>
      </trkpt>
      <trkpt lat="44.2303" lon="6.95595">
        <ele>1091</ele>
        <time>2013-09-21T06:56:14Z</time>
      </trkpt>
      <trkpt lat="44.22992" lon="6.95675">
        <ele>1090</ele>
        <time>2013-09-21T06:56:25Z</time>
      </trkpt>
      <trkpt lat="44.2291" lon="6.95781">
        <ele>1088</ele>
        <time>2013-09-21T06:56:43Z</time>
      </trkpt>
      <trkpt lat="44.22867" lon="6.95806">
        <ele>1087</ele>
        <time>2013-09-21T06:56:50Z</time>
      </trkpt>
      <trkpt lat="44.22798" lon="6.95831">
        <ele>1086</ele>
        <time>2013-09-21T06:57:01Z</time>
      </trkpt>
      <trkpt lat="44.22721" lon="6.9589">
        <ele>1084</ele>
        <time>2013-09-21T06:57:15Z</time>
      </trkpt>
      <trkpt lat="44.22631" lon="6.95946">
        <ele>1082</ele>
        <time>2013-09-21T06:57:32Z</time>
      </trkpt>
      <trkpt lat="44.22551" lon="6.96">
        <ele>1081</ele>
        <time>2013-09-21T06:57:46Z</time>
      </trkpt>
      <trkpt lat="44.22533" lon="6.96041">
        <ele>1080</ele>
        <time>2013-09-21T06:57:51Z</time>
      </trkpt>
      <trkpt lat="44.22516" lon="6.96126">
        <ele>1079</ele>
        <time>2013-09-21T06:58:01Z</time>
      </trkpt>
      <trkpt lat="44.22495" lon="6.96133">
        <ele>1078</ele>
        <time>2013-09-21T06:58:07Z</time>
      </trkpt>
      <trkpt lat="44.22475" lon="6.96118">
        <ele>1078</ele>
        <time>2013-09-21T06:58:14Z</time>
      </trkpt>
      <trkpt lat="44.22411" lon="6.96071">
        <ele>1076</ele>
        <time>2013-09-21T06:58:30Z</time>
      </trkpt>
      <trkpt lat="44.22365" lon="6.96019">
        <ele>1075</ele>
        <time>2013-09-21T06:58:43Z</time>
      </trkpt>
      <trkpt lat="44.22343" lon="6.95997">
        <ele>1074</ele>
        <time>2013-09-21T06:58:56Z</time>
      </trkpt>
      <trkpt lat="44.22319" lon="6.95997">
        <ele>1073</ele>
        <time>2013-09-21T06:59:09Z</time>
      </trkpt>
      <trkpt lat="44.22292" lon="6.96007">
        <ele>1073</ele>
        <time>2013-09-21T06:59:24Z</time>
      </trkpt>
      <trkpt lat="44.2227" lon="6.96018">
        <ele>1073</ele>
        <time>2013-09-21T06:59:36Z</time>
      </trkpt>
      <trkpt lat="44.22247" lon="6.96033">
        <ele>1073</ele>
        <time>2013-09-21T06:59:51Z</time>
      </trkpt>
      <trkpt lat="44.22221" lon="6.96041">
        <ele>1074</ele>
        <time>2013-09-21T07:00:07Z</time>
      </trkpt>
      <trkpt lat="44.22197" lon="6.96038">
        <ele>1075</ele>
        <time>2013-09-21T07:00:23Z</time>
      </trkpt>
      <trkpt lat="44.22192" lon="6.96039">
        <ele>1076</ele>
        <time>2013-09-21T07:00:42Z</time>
      </trkpt>
      <trkpt lat="44.2219" lon="6.9604">
        <ele>1079</ele>
        <time>2013-09-21T07:01:28Z</time>
      </trkpt>
      <trkpt lat="44.2219" lon="6.96039">
        <ele>1081</ele>
        <time>2013-09-21T07:01:46Z</time>
      </trkpt>
      <trkpt lat="44.22196" lon="6.96038">
        <ele>1081</ele>
        <time>2013-09-21T07:01:52Z</time>
      </trkpt>
      <trkpt lat="44.22194" lon="6.9604">
        <ele>1084</ele>
        <time>2013-09-21T07:02:23Z</time>
      </trkpt>
      <trkpt lat="44.22191" lon="6.96041">
        <ele>1085</ele>
        <time>2013-09-21T07:02:33Z</time>
      </trkpt>
      <trkpt lat="44.22188" lon="6.96043">
        <ele>1086</ele>
        <time>2013-09-21T07:02:47Z</time>
      </trkpt>
      <trkpt lat="44.22166" lon="6.96055">
        <ele>1087</ele>
        <time>2013-09-21T07:03:01Z</time>
      </trkpt>
      <trkpt lat="44.22136" lon="6.9607">
        <ele>1089</ele>
        <time>2013-09-21T07:03:21Z</time>
      </trkpt>
      <trkpt lat="44.22113" lon="6.96075">
        <ele>1090</ele>
        <time>2013-09-21T07:03:34Z</time>
      </trkpt>
      <trkpt lat="44.2209" lon="6.96092">
        <ele>1092</ele>
        <time>2013-09-21T07:03:49Z</time>
      </trkpt>
      <trkpt lat="44.22063" lon="6.96106">
        <ele>1094</ele>
        <time>2013-09-21T07:04:05Z</time>
      </trkpt>
      <trkpt lat="44.22041" lon="6.96122">
        <ele>1096</ele>
        <time>2013-09-21T07:04:20Z</time>
      </trkpt>
      <trkpt lat="44.22029" lon="6.96133">
        <ele>1096</ele>
        <time>2013-09-21T07:04:28Z</time>
      </trkpt>
      <trkpt lat="44.2201" lon="6.96145">
        <ele>1098</ele>
        <time>2013-09-21T07:04:40Z</time>
      </trkpt>
      <trkpt lat="44.21981" lon="6.96161">
        <ele>1099</ele>
        <time>2013-09-21T07:04:58Z</time>
      </trkpt>
      <trkpt lat="44.21958" lon="6.96174">
        <ele>1101</ele>
        <time>2013-09-21T07:05:12Z</time>
      </trkpt>
      <trkpt lat="44.21936" lon="6.96187">
        <ele>1103</ele>
        <time>2013-09-21T07:05:26Z</time>
      </trkpt>
      <trkpt lat="44.21912" lon="6.96196">
        <ele>1105</ele>
        <time>2013-09-21T07:05:40Z</time>
      </trkpt>
      <trkpt lat="44.21891" lon="6.962">
        <ele>1107</ele>
        <time>2013-09-21T07:05:52Z</time>
      </trkpt>
      <trkpt lat="44.21867" lon="6.96228">
        <ele>1110</ele>
        <time>2013-09-21T07:06:09Z</time>
      </trkpt>
      <trkpt lat="44.21848" lon="6.96247">
        <ele>1112</ele>
        <time>2013-09-21T07:06:22Z</time>
      </trkpt>
      <trkpt lat="44.2183" lon="6.96271">
        <ele>1115</ele>
        <time>2013-09-21T07:06:36Z</time>
      </trkpt>
      <trkpt lat="44.21822" lon="6.9628">
        <ele>1116</ele>
        <time>2013-09-21T07:06:42Z</time>
      </trkpt>
      <trkpt lat="44.21797" lon="6.96299">
        <ele>1119</ele>
        <time>2013-09-21T07:06:58Z</time>
      </trkpt>
      <trkpt lat="44.2177" lon="6.96315">
        <ele>1122</ele>
        <time>2013-09-21T07:07:14Z</time>
      </trkpt>
      <trkpt lat="44.21744" lon="6.96336">
        <ele>1124</ele>
        <time>2013-09-21T07:07:31Z</time>
      </trkpt>
      <trkpt lat="44.21719" lon="6.96366">
        <ele>1127</ele>
        <time>2013-09-21T07:07:49Z</time>
      </trkpt>
      <trkpt lat="44.21711" lon="6.96373">
        <ele>1128</ele>
        <time>2013-09-21T07:07:54Z</time>
      </trkpt>
      <trkpt lat="44.2169" lon="6.96402">
        <ele>1130</ele>
        <time>2013-09-21T07:08:11Z</time>
      </trkpt>
      <trkpt lat="44.21672" lon="6.96424">
        <ele>1132</ele>
        <time>2013-09-21T07:08:25Z</time>
      </trkpt>
      <trkpt lat="44.2165" lon="6.96439">
        <ele>1134</ele>
        <time>2013-09-21T07:08:40Z</time>
      </trkpt>
      <trkpt lat="44.21626" lon="6.96415">
        <ele>1137</ele>
        <time>2013-09-21T07:08:57Z</time>
      </trkpt>
      <trkpt lat="44.21605" lon="6.96392">
        <ele>1139</ele>
        <time>2013-09-21T07:09:11Z</time>
      </trkpt>
      <trkpt lat="44.2158" lon="6.96405">
        <ele>1141</ele>
        <time>2013-09-21T07:09:23Z</time>
      </trkpt>
      <trkpt lat="44.21578" lon="6.96442">
        <ele>1143</ele>
        <time>2013-09-21T07:09:34Z</time>
      </trkpt>
      <trkpt lat="44.21568" lon="6.96491">
        <ele>1145</ele>
        <time>2013-09-21T07:09:51Z</time>
      </trkpt>
      <trkpt lat="44.2156" lon="6.96535">
        <ele>1147</ele>
        <time>2013-09-21T07:10:07Z</time>
      </trkpt>
      <trkpt lat="44.21534" lon="6.96557">
        <ele>1148</ele>
        <time>2013-09-21T07:10:22Z</time>
      </trkpt>
      <trkpt lat="44.21529" lon="6.96595">
        <ele>1150</ele>
        <time>2013-09-21T07:10:36Z</time>
      </trkpt>
      <trkpt lat="44.21526" lon="6.96639">
        <ele>1153</ele>
        <time>2013-09-21T07:10:52Z</time>
      </trkpt>
      <trkpt lat="44.21517" lon="6.96677">
        <ele>1155</ele>
        <time>2013-09-21T07:11:08Z</time>
      </trkpt>
      <trkpt lat="44.21491" lon="6.96705">
        <ele>1157</ele>
        <time>2013-09-21T07:11:25Z</time>
      </trkpt>
      <trkpt lat="44.21466" lon="6.96733">
        <ele>1160</ele>
        <time>2013-09-21T07:11:41Z</time>
      </trkpt>
      <trkpt lat="44.21449" lon="6.9675">
        <ele>1161</ele>
        <time>2013-09-21T07:11:52Z</time>
      </trkpt>
      <trkpt lat="44.21436" lon="6.96757">
        <ele>1162</ele>
        <time>2013-09-21T07:11:59Z</time>
      </trkpt>
      <trkpt lat="44.2142" lon="6.96763">
        <ele>1164</ele>
        <time>2013-09-21T07:12:08Z</time>
      </trkpt>
      <trkpt lat="44.21384" lon="6.96776">
        <ele>1167</ele>
        <time>2013-09-21T07:12:27Z</time>
      </trkpt>
      <trkpt lat="44.21348" lon="6.96781">
        <ele>1170</ele>
        <time>2013-09-21T07:12:46Z</time>
      </trkpt>
      <trkpt lat="44.21321" lon="6.96776">
        <ele>1172</ele>
        <time>2013-09-21T07:13:00Z</time>
      </trkpt>
      <trkpt lat="44.21289" lon="6.96772">
        <ele>1175</ele>
        <time>2013-09-21T07:13:17Z</time>
      </trkpt>
      <trkpt lat="44.21264" lon="6.96787">
        <ele>1177</ele>
        <time>2013-09-21T07:13:31Z</time>
      </trkpt>
      <trkpt lat="44.21238" lon="6.96802">
        <ele>1180</ele>
        <time>2013-09-21T07:13:46Z</time>
      </trkpt>
      <trkpt lat="44.21226" lon="6.96812">
        <ele>1182</ele>
        <time>2013-09-21T07:13:53Z</time>
      </trkpt>
      <trkpt lat="44.21199" lon="6.96845">
        <ele>1186</ele>
        <time>2013-09-21T07:14:11Z</time>
      </trkpt>
      <trkpt lat="44.21162" lon="6.96883">
        <ele>1191</ele>
        <time>2013-09-21T07:14:33Z</time>
      </trkpt>
      <trkpt lat="44.21133" lon="6.96911">
        <ele>1195</ele>
        <time>2013-09-21T07:14:50Z</time>
      </trkpt>
      <trkpt lat="44.21101" lon="6.96931">
        <ele>1198</ele>
        <time>2013-09-21T07:15:07Z</time>
      </trkpt>
      <trkpt lat="44.21067" lon="6.96933">
        <ele>1202</ele>
        <time>2013-09-21T07:15:24Z</time>
      </trkpt>
      <trkpt lat="44.21033" lon="6.96922">
        <ele>1205</ele>
        <time>2013-09-21T07:15:41Z</time>
      </trkpt>
      <trkpt lat="44.20994" lon="6.9691">
        <ele>1208</ele>
        <time>2013-09-21T07:16:01Z</time>
      </trkpt>
      <trkpt lat="44.20955" lon="6.96898">
        <ele>1212</ele>
        <time>2013-09-21T07:16:22Z</time>
      </trkpt>
      <trkpt lat="44.20925" lon="6.96871">
        <ele>1215</ele>
        <time>2013-09-21T07:16:40Z</time>
      </trkpt>
      <trkpt lat="44.20905" lon="6.96841">
        <ele>1217</ele>
        <time>2013-09-21T07:16:56Z</time>
      </trkpt>
      <trkpt lat="44.20874" lon="6.9684">
        <ele>1220</ele>
        <time>2013-09-21T07:17:13Z</time>
      </trkpt>
      <trkpt lat="44.20852" lon="6.96824">
        <ele>1221</ele>
        <time>2013-09-21T07:17:28Z</time>
      </trkpt>
      <trkpt lat="44.20827" lon="6.96815">
        <ele>1223</ele>
        <time>2013-09-21T07:17:44Z</time>
      </trkpt>
      <trkpt lat="44.20803" lon="6.96809">
        <ele>1225</ele>
        <time>2013-09-21T07:17:59Z</time>
      </trkpt>
      <trkpt lat="44.20792" lon="6.96802">
        <ele>1226</ele>
        <time>2013-09-21T07:18:06Z</time>
      </trkpt>
      <trkpt lat="44.20759" lon="6.96789">
        <ele>1228</ele>
        <time>2013-09-21T07:18:24Z</time>
      </trkpt>
      <trkpt lat="44.20722" lon="6.96765">
        <ele>1231</ele>
        <time>2013-09-21T07:18:45Z</time>
      </trkpt>
      <trkpt lat="44.2069" lon="6.96747">
        <ele>1233</ele>
        <time>2013-09-21T07:19:04Z</time>
      </trkpt>
      <trkpt lat="44.20665" lon="6.96723">
        <ele>1235</ele>
        <time>2013-09-21T07:19:21Z</time>
      </trkpt>
      <trkpt lat="44.20656" lon="6.96691">
        <ele>1237</ele>
        <time>2013-09-21T07:19:35Z</time>
      </trkpt>
      <trkpt lat="44.20631" lon="6.96689">
        <ele>1239</ele>
        <time>2013-09-21T07:19:51Z</time>
      </trkpt>
      <trkpt lat="44.20596" lon="6.96686">
        <ele>1241</ele>
        <time>2013-09-21T07:20:10Z</time>
      </trkpt>
      <trkpt lat="44.20556" lon="6.96669">
        <ele>1243</ele>
        <time>2013-09-21T07:20:32Z</time>
      </trkpt>
      <trkpt lat="44.20536" lon="6.9664">
        <ele>1245</ele>
        <time>2013-09-21T07:20:48Z</time>
      </trkpt>
      <trkpt lat="44.2055" lon="6.96612">
        <ele>1247</ele>
        <time>2013-09-21T07:21:01Z</time>
      </trkpt>
      <trkpt lat="44.20558" lon="6.96581">
        <ele>1248</ele>
        <time>2013-09-21T07:21:14Z</time>
      </trkpt>
      <trkpt lat="44.20556" lon="6.9654">
        <ele>1249</ele>
        <time>2013-09-21T07:21:29Z</time>
      </trkpt>
      <trkpt lat="44.20545" lon="6.96504">
        <ele>1252</ele>
        <time>2013-09-21T07:21:45Z</time>
      </trkpt>
      <trkpt lat="44.20515" lon="6.96481">
        <ele>1257</ele>
        <time>2013-09-21T07:22:03Z</time>
      </trkpt>
      <trkpt lat="44.20493" lon="6.96457">
        <ele>1260</ele>
        <time>2013-09-21T07:22:18Z</time>
      </trkpt>
      <trkpt lat="44.20468" lon="6.96462">
        <ele>1263</ele>
        <time>2013-09-21T07:22:32Z</time>
      </trkpt>
      <trkpt lat="44.20437" lon="6.96465">
        <ele>1267</ele>
        <time>2013-09-21T07:22:47Z</time>
      </trkpt>
      <trkpt lat="44.20426" lon="6.96427">
        <ele>1270</ele>
        <time>2013-09-21T07:23:00Z</time>
      </trkpt>
      <trkpt lat="44.20413" lon="6.96388">
        <ele>1274</ele>
        <time>2013-09-21T07:23:17Z</time>
      </trkpt>
      <trkpt lat="44.20381" lon="6.96375">
        <ele>1278</ele>
        <time>2013-09-21T07:23:34Z</time>
      </trkpt>
      <trkpt lat="44.20366" lon="6.96342">
        <ele>1281</ele>
        <time>2013-09-21T07:23:48Z</time>
      </trkpt>
      <trkpt lat="44.20351" lon="6.96309">
        <ele>1283</ele>
        <time>2013-09-21T07:24:02Z</time>
      </trkpt>
      <trkpt lat="44.20332" lon="6.96299">
        <ele>1285</ele>
        <time>2013-09-21T07:24:13Z</time>
      </trkpt>
      <trkpt lat="44.2031" lon="6.96307">
        <ele>1286</ele>
        <time>2013-09-21T07:24:25Z</time>
      </trkpt>
      <trkpt lat="44.20276" lon="6.96293">
        <ele>1289</ele>
        <time>2013-09-21T07:24:42Z</time>
      </trkpt>
      <trkpt lat="44.20263" lon="6.96268">
        <ele>1290</ele>
        <time>2013-09-21T07:24:55Z</time>
      </trkpt>
      <trkpt lat="44.20251" lon="6.96241">
        <ele>1292</ele>
        <time>2013-09-21T07:25:08Z</time>
      </trkpt>
      <trkpt lat="44.20229" lon="6.96229">
        <ele>1293</ele>
        <time>2013-09-21T07:25:21Z</time>
      </trkpt>
      <trkpt lat="44.20208" lon="6.96176">
        <ele>1295</ele>
        <time>2013-09-21T07:25:42Z</time>
      </trkpt>
      <trkpt lat="44.20201" lon="6.96133">
        <ele>1296</ele>
        <time>2013-09-21T07:25:58Z</time>
      </trkpt>
      <trkpt lat="44.20176" lon="6.96123">
        <ele>1297</ele>
        <time>2013-09-21T07:26:11Z</time>
      </trkpt>
      <trkpt lat="44.20165" lon="6.96095">
        <ele>1299</ele>
        <time>2013-09-21T07:26:23Z</time>
      </trkpt>
      <trkpt lat="44.20134" lon="6.96075">
        <ele>1301</ele>
        <time>2013-09-21T07:26:40Z</time>
      </trkpt>
      <trkpt lat="44.20102" lon="6.96051">
        <ele>1303</ele>
        <time>2013-09-21T07:26:59Z</time>
      </trkpt>
      <trkpt lat="44.20074" lon="6.96044">
        <ele>1305</ele>
        <time>2013-09-21T07:27:13Z</time>
      </trkpt>
      <trkpt lat="44.20047" lon="6.96018">
        <ele>1307</ele>
        <time>2013-09-21T07:27:29Z</time>
      </trkpt>
      <trkpt lat="44.20029" lon="6.95982">
        <ele>1309</ele>
        <time>2013-09-21T07:27:45Z</time>
      </trkpt>
      <trkpt lat="44.20014" lon="6.95962">
        <ele>1310</ele>
        <time>2013-09-21T07:27:55Z</time>
      </trkpt>
      <trkpt lat="44.20005" lon="6.95951">
        <ele>1311</ele>
        <time>2013-09-21T07:28:01Z</time>
      </trkpt>
      <trkpt lat="44.19995" lon="6.95919">
        <ele>1312</ele>
        <time>2013-09-21T07:28:14Z</time>
      </trkpt>
      <trkpt lat="44.19977" lon="6.95894">
        <ele>1313</ele>
        <time>2013-09-21T07:28:28Z</time>
      </trkpt>
      <trkpt lat="44.19975" lon="6.95893">
        <ele>1314</ele>
        <time>2013-09-21T07:28:35Z</time>
      </trkpt>
      <trkpt lat="44.1997" lon="6.95893">
        <ele>1318</ele>
        <time>2013-09-21T07:29:09Z</time>
      </trkpt>
      <trkpt lat="44.19948" lon="6.95892">
        <ele>1319</ele>
        <time>2013-09-21T07:29:24Z</time>
      </trkpt>
      <trkpt lat="44.19931" lon="6.9586">
        <ele>1320</ele>
        <time>2013-09-21T07:29:39Z</time>
      </trkpt>
      <trkpt lat="44.19923" lon="6.95831">
        <ele>1321</ele>
        <time>2013-09-21T07:29:52Z</time>
      </trkpt>
      <trkpt lat="44.19905" lon="6.958">
        <ele>1322</ele>
        <time>2013-09-21T07:30:07Z</time>
      </trkpt>
      <trkpt lat="44.19884" lon="6.95763">
        <ele>1324</ele>
        <time>2013-09-21T07:30:25Z</time>
      </trkpt>
      <trkpt lat="44.19881" lon="6.95724">
        <ele>1325</ele>
        <time>2013-09-21T07:30:39Z</time>
      </trkpt>
      <trkpt lat="44.19878" lon="6.95712">
        <ele>1326</ele>
        <time>2013-09-21T07:30:44Z</time>
      </trkpt>
      <trkpt lat="44.19872" lon="6.95691">
        <ele>1326</ele>
        <time>2013-09-21T07:30:52Z</time>
      </trkpt>
      <trkpt lat="44.19865" lon="6.9566">
        <ele>1327</ele>
        <time>2013-09-21T07:31:03Z</time>
      </trkpt>
      <trkpt lat="44.1986" lon="6.95619">
        <ele>1329</ele>
        <time>2013-09-21T07:31:17Z</time>
      </trkpt>
      <trkpt lat="44.19852" lon="6.95575">
        <ele>1331</ele>
        <time>2013-09-21T07:31:33Z</time>
      </trkpt>
      <trkpt lat="44.19845" lon="6.95537">
        <ele>1332</ele>
        <time>2013-09-21T07:31:48Z</time>
      </trkpt>
      <trkpt lat="44.19836" lon="6.95495">
        <ele>1334</ele>
        <time>2013-09-21T07:32:04Z</time>
      </trkpt>
      <trkpt lat="44.19825" lon="6.95457">
        <ele>1337</ele>
        <time>2013-09-21T07:32:20Z</time>
      </trkpt>
      <trkpt lat="44.19816" lon="6.95412">
        <ele>1340</ele>
        <time>2013-09-21T07:32:37Z</time>
      </trkpt>
      <trkpt lat="44.19795" lon="6.95358">
        <ele>1344</ele>
        <time>2013-09-21T07:32:57Z</time>
      </trkpt>
      <trkpt lat="44.19793" lon="6.95307">
        <ele>1347</ele>
        <time>2013-09-21T07:33:14Z</time>
      </trkpt>
      <trkpt lat="44.19788" lon="6.95254">
        <ele>1350</ele>
        <time>2013-09-21T07:33:31Z</time>
      </trkpt>
      <trkpt lat="44.19781" lon="6.95201">
        <ele>1351</ele>
        <time>2013-09-21T07:33:49Z</time>
      </trkpt>
      <trkpt lat="44.19785" lon="6.95155">
        <ele>1353</ele>
        <time>2013-09-21T07:34:05Z</time>
      </trkpt>
      <trkpt lat="44.19778" lon="6.95122">
        <ele>1354</ele>
        <time>2013-09-21T07:34:19Z</time>
      </trkpt>
      <trkpt lat="44.19754" lon="6.95099">
        <ele>1355</ele>
        <time>2013-09-21T07:34:37Z</time>
      </trkpt>
      <trkpt lat="44.19734" lon="6.95071">
        <ele>1357</ele>
        <time>2013-09-21T07:34:54Z</time>
      </trkpt>
      <trkpt lat="44.19714" lon="6.95034">
        <ele>1358</ele>
        <time>2013-09-21T07:35:13Z</time>
      </trkpt>
      <trkpt lat="44.19706" lon="6.94995">
        <ele>1361</ele>
        <time>2013-09-21T07:35:31Z</time>
      </trkpt>
      <trkpt lat="44.19689" lon="6.94954">
        <ele>1363</ele>
        <time>2013-09-21T07:35:51Z</time>
      </trkpt>
      <trkpt lat="44.19682" lon="6.94918">
        <ele>1366</ele>
        <time>2013-09-21T07:36:07Z</time>
      </trkpt>
      <trkpt lat="44.19665" lon="6.9489">
        <ele>1369</ele>
        <time>2013-09-21T07:36:22Z</time>
      </trkpt>
      <trkpt lat="44.19651" lon="6.94853">
        <ele>1373</ele>
        <time>2013-09-21T07:36:39Z</time>
      </trkpt>
      <trkpt lat="44.19634" lon="6.9481">
        <ele>1377</ele>
        <time>2013-09-21T07:37:00Z</time>
      </trkpt>
      <trkpt lat="44.19618" lon="6.94767">
        <ele>1380</ele>
        <time>2013-09-21T07:37:20Z</time>
      </trkpt>
      <trkpt lat="44.19604" lon="6.94723">
        <ele>1383</ele>
        <time>2013-09-21T07:37:40Z</time>
      </trkpt>
      <trkpt lat="44.196" lon="6.94684">
        <ele>1385</ele>
        <time>2013-09-21T07:37:56Z</time>
      </trkpt>
      <trkpt lat="44.19574" lon="6.94654">
        <ele>1388</ele>
        <time>2013-09-21T07:38:14Z</time>
      </trkpt>
      <trkpt lat="44.19555" lon="6.94605">
        <ele>1391</ele>
        <time>2013-09-21T07:38:36Z</time>
      </trkpt>
      <trkpt lat="44.19537" lon="6.9456">
        <ele>1393</ele>
        <time>2013-09-21T07:38:53Z</time>
      </trkpt>
      <trkpt lat="44.1952" lon="6.9454">
        <ele>1395</ele>
        <time>2013-09-21T07:39:04Z</time>
      </trkpt>
      <trkpt lat="44.19499" lon="6.94512">
        <ele>1398</ele>
        <time>2013-09-21T07:39:21Z</time>
      </trkpt>
      <trkpt lat="44.19494" lon="6.94467">
        <ele>1400</ele>
        <time>2013-09-21T07:39:38Z</time>
      </trkpt>
      <trkpt lat="44.19484" lon="6.9442">
        <ele>1402</ele>
        <time>2013-09-21T07:39:55Z</time>
      </trkpt>
      <trkpt lat="44.19472" lon="6.94378">
        <ele>1403</ele>
        <time>2013-09-21T07:40:11Z</time>
      </trkpt>
      <trkpt lat="44.1945" lon="6.94331">
        <ele>1405</ele>
        <time>2013-09-21T07:40:29Z</time>
      </trkpt>
      <trkpt lat="44.19437" lon="6.94292">
        <ele>1407</ele>
        <time>2013-09-21T07:40:44Z</time>
      </trkpt>
      <trkpt lat="44.19419" lon="6.94246">
        <ele>1410</ele>
        <time>2013-09-21T07:41:03Z</time>
      </trkpt>
      <trkpt lat="44.19395" lon="6.94202">
        <ele>1413</ele>
        <time>2013-09-21T07:41:22Z</time>
      </trkpt>
      <trkpt lat="44.19373" lon="6.94175">
        <ele>1416</ele>
        <time>2013-09-21T07:41:36Z</time>
      </trkpt>
      <trkpt lat="44.19345" lon="6.94137">
        <ele>1419</ele>
        <time>2013-09-21T07:41:55Z</time>
      </trkpt>
      <trkpt lat="44.19324" lon="6.94082">
        <ele>1422</ele>
        <time>2013-09-21T07:42:16Z</time>
      </trkpt>
      <trkpt lat="44.19305" lon="6.94039">
        <ele>1424</ele>
        <time>2013-09-21T07:42:32Z</time>
      </trkpt>
      <trkpt lat="44.19284" lon="6.94">
        <ele>1426</ele>
        <time>2013-09-21T07:42:49Z</time>
      </trkpt>
      <trkpt lat="44.19268" lon="6.93957">
        <ele>1428</ele>
        <time>2013-09-21T07:43:06Z</time>
      </trkpt>
      <trkpt lat="44.19252" lon="6.9392">
        <ele>1429</ele>
        <time>2013-09-21T07:43:21Z</time>
      </trkpt>
      <trkpt lat="44.19238" lon="6.93876">
        <ele>1431</ele>
        <time>2013-09-21T07:43:38Z</time>
      </trkpt>
      <trkpt lat="44.19222" lon="6.93836">
        <ele>1433</ele>
        <time>2013-09-21T07:43:54Z</time>
      </trkpt>
      <trkpt lat="44.1921" lon="6.93787">
        <ele>1436</ele>
        <time>2013-09-21T07:44:13Z</time>
      </trkpt>
      <trkpt lat="44.19193" lon="6.9375">
        <ele>1438</ele>
        <time>2013-09-21T07:44:30Z</time>
      </trkpt>
      <trkpt lat="44.19175" lon="6.93704">
        <ele>1441</ele>
        <time>2013-09-21T07:44:51Z</time>
      </trkpt>
      <trkpt lat="44.19162" lon="6.93665">
        <ele>1443</ele>
        <time>2013-09-21T07:45:08Z</time>
      </trkpt>
      <trkpt lat="44.19148" lon="6.9362">
        <ele>1446</ele>
        <time>2013-09-21T07:45:27Z</time>
      </trkpt>
      <trkpt lat="44.19145" lon="6.93567">
        <ele>1450</ele>
        <time>2013-09-21T07:45:47Z</time>
      </trkpt>
      <trkpt lat="44.1915" lon="6.93526">
        <ele>1452</ele>
        <time>2013-09-21T07:46:03Z</time>
      </trkpt>
      <trkpt lat="44.19137" lon="6.93488">
        <ele>1454</ele>
        <time>2013-09-21T07:46:19Z</time>
      </trkpt>
      <trkpt lat="44.19115" lon="6.93456">
        <ele>1457</ele>
        <time>2013-09-21T07:46:36Z</time>
      </trkpt>
      <trkpt lat="44.19102" lon="6.93417">
        <ele>1459</ele>
        <time>2013-09-21T07:46:54Z</time>
      </trkpt>
      <trkpt lat="44.19082" lon="6.93364">
        <ele>1463</ele>
        <time>2013-09-21T07:47:18Z</time>
      </trkpt>
      <trkpt lat="44.19074" lon="6.93326">
        <ele>1466</ele>
        <time>2013-09-21T07:47:34Z</time>
      </trkpt>
      <trkpt lat="44.1906" lon="6.93299">
        <ele>1468</ele>
        <time>2013-09-21T07:47:48Z</time>
      </trkpt>
      <trkpt lat="44.19041" lon="6.93258">
        <ele>1471</ele>
        <time>2013-09-21T07:48:07Z</time>
      </trkpt>
      <trkpt lat="44.19026" lon="6.93226">
        <ele>1473</ele>
        <time>2013-09-21T07:48:24Z</time>
      </trkpt>
      <trkpt lat="44.19023" lon="6.93184">
        <ele>1475</ele>
        <time>2013-09-21T07:48:41Z</time>
      </trkpt>
      <trkpt lat="44.19015" lon="6.93141">
        <ele>1477</ele>
        <time>2013-09-21T07:49:00Z</time>
      </trkpt>
      <trkpt lat="44.19001" lon="6.93101">
        <ele>1480</ele>
        <time>2013-09-21T07:49:18Z</time>
      </trkpt>
      <trkpt lat="44.18993" lon="6.93061">
        <ele>1482</ele>
        <time>2013-09-21T07:49:35Z</time>
      </trkpt>
      <trkpt lat="44.18986" lon="6.93027">
        <ele>1484</ele>
        <time>2013-09-21T07:49:49Z</time>
      </trkpt>
      <trkpt lat="44.18974" lon="6.92981">
        <ele>1488</ele>
        <time>2013-09-21T07:50:10Z</time>
      </trkpt>
      <trkpt lat="44.18955" lon="6.92943">
        <ele>1492</ele>
        <time>2013-09-21T07:50:29Z</time>
      </trkpt>
      <trkpt lat="44.18938" lon="6.929">
        <ele>1494</ele>
        <time>2013-09-21T07:50:49Z</time>
      </trkpt>
      <trkpt lat="44.18931" lon="6.92876">
        <ele>1495</ele>
        <time>2013-09-21T07:51:03Z</time>
      </trkpt>
      <trkpt lat="44.18932" lon="6.92873">
        <ele>1495</ele>
        <time>2013-09-21T07:51:09Z</time>
      </trkpt>
      <trkpt lat="44.18948" lon="6.92873">
        <ele>1525</ele>
        <time>2013-09-21T08:05:46Z</time>
      </trkpt>
      <trkpt lat="44.18954" lon="6.9286">
        <ele>1525</ele>
        <time>2013-09-21T08:05:55Z</time>
      </trkpt>
      <trkpt lat="44.18957" lon="6.92855">
        <ele>1525</ele>
        <time>2013-09-21T08:05:59Z</time>
      </trkpt>
      <trkpt lat="44.18961" lon="6.92833">
        <ele>1524</ele>
        <time>2013-09-21T08:06:15Z</time>
      </trkpt>
      <trkpt lat="44.18958" lon="6.92807">
        <ele>1524</ele>
        <time>2013-09-21T08:06:32Z</time>
      </trkpt>
      <trkpt lat="44.18959" lon="6.9279">
        <ele>1524</ele>
        <time>2013-09-21T08:06:43Z</time>
      </trkpt>
      <trkpt lat="44.18959" lon="6.92779">
        <ele>1524</ele>
        <time>2013-09-21T08:06:49Z</time>
      </trkpt>
      <trkpt lat="44.18961" lon="6.92756">
        <ele>1525</ele>
        <time>2013-09-21T08:07:04Z</time>
      </trkpt>
      <trkpt lat="44.18962" lon="6.9272">
        <ele>1526</ele>
        <time>2013-09-21T08:07:23Z</time>
      </trkpt>
      <trkpt lat="44.18969" lon="6.92692">
        <ele>1528</ele>
        <time>2013-09-21T08:07:37Z</time>
      </trkpt>
      <trkpt lat="44.18959" lon="6.92676">
        <ele>1529</ele>
        <time>2013-09-21T08:07:48Z</time>
      </trkpt>
      <trkpt lat="44.1895" lon="6.92639">
        <ele>1531</ele>
        <time>2013-09-21T08:08:07Z</time>
      </trkpt>
      <trkpt lat="44.18954" lon="6.92614">
        <ele>1532</ele>
        <time>2013-09-21T08:08:21Z</time>
      </trkpt>
      <trkpt lat="44.18961" lon="6.92618">
        <ele>1533</ele>
        <time>2013-09-21T08:08:26Z</time>
      </trkpt>
      <trkpt lat="44.1898" lon="6.92644">
        <ele>1535</ele>
        <time>2013-09-21T08:08:43Z</time>
      </trkpt>
      <trkpt lat="44.19006" lon="6.92676">
        <ele>1538</ele>
        <time>2013-09-21T08:09:04Z</time>
      </trkpt>
      <trkpt lat="44.19024" lon="6.92703">
        <ele>1540</ele>
        <time>2013-09-21T08:09:21Z</time>
      </trkpt>
      <trkpt lat="44.19034" lon="6.92719">
        <ele>1541</ele>
        <time>2013-09-21T08:09:31Z</time>
      </trkpt>
      <trkpt lat="44.19037" lon="6.92707">
        <ele>1542</ele>
        <time>2013-09-21T08:09:38Z</time>
      </trkpt>
      <trkpt lat="44.19031" lon="6.9269">
        <ele>1543</ele>
        <time>2013-09-21T08:09:48Z</time>
      </trkpt>
      <trkpt lat="44.19024" lon="6.92658">
        <ele>1546</ele>
        <time>2013-09-21T08:10:05Z</time>
      </trkpt>
      <trkpt lat="44.19025" lon="6.92615">
        <ele>1549</ele>
        <time>2013-09-21T08:10:27Z</time>
      </trkpt>
      <trkpt lat="44.19019" lon="6.92577">
        <ele>1552</ele>
        <time>2013-09-21T08:10:47Z</time>
      </trkpt>
      <trkpt lat="44.19018" lon="6.92564">
        <ele>1553</ele>
        <time>2013-09-21T08:10:53Z</time>
      </trkpt>
      <trkpt lat="44.19013" lon="6.92522">
        <ele>1557</ele>
        <time>2013-09-21T08:11:14Z</time>
      </trkpt>
      <trkpt lat="44.19007" lon="6.92479">
        <ele>1560</ele>
        <time>2013-09-21T08:11:35Z</time>
      </trkpt>
      <trkpt lat="44.19001" lon="6.9243">
        <ele>1564</ele>
        <time>2013-09-21T08:11:58Z</time>
      </trkpt>
      <trkpt lat="44.18996" lon="6.92389">
        <ele>1567</ele>
        <time>2013-09-21T08:12:18Z</time>
      </trkpt>
      <trkpt lat="44.18991" lon="6.92346">
        <ele>1570</ele>
        <time>2013-09-21T08:12:38Z</time>
      </trkpt>
      <trkpt lat="44.18985" lon="6.92313">
        <ele>1573</ele>
        <time>2013-09-21T08:12:54Z</time>
      </trkpt>
      <trkpt lat="44.18991" lon="6.92278">
        <ele>1575</ele>
        <time>2013-09-21T08:13:10Z</time>
      </trkpt>
      <trkpt lat="44.19001" lon="6.92229">
        <ele>1578</ele>
        <time>2013-09-21T08:13:32Z</time>
      </trkpt>
      <trkpt lat="44.18999" lon="6.92175">
        <ele>1582</ele>
        <time>2013-09-21T08:13:55Z</time>
      </trkpt>
      <trkpt lat="44.18983" lon="6.92129">
        <ele>1585</ele>
        <time>2013-09-21T08:14:16Z</time>
      </trkpt>
      <trkpt lat="44.18962" lon="6.9209">
        <ele>1588</ele>
        <time>2013-09-21T08:14:36Z</time>
      </trkpt>
      <trkpt lat="44.18947" lon="6.92049">
        <ele>1591</ele>
        <time>2013-09-21T08:14:54Z</time>
      </trkpt>
      <trkpt lat="44.18958" lon="6.92017">
        <ele>1592</ele>
        <time>2013-09-21T08:15:07Z</time>
      </trkpt>
      <trkpt lat="44.1897" lon="6.91988">
        <ele>1594</ele>
        <time>2013-09-21T08:15:20Z</time>
      </trkpt>
      <trkpt lat="44.18972" lon="6.91983">
        <ele>1596</ele>
        <time>2013-09-21T08:15:38Z</time>
      </trkpt>
      <trkpt lat="44.1897" lon="6.91984">
        <ele>1601</ele>
        <time>2013-09-21T08:16:39Z</time>
      </trkpt>
      <trkpt lat="44.18982" lon="6.91978">
        <ele>1601</ele>
        <time>2013-09-21T08:16:56Z</time>
      </trkpt>
      <trkpt lat="44.19018" lon="6.91947">
        <ele>1601</ele>
        <time>2013-09-21T08:17:09Z</time>
      </trkpt>
      <trkpt lat="44.19041" lon="6.91938">
        <ele>1600</ele>
        <time>2013-09-21T08:17:14Z</time>
      </trkpt>
      <trkpt lat="44.19043" lon="6.91912">
        <ele>1600</ele>
        <time>2013-09-21T08:17:19Z</time>
      </trkpt>
      <trkpt lat="44.19039" lon="6.91905">
        <ele>1600</ele>
        <time>2013-09-21T08:17:21Z</time>
      </trkpt>
      <trkpt lat="44.19019" lon="6.9189">
        <ele>1600</ele>
        <time>2013-09-21T08:17:29Z</time>
      </trkpt>
      <trkpt lat="44.19014" lon="6.91844">
        <ele>1600</ele>
        <time>2013-09-21T08:17:43Z</time>
      </trkpt>
      <trkpt lat="44.18998" lon="6.91809">
        <ele>1600</ele>
        <time>2013-09-21T08:17:55Z</time>
      </trkpt>
      <trkpt lat="44.18996" lon="6.91767">
        <ele>1601</ele>
        <time>2013-09-21T08:18:11Z</time>
      </trkpt>
      <trkpt lat="44.19003" lon="6.91723">
        <ele>1602</ele>
        <time>2013-09-21T08:18:28Z</time>
      </trkpt>
      <trkpt lat="44.19017" lon="6.91676">
        <ele>1603</ele>
        <time>2013-09-21T08:18:45Z</time>
      </trkpt>
      <trkpt lat="44.19016" lon="6.91613">
        <ele>1604</ele>
        <time>2013-09-21T08:18:57Z</time>
      </trkpt>
      <trkpt lat="44.19017" lon="6.91573">
        <ele>1604</ele>
        <time>2013-09-21T08:19:04Z</time>
      </trkpt>
      <trkpt lat="44.19025" lon="6.91561">
        <ele>1604</ele>
        <time>2013-09-21T08:19:07Z</time>
      </trkpt>
      <trkpt lat="44.19027" lon="6.91535">
        <ele>1604</ele>
        <time>2013-09-21T08:19:12Z</time>
      </trkpt>
      <trkpt lat="44.19024" lon="6.91482">
        <ele>1604</ele>
        <time>2013-09-21T08:19:19Z</time>
      </trkpt>
      <trkpt lat="44.19015" lon="6.91447">
        <ele>1604</ele>
        <time>2013-09-21T08:19:23Z</time>
      </trkpt>
      <trkpt lat="44.19006" lon="6.91425">
        <ele>1604</ele>
        <time>2013-09-21T08:19:27Z</time>
      </trkpt>
      <trkpt lat="44.19003" lon="6.9141">
        <ele>1604</ele>
        <time>2013-09-21T08:19:32Z</time>
      </trkpt>
      <trkpt lat="44.18992" lon="6.91388">
        <ele>1605</ele>
        <time>2013-09-21T08:19:44Z</time>
      </trkpt>
      <trkpt lat="44.18983" lon="6.91356">
        <ele>1608</ele>
        <time>2013-09-21T08:19:58Z</time>
      </trkpt>
      <trkpt lat="44.18989" lon="6.91318">
        <ele>1609</ele>
        <time>2013-09-21T08:20:07Z</time>
      </trkpt>
      <trkpt lat="44.19016" lon="6.91299">
        <ele>1610</ele>
        <time>2013-09-21T08:20:13Z</time>
      </trkpt>
      <trkpt lat="44.19029" lon="6.91297">
        <ele>1610</ele>
        <time>2013-09-21T08:20:16Z</time>
      </trkpt>
      <trkpt lat="44.19039" lon="6.91289">
        <ele>1610</ele>
        <time>2013-09-21T08:20:19Z</time>
      </trkpt>
      <trkpt lat="44.19032" lon="6.91256">
        <ele>1611</ele>
        <time>2013-09-21T08:20:26Z</time>
      </trkpt>
      <trkpt lat="44.18997" lon="6.91222">
        <ele>1612</ele>
        <time>2013-09-21T08:20:36Z</time>
      </trkpt>
      <trkpt lat="44.18987" lon="6.91209">
        <ele>1612</ele>
        <time>2013-09-21T08:20:39Z</time>
      </trkpt>
      <trkpt lat="44.1899" lon="6.91167">
        <ele>1612</ele>
        <time>2013-09-21T08:20:46Z</time>
      </trkpt>
      <trkpt lat="44.18997" lon="6.91144">
        <ele>1612</ele>
        <time>2013-09-21T08:20:50Z</time>
      </trkpt>
      <trkpt lat="44.19" lon="6.91129">
        <ele>1612</ele>
        <time>2013-09-21T08:20:53Z</time>
      </trkpt>
      <trkpt lat="44.19006" lon="6.9111">
        <ele>1612</ele>
        <time>2013-09-21T08:20:57Z</time>
      </trkpt>
      <trkpt lat="44.1904" lon="6.91074">
        <ele>1613</ele>
        <time>2013-09-21T08:21:10Z</time>
      </trkpt>
      <trkpt lat="44.19051" lon="6.91035">
        <ele>1614</ele>
        <time>2013-09-21T08:21:22Z</time>
      </trkpt>
      <trkpt lat="44.19058" lon="6.91007">
        <ele>1615</ele>
        <time>2013-09-21T08:21:34Z</time>
      </trkpt>
      <trkpt lat="44.19057" lon="6.91004">
        <ele>1615</ele>
        <time>2013-09-21T08:21:40Z</time>
      </trkpt>
      <trkpt lat="44.19057" lon="6.91002">
        <ele>1616</ele>
        <time>2013-09-21T08:21:49Z</time>
      </trkpt>
      <trkpt lat="44.19018" lon="6.90989">
        <ele>1613</ele>
        <time>2013-09-21T08:27:38Z</time>
      </trkpt>
      <trkpt lat="44.19017" lon="6.90987">
        <ele>1612</ele>
        <time>2013-09-21T08:27:42Z</time>
      </trkpt>
      <trkpt lat="44.18998" lon="6.9097">
        <ele>1611</ele>
        <time>2013-09-21T08:27:51Z</time>
      </trkpt>
      <trkpt lat="44.1899" lon="6.90954">
        <ele>1610</ele>
        <time>2013-09-21T08:27:56Z</time>
      </trkpt>
      <trkpt lat="44.18973" lon="6.90908">
        <ele>1609</ele>
        <time>2013-09-21T08:28:08Z</time>
      </trkpt>
      <trkpt lat="44.18967" lon="6.90898">
        <ele>1608</ele>
        <time>2013-09-21T08:28:14Z</time>
      </trkpt>
      <trkpt lat="44.18954" lon="6.9091">
        <ele>1600</ele>
        <time>2013-09-21T08:36:46Z</time>
      </trkpt>
      <trkpt lat="44.18948" lon="6.90912">
        <ele>1600</ele>
        <time>2013-09-21T08:36:54Z</time>
      </trkpt>
      <trkpt lat="44.18942" lon="6.90909">
        <ele>1601</ele>
        <time>2013-09-21T08:37:10Z</time>
      </trkpt>
      <trkpt lat="44.18936" lon="6.90907">
        <ele>1601</ele>
        <time>2013-09-21T08:37:21Z</time>
      </trkpt>
      <trkpt lat="44.18932" lon="6.90903">
        <ele>1601</ele>
        <time>2013-09-21T08:37:30Z</time>
      </trkpt>
      <trkpt lat="44.18926" lon="6.90887">
        <ele>1602</ele>
        <time>2013-09-21T08:37:47Z</time>
      </trkpt>
      <trkpt lat="44.18925" lon="6.90883">
        <ele>1602</ele>
        <time>2013-09-21T08:38:03Z</time>
      </trkpt>
      <trkpt lat="44.18924" lon="6.90867">
        <ele>1602</ele>
        <time>2013-09-21T08:38:32Z</time>
      </trkpt>
      <trkpt lat="44.18924" lon="6.90864">
        <ele>1602</ele>
        <time>2013-09-21T08:38:35Z</time>
      </trkpt>
      <trkpt lat="44.18924" lon="6.90862">
        <ele>1601</ele>
        <time>2013-09-21T08:38:38Z</time>
      </trkpt>
      <trkpt lat="44.18924" lon="6.90849">
        <ele>1601</ele>
        <time>2013-09-21T08:38:49Z</time>
      </trkpt>
      <trkpt lat="44.18924" lon="6.90841">
        <ele>1601</ele>
        <time>2013-09-21T08:38:54Z</time>
      </trkpt>
      <trkpt lat="44.18925" lon="6.90836">
        <ele>1601</ele>
        <time>2013-09-21T08:38:58Z</time>
      </trkpt>
      <trkpt lat="44.18928" lon="6.9083">
        <ele>1602</ele>
        <time>2013-09-21T08:39:05Z</time>
      </trkpt>
      <trkpt lat="44.18932" lon="6.90819">
        <ele>1603</ele>
        <time>2013-09-21T08:39:20Z</time>
      </trkpt>
      <trkpt lat="44.18932" lon="6.90799">
        <ele>1606</ele>
        <time>2013-09-21T08:39:41Z</time>
      </trkpt>
      <trkpt lat="44.18938" lon="6.90768">
        <ele>1611</ele>
        <time>2013-09-21T08:40:14Z</time>
      </trkpt>
      <trkpt lat="44.18936" lon="6.90762">
        <ele>1612</ele>
        <time>2013-09-21T08:40:22Z</time>
      </trkpt>
      <trkpt lat="44.18935" lon="6.90755">
        <ele>1614</ele>
        <time>2013-09-21T08:40:33Z</time>
      </trkpt>
      <trkpt lat="44.18934" lon="6.90736">
        <ele>1616</ele>
        <time>2013-09-21T08:40:57Z</time>
      </trkpt>
      <trkpt lat="44.18937" lon="6.90728">
        <ele>1618</ele>
        <time>2013-09-21T08:41:10Z</time>
      </trkpt>
      <trkpt lat="44.18942" lon="6.90708">
        <ele>1620</ele>
        <time>2013-09-21T08:41:37Z</time>
      </trkpt>
      <trkpt lat="44.18949" lon="6.90676">
        <ele>1623</ele>
        <time>2013-09-21T08:42:10Z</time>
      </trkpt>
      <trkpt lat="44.1895" lon="6.90666">
        <ele>1625</ele>
        <time>2013-09-21T08:42:23Z</time>
      </trkpt>
      <trkpt lat="44.18948" lon="6.90647">
        <ele>1627</ele>
        <time>2013-09-21T08:42:45Z</time>
      </trkpt>
      <trkpt lat="44.18948" lon="6.90623">
        <ele>1631</ele>
        <time>2013-09-21T08:43:16Z</time>
      </trkpt>
      <trkpt lat="44.18943" lon="6.90605">
        <ele>1637</ele>
        <time>2013-09-21T08:43:49Z</time>
      </trkpt>
      <trkpt lat="44.18936" lon="6.90603">
        <ele>1638</ele>
        <time>2013-09-21T08:44:04Z</time>
      </trkpt>
      <trkpt lat="44.18931" lon="6.90595">
        <ele>1640</ele>
        <time>2013-09-21T08:44:19Z</time>
      </trkpt>
      <trkpt lat="44.18927" lon="6.90589">
        <ele>1641</ele>
        <time>2013-09-21T08:44:30Z</time>
      </trkpt>
      <trkpt lat="44.18921" lon="6.90585">
        <ele>1642</ele>
        <time>2013-09-21T08:44:45Z</time>
      </trkpt>
      <trkpt lat="44.18915" lon="6.9059">
        <ele>1644</ele>
        <time>2013-09-21T08:44:57Z</time>
      </trkpt>
      <trkpt lat="44.18901" lon="6.90592">
        <ele>1646</ele>
        <time>2013-09-21T08:45:12Z</time>
      </trkpt>
      <trkpt lat="44.18892" lon="6.90594">
        <ele>1648</ele>
        <time>2013-09-21T08:45:26Z</time>
      </trkpt>
      <trkpt lat="44.18882" lon="6.90597">
        <ele>1649</ele>
        <time>2013-09-21T08:45:39Z</time>
      </trkpt>
      <trkpt lat="44.18875" lon="6.90596">
        <ele>1650</ele>
        <time>2013-09-21T08:45:51Z</time>
      </trkpt>
      <trkpt lat="44.18866" lon="6.90594">
        <ele>1651</ele>
        <time>2013-09-21T08:46:04Z</time>
      </trkpt>
      <trkpt lat="44.18858" lon="6.90592">
        <ele>1652</ele>
        <time>2013-09-21T08:46:18Z</time>
      </trkpt>
      <trkpt lat="44.18848" lon="6.90593">
        <ele>1654</ele>
        <time>2013-09-21T08:46:33Z</time>
      </trkpt>
      <trkpt lat="44.18834" lon="6.90596">
        <ele>1655</ele>
        <time>2013-09-21T08:46:57Z</time>
      </trkpt>
      <trkpt lat="44.18823" lon="6.90594">
        <ele>1656</ele>
        <time>2013-09-21T08:47:11Z</time>
      </trkpt>
      <trkpt lat="44.18815" lon="6.90592">
        <ele>1657</ele>
        <time>2013-09-21T08:47:27Z</time>
      </trkpt>
      <trkpt lat="44.18806" lon="6.90592">
        <ele>1658</ele>
        <time>2013-09-21T08:47:39Z</time>
      </trkpt>
      <trkpt lat="44.18792" lon="6.90593">
        <ele>1660</ele>
        <time>2013-09-21T08:47:56Z</time>
      </trkpt>
      <trkpt lat="44.18783" lon="6.90592">
        <ele>1661</ele>
        <time>2013-09-21T08:48:08Z</time>
      </trkpt>
      <trkpt lat="44.18777" lon="6.90587">
        <ele>1662</ele>
        <time>2013-09-21T08:48:18Z</time>
      </trkpt>
      <trkpt lat="44.18768" lon="6.9058">
        <ele>1663</ele>
        <time>2013-09-21T08:48:33Z</time>
      </trkpt>
      <trkpt lat="44.18765" lon="6.90566">
        <ele>1665</ele>
        <time>2013-09-21T08:48:56Z</time>
      </trkpt>
      <trkpt lat="44.1876" lon="6.90563">
        <ele>1666</ele>
        <time>2013-09-21T08:49:05Z</time>
      </trkpt>
      <trkpt lat="44.18754" lon="6.90557">
        <ele>1667</ele>
        <time>2013-09-21T08:49:19Z</time>
      </trkpt>
      <trkpt lat="44.18747" lon="6.90553">
        <ele>1668</ele>
        <time>2013-09-21T08:49:33Z</time>
      </trkpt>
      <trkpt lat="44.18748" lon="6.90548">
        <ele>1669</ele>
        <time>2013-09-21T08:49:45Z</time>
      </trkpt>
      <trkpt lat="44.18745" lon="6.90543">
        <ele>1670</ele>
        <time>2013-09-21T08:49:59Z</time>
      </trkpt>
      <trkpt lat="44.18739" lon="6.90542">
        <ele>1671</ele>
        <time>2013-09-21T08:50:09Z</time>
      </trkpt>
      <trkpt lat="44.18729" lon="6.90539">
        <ele>1672</ele>
        <time>2013-09-21T08:50:22Z</time>
      </trkpt>
      <trkpt lat="44.18723" lon="6.90535">
        <ele>1672</ele>
        <time>2013-09-21T08:50:32Z</time>
      </trkpt>
      <trkpt lat="44.18716" lon="6.90534">
        <ele>1673</ele>
        <time>2013-09-21T08:50:43Z</time>
      </trkpt>
      <trkpt lat="44.18707" lon="6.90531">
        <ele>1673</ele>
        <time>2013-09-21T08:50:55Z</time>
      </trkpt>
      <trkpt lat="44.18703" lon="6.90529">
        <ele>1674</ele>
        <time>2013-09-21T08:51:01Z</time>
      </trkpt>
      <trkpt lat="44.18698" lon="6.90526">
        <ele>1675</ele>
        <time>2013-09-21T08:51:11Z</time>
      </trkpt>
      <trkpt lat="44.1869" lon="6.90524">
        <ele>1677</ele>
        <time>2013-09-21T08:51:25Z</time>
      </trkpt>
      <trkpt lat="44.18687" lon="6.90521">
        <ele>1680</ele>
        <time>2013-09-21T08:51:46Z</time>
      </trkpt>
      <trkpt lat="44.18681" lon="6.90519">
        <ele>1681</ele>
        <time>2013-09-21T08:51:58Z</time>
      </trkpt>
      <trkpt lat="44.18673" lon="6.90519">
        <ele>1684</ele>
        <time>2013-09-21T08:52:10Z</time>
      </trkpt>
      <trkpt lat="44.18666" lon="6.90517">
        <ele>1686</ele>
        <time>2013-09-21T08:52:22Z</time>
      </trkpt>
      <trkpt lat="44.1866" lon="6.90513">
        <ele>1689</ele>
        <time>2013-09-21T08:52:36Z</time>
      </trkpt>
      <trkpt lat="44.18654" lon="6.90505">
        <ele>1691</ele>
        <time>2013-09-21T08:52:47Z</time>
      </trkpt>
      <trkpt lat="44.18648" lon="6.90502">
        <ele>1694</ele>
        <time>2013-09-21T08:53:00Z</time>
      </trkpt>
      <trkpt lat="44.18639" lon="6.90497">
        <ele>1697</ele>
        <time>2013-09-21T08:53:17Z</time>
      </trkpt>
      <trkpt lat="44.18632" lon="6.90492">
        <ele>1700</ele>
        <time>2013-09-21T08:53:29Z</time>
      </trkpt>
      <trkpt lat="44.18625" lon="6.90484">
        <ele>1704</ele>
        <time>2013-09-21T08:53:51Z</time>
      </trkpt>
      <trkpt lat="44.18621" lon="6.90477">
        <ele>1706</ele>
        <time>2013-09-21T08:54:05Z</time>
      </trkpt>
      <trkpt lat="44.1862" lon="6.90472">
        <ele>1708</ele>
        <time>2013-09-21T08:54:17Z</time>
      </trkpt>
      <trkpt lat="44.18612" lon="6.90462">
        <ele>1711</ele>
        <time>2013-09-21T08:54:38Z</time>
      </trkpt>
      <trkpt lat="44.1861" lon="6.90461">
        <ele>1712</ele>
        <time>2013-09-21T08:54:41Z</time>
      </trkpt>
      <trkpt lat="44.18601" lon="6.90454">
        <ele>1714</ele>
        <time>2013-09-21T08:54:54Z</time>
      </trkpt>
      <trkpt lat="44.18594" lon="6.90446">
        <ele>1716</ele>
        <time>2013-09-21T08:55:09Z</time>
      </trkpt>
      <trkpt lat="44.18588" lon="6.90442">
        <ele>1718</ele>
        <time>2013-09-21T08:55:20Z</time>
      </trkpt>
      <trkpt lat="44.18579" lon="6.90437">
        <ele>1721</ele>
        <time>2013-09-21T08:55:32Z</time>
      </trkpt>
      <trkpt lat="44.18573" lon="6.90436">
        <ele>1723</ele>
        <time>2013-09-21T08:55:42Z</time>
      </trkpt>
      <trkpt lat="44.18568" lon="6.90432">
        <ele>1725</ele>
        <time>2013-09-21T08:55:54Z</time>
      </trkpt>
      <trkpt lat="44.18565" lon="6.90426">
        <ele>1727</ele>
        <time>2013-09-21T08:56:07Z</time>
      </trkpt>
      <trkpt lat="44.1856" lon="6.90423">
        <ele>1729</ele>
        <time>2013-09-21T08:56:19Z</time>
      </trkpt>
      <trkpt lat="44.18556" lon="6.90421">
        <ele>1731</ele>
        <time>2013-09-21T08:56:31Z</time>
      </trkpt>
      <trkpt lat="44.18548" lon="6.90416">
        <ele>1734</ele>
        <time>2013-09-21T08:56:47Z</time>
      </trkpt>
      <trkpt lat="44.18535" lon="6.90414">
        <ele>1737</ele>
        <time>2013-09-21T08:57:08Z</time>
      </trkpt>
      <trkpt lat="44.18529" lon="6.90415">
        <ele>1738</ele>
        <time>2013-09-21T08:57:18Z</time>
      </trkpt>
      <trkpt lat="44.18518" lon="6.90411">
        <ele>1741</ele>
        <time>2013-09-21T08:57:41Z</time>
      </trkpt>
      <trkpt lat="44.18514" lon="6.90408">
        <ele>1742</ele>
        <time>2013-09-21T08:57:48Z</time>
      </trkpt>
      <trkpt lat="44.1851" lon="6.90402">
        <ele>1744</ele>
        <time>2013-09-21T08:58:04Z</time>
      </trkpt>
      <trkpt lat="44.18505" lon="6.90399">
        <ele>1745</ele>
        <time>2013-09-21T08:58:14Z</time>
      </trkpt>
      <trkpt lat="44.185" lon="6.90394">
        <ele>1746</ele>
        <time>2013-09-21T08:58:26Z</time>
      </trkpt>
      <trkpt lat="44.18495" lon="6.90389">
        <ele>1746</ele>
        <time>2013-09-21T08:58:34Z</time>
      </trkpt>
      <trkpt lat="44.18491" lon="6.90385">
        <ele>1747</ele>
        <time>2013-09-21T08:58:39Z</time>
      </trkpt>
      <trkpt lat="44.18493" lon="6.90382">
        <ele>1748</ele>
        <time>2013-09-21T08:58:52Z</time>
      </trkpt>
      <trkpt lat="44.18502" lon="6.90377">
        <ele>1751</ele>
        <time>2013-09-21T08:59:16Z</time>
      </trkpt>
      <trkpt lat="44.18499" lon="6.90372">
        <ele>1754</ele>
        <time>2013-09-21T08:59:30Z</time>
      </trkpt>
      <trkpt lat="44.18492" lon="6.90366">
        <ele>1756</ele>
        <time>2013-09-21T08:59:39Z</time>
      </trkpt>
      <trkpt lat="44.18491" lon="6.90361">
        <ele>1758</ele>
        <time>2013-09-21T08:59:50Z</time>
      </trkpt>
      <trkpt lat="44.18494" lon="6.9036">
        <ele>1760</ele>
        <time>2013-09-21T08:59:58Z</time>
      </trkpt>
      <trkpt lat="44.18498" lon="6.9036">
        <ele>1762</ele>
        <time>2013-09-21T09:00:08Z</time>
      </trkpt>
      <trkpt lat="44.18499" lon="6.90355">
        <ele>1764</ele>
        <time>2013-09-21T09:00:19Z</time>
      </trkpt>
      <trkpt lat="44.18498" lon="6.90347">
        <ele>1766</ele>
        <time>2013-09-21T09:00:41Z</time>
      </trkpt>
      <trkpt lat="44.18503" lon="6.90347">
        <ele>1766</ele>
        <time>2013-09-21T09:00:48Z</time>
      </trkpt>
      <trkpt lat="44.1851" lon="6.90351">
        <ele>1767</ele>
        <time>2013-09-21T09:01:00Z</time>
      </trkpt>
      <trkpt lat="44.18518" lon="6.90351">
        <ele>1769</ele>
        <time>2013-09-21T09:01:15Z</time>
      </trkpt>
      <trkpt lat="44.18514" lon="6.90345">
        <ele>1770</ele>
        <time>2013-09-21T09:01:28Z</time>
      </trkpt>
      <trkpt lat="44.18496" lon="6.90318">
        <ele>1772</ele>
        <time>2013-09-21T09:02:22Z</time>
      </trkpt>
      <trkpt lat="44.18493" lon="6.90315">
        <ele>1773</ele>
        <time>2013-09-21T09:02:30Z</time>
      </trkpt>
      <trkpt lat="44.18486" lon="6.90312">
        <ele>1774</ele>
        <time>2013-09-21T09:02:40Z</time>
      </trkpt>
      <trkpt lat="44.18478" lon="6.90308">
        <ele>1775</ele>
        <time>2013-09-21T09:02:56Z</time>
      </trkpt>
      <trkpt lat="44.18471" lon="6.90306">
        <ele>1777</ele>
        <time>2013-09-21T09:03:13Z</time>
      </trkpt>
      <trkpt lat="44.18463" lon="6.90307">
        <ele>1778</ele>
        <time>2013-09-21T09:03:26Z</time>
      </trkpt>
      <trkpt lat="44.18456" lon="6.90309">
        <ele>1780</ele>
        <time>2013-09-21T09:03:44Z</time>
      </trkpt>
      <trkpt lat="44.1845" lon="6.90313">
        <ele>1782</ele>
        <time>2013-09-21T09:03:58Z</time>
      </trkpt>
      <trkpt lat="44.18446" lon="6.90322">
        <ele>1784</ele>
        <time>2013-09-21T09:04:12Z</time>
      </trkpt>
      <trkpt lat="44.18443" lon="6.90328">
        <ele>1785</ele>
        <time>2013-09-21T09:04:24Z</time>
      </trkpt>
      <trkpt lat="44.18434" lon="6.90325">
        <ele>1788</ele>
        <time>2013-09-21T09:04:51Z</time>
      </trkpt>
      <trkpt lat="44.18431" lon="6.90319">
        <ele>1789</ele>
        <time>2013-09-21T09:05:01Z</time>
      </trkpt>
      <trkpt lat="44.18423" lon="6.90318">
        <ele>1789</ele>
        <time>2013-09-21T09:05:10Z</time>
      </trkpt>
      <trkpt lat="44.18421" lon="6.90321">
        <ele>1788</ele>
        <time>2013-09-21T09:05:15Z</time>
      </trkpt>
      <trkpt lat="44.18419" lon="6.90328">
        <ele>1788</ele>
        <time>2013-09-21T09:05:27Z</time>
      </trkpt>
      <trkpt lat="44.18422" lon="6.90341">
        <ele>1788</ele>
        <time>2013-09-21T09:05:41Z</time>
      </trkpt>
      <trkpt lat="44.18423" lon="6.90348">
        <ele>1788</ele>
        <time>2013-09-21T09:05:54Z</time>
      </trkpt>
      <trkpt lat="44.18418" lon="6.90359">
        <ele>1789</ele>
        <time>2013-09-21T09:06:08Z</time>
      </trkpt>
      <trkpt lat="44.1841" lon="6.9037">
        <ele>1792</ele>
        <time>2013-09-21T09:06:26Z</time>
      </trkpt>
      <trkpt lat="44.18401" lon="6.90379">
        <ele>1795</ele>
        <time>2013-09-21T09:06:46Z</time>
      </trkpt>
      <trkpt lat="44.18397" lon="6.90384">
        <ele>1798</ele>
        <time>2013-09-21T09:07:01Z</time>
      </trkpt>
      <trkpt lat="44.18389" lon="6.90393">
        <ele>1805</ele>
        <time>2013-09-21T09:07:28Z</time>
      </trkpt>
      <trkpt lat="44.18385" lon="6.904">
        <ele>1809</ele>
        <time>2013-09-21T09:07:39Z</time>
      </trkpt>
      <trkpt lat="44.18383" lon="6.90397">
        <ele>1812</ele>
        <time>2013-09-21T09:07:51Z</time>
      </trkpt>
      <trkpt lat="44.18392" lon="6.90391">
        <ele>1816</ele>
        <time>2013-09-21T09:08:05Z</time>
      </trkpt>
      <trkpt lat="44.18395" lon="6.90382">
        <ele>1818</ele>
        <time>2013-09-21T09:08:15Z</time>
      </trkpt>
      <trkpt lat="44.18395" lon="6.90373">
        <ele>1821</ele>
        <time>2013-09-21T09:08:26Z</time>
      </trkpt>
      <trkpt lat="44.18386" lon="6.90362">
        <ele>1823</ele>
        <time>2013-09-21T09:08:35Z</time>
      </trkpt>
      <trkpt lat="44.18388" lon="6.90353">
        <ele>1824</ele>
        <time>2013-09-21T09:08:48Z</time>
      </trkpt>
      <trkpt lat="44.1839" lon="6.90347">
        <ele>1826</ele>
        <time>2013-09-21T09:08:59Z</time>
      </trkpt>
      <trkpt lat="44.18383" lon="6.90341">
        <ele>1828</ele>
        <time>2013-09-21T09:09:12Z</time>
      </trkpt>
      <trkpt lat="44.18379" lon="6.90336">
        <ele>1829</ele>
        <time>2013-09-21T09:09:21Z</time>
      </trkpt>
      <trkpt lat="44.18378" lon="6.90333">
        <ele>1829</ele>
        <time>2013-09-21T09:09:24Z</time>
      </trkpt>
      <trkpt lat="44.18378" lon="6.90327">
        <ele>1831</ele>
        <time>2013-09-21T09:09:33Z</time>
      </trkpt>
      <trkpt lat="44.18371" lon="6.90323">
        <ele>1832</ele>
        <time>2013-09-21T09:09:44Z</time>
      </trkpt>
      <trkpt lat="44.18372" lon="6.90314">
        <ele>1834</ele>
        <time>2013-09-21T09:09:57Z</time>
      </trkpt>
      <trkpt lat="44.18367" lon="6.9031">
        <ele>1837</ele>
        <time>2013-09-21T09:10:12Z</time>
      </trkpt>
      <trkpt lat="44.18365" lon="6.90302">
        <ele>1838</ele>
        <time>2013-09-21T09:10:23Z</time>
      </trkpt>
      <trkpt lat="44.18361" lon="6.90302">
        <ele>1840</ele>
        <time>2013-09-21T09:10:41Z</time>
      </trkpt>
      <trkpt lat="44.18354" lon="6.90301">
        <ele>1841</ele>
        <time>2013-09-21T09:10:56Z</time>
      </trkpt>
      <trkpt lat="44.18348" lon="6.90315">
        <ele>1843</ele>
        <time>2013-09-21T09:11:12Z</time>
      </trkpt>
      <trkpt lat="44.18346" lon="6.90305">
        <ele>1845</ele>
        <time>2013-09-21T09:11:26Z</time>
      </trkpt>
      <trkpt lat="44.18338" lon="6.90307">
        <ele>1847</ele>
        <time>2013-09-21T09:11:42Z</time>
      </trkpt>
      <trkpt lat="44.18333" lon="6.90302">
        <ele>1848</ele>
        <time>2013-09-21T09:11:54Z</time>
      </trkpt>
      <trkpt lat="44.1832" lon="6.90301">
        <ele>1850</ele>
        <time>2013-09-21T09:12:13Z</time>
      </trkpt>
      <trkpt lat="44.18314" lon="6.90304">
        <ele>1852</ele>
        <time>2013-09-21T09:12:30Z</time>
      </trkpt>
      <trkpt lat="44.18309" lon="6.903">
        <ele>1853</ele>
        <time>2013-09-21T09:12:40Z</time>
      </trkpt>
      <trkpt lat="44.18306" lon="6.90293">
        <ele>1854</ele>
        <time>2013-09-21T09:12:49Z</time>
      </trkpt>
      <trkpt lat="44.18299" lon="6.9028">
        <ele>1855</ele>
        <time>2013-09-21T09:13:06Z</time>
      </trkpt>
      <trkpt lat="44.18298" lon="6.90268">
        <ele>1857</ele>
        <time>2013-09-21T09:13:21Z</time>
      </trkpt>
      <trkpt lat="44.18309" lon="6.90262">
        <ele>1859</ele>
        <time>2013-09-21T09:13:40Z</time>
      </trkpt>
      <trkpt lat="44.18316" lon="6.9025">
        <ele>1862</ele>
        <time>2013-09-21T09:13:58Z</time>
      </trkpt>
      <trkpt lat="44.18306" lon="6.90243">
        <ele>1863</ele>
        <time>2013-09-21T09:14:15Z</time>
      </trkpt>
      <trkpt lat="44.18299" lon="6.90238">
        <ele>1865</ele>
        <time>2013-09-21T09:14:33Z</time>
      </trkpt>
      <trkpt lat="44.18289" lon="6.90229">
        <ele>1867</ele>
        <time>2013-09-21T09:14:53Z</time>
      </trkpt>
      <trkpt lat="44.18282" lon="6.90219">
        <ele>1868</ele>
        <time>2013-09-21T09:15:11Z</time>
      </trkpt>
      <trkpt lat="44.18277" lon="6.90205">
        <ele>1870</ele>
        <time>2013-09-21T09:15:30Z</time>
      </trkpt>
      <trkpt lat="44.1827" lon="6.90197">
        <ele>1872</ele>
        <time>2013-09-21T09:15:44Z</time>
      </trkpt>
      <trkpt lat="44.18256" lon="6.90185">
        <ele>1875</ele>
        <time>2013-09-21T09:16:04Z</time>
      </trkpt>
      <trkpt lat="44.18245" lon="6.90173">
        <ele>1877</ele>
        <time>2013-09-21T09:16:22Z</time>
      </trkpt>
      <trkpt lat="44.18242" lon="6.90169">
        <ele>1878</ele>
        <time>2013-09-21T09:16:29Z</time>
      </trkpt>
      <trkpt lat="44.18237" lon="6.90164">
        <ele>1879</ele>
        <time>2013-09-21T09:16:43Z</time>
      </trkpt>
      <trkpt lat="44.18229" lon="6.90171">
        <ele>1881</ele>
        <time>2013-09-21T09:17:07Z</time>
      </trkpt>
      <trkpt lat="44.18217" lon="6.90181">
        <ele>1882</ele>
        <time>2013-09-21T09:17:26Z</time>
      </trkpt>
      <trkpt lat="44.18209" lon="6.90188">
        <ele>1883</ele>
        <time>2013-09-21T09:17:41Z</time>
      </trkpt>
      <trkpt lat="44.182" lon="6.90189">
        <ele>1885</ele>
        <time>2013-09-21T09:17:57Z</time>
      </trkpt>
      <trkpt lat="44.18194" lon="6.90187">
        <ele>1886</ele>
        <time>2013-09-21T09:18:09Z</time>
      </trkpt>
      <trkpt lat="44.18185" lon="6.90183">
        <ele>1888</ele>
        <time>2013-09-21T09:18:28Z</time>
      </trkpt>
      <trkpt lat="44.18178" lon="6.90179">
        <ele>1889</ele>
        <time>2013-09-21T09:18:45Z</time>
      </trkpt>
      <trkpt lat="44.1817" lon="6.90176">
        <ele>1891</ele>
        <time>2013-09-21T09:19:00Z</time>
      </trkpt>
      <trkpt lat="44.18163" lon="6.90171">
        <ele>1892</ele>
        <time>2013-09-21T09:19:15Z</time>
      </trkpt>
      <trkpt lat="44.18159" lon="6.90163">
        <ele>1892</ele>
        <time>2013-09-21T09:19:29Z</time>
      </trkpt>
      <trkpt lat="44.18155" lon="6.90154">
        <ele>1892</ele>
        <time>2013-09-21T09:19:45Z</time>
      </trkpt>
      <trkpt lat="44.1815" lon="6.90148">
        <ele>1892</ele>
        <time>2013-09-21T09:19:58Z</time>
      </trkpt>
      <trkpt lat="44.18145" lon="6.90141">
        <ele>1892</ele>
        <time>2013-09-21T09:20:14Z</time>
      </trkpt>
      <trkpt lat="44.18142" lon="6.90135">
        <ele>1893</ele>
        <time>2013-09-21T09:20:27Z</time>
      </trkpt>
      <trkpt lat="44.18137" lon="6.90127">
        <ele>1894</ele>
        <time>2013-09-21T09:20:41Z</time>
      </trkpt>
      <trkpt lat="44.18129" lon="6.90121">
        <ele>1895</ele>
        <time>2013-09-21T09:20:55Z</time>
      </trkpt>
      <trkpt lat="44.18118" lon="6.90112">
        <ele>1897</ele>
        <time>2013-09-21T09:21:15Z</time>
      </trkpt>
      <trkpt lat="44.18107" lon="6.90104">
        <ele>1899</ele>
        <time>2013-09-21T09:21:34Z</time>
      </trkpt>
      <trkpt lat="44.18098" lon="6.90099">
        <ele>1901</ele>
        <time>2013-09-21T09:21:48Z</time>
      </trkpt>
      <trkpt lat="44.18086" lon="6.9009">
        <ele>1904</ele>
        <time>2013-09-21T09:22:06Z</time>
      </trkpt>
      <trkpt lat="44.18078" lon="6.90078">
        <ele>1906</ele>
        <time>2013-09-21T09:22:22Z</time>
      </trkpt>
      <trkpt lat="44.18072" lon="6.90068">
        <ele>1909</ele>
        <time>2013-09-21T09:22:38Z</time>
      </trkpt>
      <trkpt lat="44.18064" lon="6.90057">
        <ele>1911</ele>
        <time>2013-09-21T09:22:53Z</time>
      </trkpt>
      <trkpt lat="44.18059" lon="6.90047">
        <ele>1912</ele>
        <time>2013-09-21T09:23:03Z</time>
      </trkpt>
      <trkpt lat="44.18056" lon="6.90039">
        <ele>1913</ele>
        <time>2013-09-21T09:23:11Z</time>
      </trkpt>
      <trkpt lat="44.18049" lon="6.90022">
        <ele>1915</ele>
        <time>2013-09-21T09:23:28Z</time>
      </trkpt>
      <trkpt lat="44.18045" lon="6.90013">
        <ele>1916</ele>
        <time>2013-09-21T09:23:46Z</time>
      </trkpt>
      <trkpt lat="44.18041" lon="6.89993">
        <ele>1916</ele>
        <time>2013-09-21T09:24:04Z</time>
      </trkpt>
      <trkpt lat="44.18032" lon="6.8998">
        <ele>1917</ele>
        <time>2013-09-21T09:24:23Z</time>
      </trkpt>
      <trkpt lat="44.18026" lon="6.89966">
        <ele>1918</ele>
        <time>2013-09-21T09:24:38Z</time>
      </trkpt>
      <trkpt lat="44.18019" lon="6.89952">
        <ele>1919</ele>
        <time>2013-09-21T09:24:54Z</time>
      </trkpt>
      <trkpt lat="44.18009" lon="6.89941">
        <ele>1921</ele>
        <time>2013-09-21T09:25:11Z</time>
      </trkpt>
      <trkpt lat="44.18006" lon="6.89926">
        <ele>1923</ele>
        <time>2013-09-21T09:25:27Z</time>
      </trkpt>
      <trkpt lat="44.17997" lon="6.89913">
        <ele>1924</ele>
        <time>2013-09-21T09:25:45Z</time>
      </trkpt>
      <trkpt lat="44.17991" lon="6.89899">
        <ele>1926</ele>
        <time>2013-09-21T09:26:01Z</time>
      </trkpt>
      <trkpt lat="44.17991" lon="6.89882">
        <ele>1927</ele>
        <time>2013-09-21T09:26:17Z</time>
      </trkpt>
      <trkpt lat="44.17983" lon="6.89868">
        <ele>1929</ele>
        <time>2013-09-21T09:26:34Z</time>
      </trkpt>
      <trkpt lat="44.17978" lon="6.89854">
        <ele>1930</ele>
        <time>2013-09-21T09:26:50Z</time>
      </trkpt>
      <trkpt lat="44.17968" lon="6.89849">
        <ele>1932</ele>
        <time>2013-09-21T09:27:05Z</time>
      </trkpt>
      <trkpt lat="44.17966" lon="6.89837">
        <ele>1934</ele>
        <time>2013-09-21T09:27:18Z</time>
      </trkpt>
      <trkpt lat="44.17966" lon="6.89825">
        <ele>1935</ele>
        <time>2013-09-21T09:27:32Z</time>
      </trkpt>
      <trkpt lat="44.17964" lon="6.89814">
        <ele>1937</ele>
        <time>2013-09-21T09:27:46Z</time>
      </trkpt>
      <trkpt lat="44.1796" lon="6.89799">
        <ele>1939</ele>
        <time>2013-09-21T09:28:03Z</time>
      </trkpt>
      <trkpt lat="44.17959" lon="6.8979">
        <ele>1941</ele>
        <time>2013-09-21T09:28:15Z</time>
      </trkpt>
      <trkpt lat="44.17956" lon="6.89782">
        <ele>1942</ele>
        <time>2013-09-21T09:28:26Z</time>
      </trkpt>
      <trkpt lat="44.17951" lon="6.89772">
        <ele>1944</ele>
        <time>2013-09-21T09:28:36Z</time>
      </trkpt>
      <trkpt lat="44.17942" lon="6.89759">
        <ele>1945</ele>
        <time>2013-09-21T09:28:51Z</time>
      </trkpt>
      <trkpt lat="44.17937" lon="6.89746">
        <ele>1947</ele>
        <time>2013-09-21T09:29:08Z</time>
      </trkpt>
      <trkpt lat="44.17931" lon="6.89737">
        <ele>1948</ele>
        <time>2013-09-21T09:29:22Z</time>
      </trkpt>
      <trkpt lat="44.17925" lon="6.89732">
        <ele>1949</ele>
        <time>2013-09-21T09:29:35Z</time>
      </trkpt>
      <trkpt lat="44.17916" lon="6.89736">
        <ele>1950</ele>
        <time>2013-09-21T09:29:51Z</time>
      </trkpt>
      <trkpt lat="44.17908" lon="6.89741">
        <ele>1952</ele>
        <time>2013-09-21T09:30:06Z</time>
      </trkpt>
      <trkpt lat="44.17902" lon="6.89747">
        <ele>1953</ele>
        <time>2013-09-21T09:30:18Z</time>
      </trkpt>
      <trkpt lat="44.17897" lon="6.89753">
        <ele>1954</ele>
        <time>2013-09-21T09:30:32Z</time>
      </trkpt>
      <trkpt lat="44.17897" lon="6.89764">
        <ele>1956</ele>
        <time>2013-09-21T09:30:49Z</time>
      </trkpt>
      <trkpt lat="44.17896" lon="6.8978">
        <ele>1957</ele>
        <time>2013-09-21T09:31:08Z</time>
      </trkpt>
      <trkpt lat="44.17891" lon="6.89793">
        <ele>1958</ele>
        <time>2013-09-21T09:31:25Z</time>
      </trkpt>
      <trkpt lat="44.17886" lon="6.89804">
        <ele>1959</ele>
        <time>2013-09-21T09:31:43Z</time>
      </trkpt>
      <trkpt lat="44.17878" lon="6.89814">
        <ele>1961</ele>
        <time>2013-09-21T09:31:59Z</time>
      </trkpt>
      <trkpt lat="44.17875" lon="6.89828">
        <ele>1963</ele>
        <time>2013-09-21T09:32:17Z</time>
      </trkpt>
      <trkpt lat="44.1787" lon="6.89838">
        <ele>1964</ele>
        <time>2013-09-21T09:32:32Z</time>
      </trkpt>
      <trkpt lat="44.17859" lon="6.89847">
        <ele>1967</ele>
        <time>2013-09-21T09:32:51Z</time>
      </trkpt>
      <trkpt lat="44.17852" lon="6.89851">
        <ele>1968</ele>
        <time>2013-09-21T09:33:06Z</time>
      </trkpt>
      <trkpt lat="44.17848" lon="6.89857">
        <ele>1970</ele>
        <time>2013-09-21T09:33:20Z</time>
      </trkpt>
      <trkpt lat="44.17837" lon="6.89864">
        <ele>1972</ele>
        <time>2013-09-21T09:33:38Z</time>
      </trkpt>
      <trkpt lat="44.17826" lon="6.89873">
        <ele>1974</ele>
        <time>2013-09-21T09:33:56Z</time>
      </trkpt>
      <trkpt lat="44.17819" lon="6.89887">
        <ele>1976</ele>
        <time>2013-09-21T09:34:16Z</time>
      </trkpt>
      <trkpt lat="44.17813" lon="6.89894">
        <ele>1977</ele>
        <time>2013-09-21T09:34:31Z</time>
      </trkpt>
      <trkpt lat="44.17807" lon="6.899">
        <ele>1979</ele>
        <time>2013-09-21T09:34:43Z</time>
      </trkpt>
      <trkpt lat="44.17799" lon="6.89902">
        <ele>1980</ele>
        <time>2013-09-21T09:34:57Z</time>
      </trkpt>
      <trkpt lat="44.17796" lon="6.89909">
        <ele>1982</ele>
        <time>2013-09-21T09:35:10Z</time>
      </trkpt>
      <trkpt lat="44.17796" lon="6.89923">
        <ele>1983</ele>
        <time>2013-09-21T09:35:26Z</time>
      </trkpt>
      <trkpt lat="44.17797" lon="6.89932">
        <ele>1984</ele>
        <time>2013-09-21T09:35:34Z</time>
      </trkpt>
      <trkpt lat="44.17801" lon="6.8994">
        <ele>1984</ele>
        <time>2013-09-21T09:35:43Z</time>
      </trkpt>
      <trkpt lat="44.17805" lon="6.89949">
        <ele>1985</ele>
        <time>2013-09-21T09:35:56Z</time>
      </trkpt>
      <trkpt lat="44.17811" lon="6.89959">
        <ele>1986</ele>
        <time>2013-09-21T09:36:11Z</time>
      </trkpt>
      <trkpt lat="44.17815" lon="6.89969">
        <ele>1987</ele>
        <time>2013-09-21T09:36:25Z</time>
      </trkpt>
      <trkpt lat="44.1782" lon="6.89984">
        <ele>1989</ele>
        <time>2013-09-21T09:36:46Z</time>
      </trkpt>
      <trkpt lat="44.17822" lon="6.89992">
        <ele>1990</ele>
        <time>2013-09-21T09:36:55Z</time>
      </trkpt>
      <trkpt lat="44.17826" lon="6.90008">
        <ele>1992</ele>
        <time>2013-09-21T09:37:12Z</time>
      </trkpt>
      <trkpt lat="44.17827" lon="6.90017">
        <ele>1994</ele>
        <time>2013-09-21T09:37:29Z</time>
      </trkpt>
      <trkpt lat="44.17827" lon="6.90029">
        <ele>1996</ele>
        <time>2013-09-21T09:37:46Z</time>
      </trkpt>
      <trkpt lat="44.17822" lon="6.90036">
        <ele>1997</ele>
        <time>2013-09-21T09:37:59Z</time>
      </trkpt>
      <trkpt lat="44.17811" lon="6.90036">
        <ele>1999</ele>
        <time>2013-09-21T09:38:15Z</time>
      </trkpt>
      <trkpt lat="44.17801" lon="6.9003">
        <ele>2002</ele>
        <time>2013-09-21T09:38:31Z</time>
      </trkpt>
      <trkpt lat="44.17795" lon="6.90028">
        <ele>2003</ele>
        <time>2013-09-21T09:38:41Z</time>
      </trkpt>
      <trkpt lat="44.17786" lon="6.90022">
        <ele>2005</ele>
        <time>2013-09-21T09:38:57Z</time>
      </trkpt>
      <trkpt lat="44.17776" lon="6.90015">
        <ele>2007</ele>
        <time>2013-09-21T09:39:14Z</time>
      </trkpt>
      <trkpt lat="44.17766" lon="6.90004">
        <ele>2009</ele>
        <time>2013-09-21T09:39:32Z</time>
      </trkpt>
      <trkpt lat="44.1776" lon="6.89995">
        <ele>2010</ele>
        <time>2013-09-21T09:39:46Z</time>
      </trkpt>
      <trkpt lat="44.17752" lon="6.89987">
        <ele>2010</ele>
        <time>2013-09-21T09:40:00Z</time>
      </trkpt>
      <trkpt lat="44.17741" lon="6.89982">
        <ele>2012</ele>
        <time>2013-09-21T09:40:17Z</time>
      </trkpt>
      <trkpt lat="44.1773" lon="6.89975">
        <ele>2013</ele>
        <time>2013-09-21T09:40:34Z</time>
      </trkpt>
      <trkpt lat="44.1772" lon="6.89971">
        <ele>2016</ele>
        <time>2013-09-21T09:40:52Z</time>
      </trkpt>
      <trkpt lat="44.17708" lon="6.89962">
        <ele>2018</ele>
        <time>2013-09-21T09:41:11Z</time>
      </trkpt>
      <trkpt lat="44.17696" lon="6.89956">
        <ele>2020</ele>
        <time>2013-09-21T09:41:27Z</time>
      </trkpt>
      <trkpt lat="44.17688" lon="6.89949">
        <ele>2022</ele>
        <time>2013-09-21T09:41:40Z</time>
      </trkpt>
      <trkpt lat="44.17676" lon="6.89943">
        <ele>2024</ele>
        <time>2013-09-21T09:41:57Z</time>
      </trkpt>
      <trkpt lat="44.17665" lon="6.89937">
        <ele>2026</ele>
        <time>2013-09-21T09:42:12Z</time>
      </trkpt>
      <trkpt lat="44.17653" lon="6.8993">
        <ele>2028</ele>
        <time>2013-09-21T09:42:29Z</time>
      </trkpt>
      <trkpt lat="44.1764" lon="6.89923">
        <ele>2030</ele>
        <time>2013-09-21T09:42:46Z</time>
      </trkpt>
      <trkpt lat="44.17622" lon="6.89916">
        <ele>2032</ele>
        <time>2013-09-21T09:43:06Z</time>
      </trkpt>
      <trkpt lat="44.17605" lon="6.89909">
        <ele>2034</ele>
        <time>2013-09-21T09:43:26Z</time>
      </trkpt>
      <trkpt lat="44.1759" lon="6.89904">
        <ele>2035</ele>
        <time>2013-09-21T09:43:43Z</time>
      </trkpt>
      <trkpt lat="44.17584" lon="6.89915">
        <ele>2035</ele>
        <time>2013-09-21T09:43:58Z</time>
      </trkpt>
      <trkpt lat="44.17584" lon="6.89932">
        <ele>2037</ele>
        <time>2013-09-21T09:44:16Z</time>
      </trkpt>
      <trkpt lat="44.17584" lon="6.89943">
        <ele>2037</ele>
        <time>2013-09-21T09:44:29Z</time>
      </trkpt>
      <trkpt lat="44.17581" lon="6.89958">
        <ele>2038</ele>
        <time>2013-09-21T09:44:46Z</time>
      </trkpt>
      <trkpt lat="44.17572" lon="6.89965">
        <ele>2040</ele>
        <time>2013-09-21T09:45:03Z</time>
      </trkpt>
      <trkpt lat="44.17575" lon="6.89979">
        <ele>2041</ele>
        <time>2013-09-21T09:45:18Z</time>
      </trkpt>
      <trkpt lat="44.17579" lon="6.8999">
        <ele>2042</ele>
        <time>2013-09-21T09:45:33Z</time>
      </trkpt>
      <trkpt lat="44.17578" lon="6.90004">
        <ele>2044</ele>
        <time>2013-09-21T09:45:48Z</time>
      </trkpt>
      <trkpt lat="44.17578" lon="6.90017">
        <ele>2045</ele>
        <time>2013-09-21T09:46:03Z</time>
      </trkpt>
      <trkpt lat="44.17574" lon="6.90026">
        <ele>2046</ele>
        <time>2013-09-21T09:46:15Z</time>
      </trkpt>
      <trkpt lat="44.17578" lon="6.90034">
        <ele>2047</ele>
        <time>2013-09-21T09:46:33Z</time>
      </trkpt>
      <trkpt lat="44.17584" lon="6.90046">
        <ele>2049</ele>
        <time>2013-09-21T09:47:07Z</time>
      </trkpt>
      <trkpt lat="44.17583" lon="6.90058">
        <ele>2050</ele>
        <time>2013-09-21T09:47:23Z</time>
      </trkpt>
      <trkpt lat="44.17581" lon="6.90066">
        <ele>2052</ele>
        <time>2013-09-21T09:47:35Z</time>
      </trkpt>
      <trkpt lat="44.17578" lon="6.90078">
        <ele>2053</ele>
        <time>2013-09-21T09:47:49Z</time>
      </trkpt>
      <trkpt lat="44.17576" lon="6.90085">
        <ele>2055</ele>
        <time>2013-09-21T09:48:01Z</time>
      </trkpt>
      <trkpt lat="44.17578" lon="6.90091">
        <ele>2056</ele>
        <time>2013-09-21T09:48:09Z</time>
      </trkpt>
      <trkpt lat="44.17575" lon="6.90098">
        <ele>2057</ele>
        <time>2013-09-21T09:48:20Z</time>
      </trkpt>
      <trkpt lat="44.17565" lon="6.90101">
        <ele>2058</ele>
        <time>2013-09-21T09:48:36Z</time>
      </trkpt>
      <trkpt lat="44.1755" lon="6.90101">
        <ele>2060</ele>
        <time>2013-09-21T09:48:56Z</time>
      </trkpt>
      <trkpt lat="44.17542" lon="6.90097">
        <ele>2061</ele>
        <time>2013-09-21T09:49:12Z</time>
      </trkpt>
      <trkpt lat="44.17535" lon="6.90098">
        <ele>2063</ele>
        <time>2013-09-21T09:49:26Z</time>
      </trkpt>
      <trkpt lat="44.17529" lon="6.90101">
        <ele>2064</ele>
        <time>2013-09-21T09:49:39Z</time>
      </trkpt>
      <trkpt lat="44.17522" lon="6.90101">
        <ele>2066</ele>
        <time>2013-09-21T09:49:53Z</time>
      </trkpt>
      <trkpt lat="44.17518" lon="6.90101">
        <ele>2067</ele>
        <time>2013-09-21T09:50:02Z</time>
      </trkpt>
      <trkpt lat="44.17508" lon="6.90102">
        <ele>2069</ele>
        <time>2013-09-21T09:50:19Z</time>
      </trkpt>
      <trkpt lat="44.17498" lon="6.90107">
        <ele>2072</ele>
        <time>2013-09-21T09:50:36Z</time>
      </trkpt>
      <trkpt lat="44.1749" lon="6.9011">
        <ele>2074</ele>
        <time>2013-09-21T09:50:53Z</time>
      </trkpt>
      <trkpt lat="44.17484" lon="6.90109">
        <ele>2076</ele>
        <time>2013-09-21T09:51:06Z</time>
      </trkpt>
      <trkpt lat="44.17477" lon="6.90102">
        <ele>2078</ele>
        <time>2013-09-21T09:51:22Z</time>
      </trkpt>
      <trkpt lat="44.17461" lon="6.90098">
        <ele>2080</ele>
        <time>2013-09-21T09:51:41Z</time>
      </trkpt>
      <trkpt lat="44.17443" lon="6.90096">
        <ele>2081</ele>
        <time>2013-09-21T09:52:00Z</time>
      </trkpt>
      <trkpt lat="44.17425" lon="6.90094">
        <ele>2083</ele>
        <time>2013-09-21T09:52:20Z</time>
      </trkpt>
      <trkpt lat="44.1742" lon="6.90093">
        <ele>2083</ele>
        <time>2013-09-21T09:52:27Z</time>
      </trkpt>
      <trkpt lat="44.17412" lon="6.90094">
        <ele>2083</ele>
        <time>2013-09-21T09:52:35Z</time>
      </trkpt>
      <trkpt lat="44.17399" lon="6.90094">
        <ele>2084</ele>
        <time>2013-09-21T09:52:52Z</time>
      </trkpt>
      <trkpt lat="44.17387" lon="6.90098">
        <ele>2085</ele>
        <time>2013-09-21T09:53:05Z</time>
      </trkpt>
      <trkpt lat="44.17382" lon="6.90096">
        <ele>2085</ele>
        <time>2013-09-21T09:53:11Z</time>
      </trkpt>
      <trkpt lat="44.17375" lon="6.90095">
        <ele>2086</ele>
        <time>2013-09-21T09:53:20Z</time>
      </trkpt>
      <trkpt lat="44.17363" lon="6.90098">
        <ele>2086</ele>
        <time>2013-09-21T09:53:36Z</time>
      </trkpt>
      <trkpt lat="44.17352" lon="6.90102">
        <ele>2087</ele>
        <time>2013-09-21T09:53:53Z</time>
      </trkpt>
      <trkpt lat="44.17342" lon="6.90108">
        <ele>2088</ele>
        <time>2013-09-21T09:54:08Z</time>
      </trkpt>
      <trkpt lat="44.17332" lon="6.90117">
        <ele>2089</ele>
        <time>2013-09-21T09:54:23Z</time>
      </trkpt>
      <trkpt lat="44.17321" lon="6.90127">
        <ele>2091</ele>
        <time>2013-09-21T09:54:40Z</time>
      </trkpt>
      <trkpt lat="44.17309" lon="6.90134">
        <ele>2092</ele>
        <time>2013-09-21T09:54:54Z</time>
      </trkpt>
      <trkpt lat="44.17299" lon="6.90135">
        <ele>2093</ele>
        <time>2013-09-21T09:55:06Z</time>
      </trkpt>
      <trkpt lat="44.17292" lon="6.90137">
        <ele>2093</ele>
        <time>2013-09-21T09:55:14Z</time>
      </trkpt>
      <trkpt lat="44.17287" lon="6.90139">
        <ele>2094</ele>
        <time>2013-09-21T09:55:20Z</time>
      </trkpt>
      <trkpt lat="44.17279" lon="6.90146">
        <ele>2094</ele>
        <time>2013-09-21T09:55:31Z</time>
      </trkpt>
      <trkpt lat="44.17269" lon="6.90156">
        <ele>2095</ele>
        <time>2013-09-21T09:55:48Z</time>
      </trkpt>
      <trkpt lat="44.17255" lon="6.90161">
        <ele>2096</ele>
        <time>2013-09-21T09:56:04Z</time>
      </trkpt>
      <trkpt lat="44.17245" lon="6.9016">
        <ele>2097</ele>
        <time>2013-09-21T09:56:21Z</time>
      </trkpt>
      <trkpt lat="44.17236" lon="6.90159">
        <ele>2098</ele>
        <time>2013-09-21T09:56:38Z</time>
      </trkpt>
      <trkpt lat="44.17232" lon="6.90162">
        <ele>2099</ele>
        <time>2013-09-21T09:56:48Z</time>
      </trkpt>
      <trkpt lat="44.1722" lon="6.90166">
        <ele>2100</ele>
        <time>2013-09-21T09:57:05Z</time>
      </trkpt>
      <trkpt lat="44.17211" lon="6.90164">
        <ele>2101</ele>
        <time>2013-09-21T09:57:20Z</time>
      </trkpt>
      <trkpt lat="44.17198" lon="6.90173">
        <ele>2103</ele>
        <time>2013-09-21T09:57:38Z</time>
      </trkpt>
      <trkpt lat="44.17184" lon="6.9018">
        <ele>2104</ele>
        <time>2013-09-21T09:57:56Z</time>
      </trkpt>
      <trkpt lat="44.17173" lon="6.90185">
        <ele>2105</ele>
        <time>2013-09-21T09:58:10Z</time>
      </trkpt>
      <trkpt lat="44.17162" lon="6.90189">
        <ele>2105</ele>
        <time>2013-09-21T09:58:22Z</time>
      </trkpt>
      <trkpt lat="44.17151" lon="6.90192">
        <ele>2105</ele>
        <time>2013-09-21T09:58:34Z</time>
      </trkpt>
      <trkpt lat="44.17145" lon="6.90191">
        <ele>2106</ele>
        <time>2013-09-21T09:58:41Z</time>
      </trkpt>
      <trkpt lat="44.17134" lon="6.90193">
        <ele>2106</ele>
        <time>2013-09-21T09:58:54Z</time>
      </trkpt>
      <trkpt lat="44.17122" lon="6.90194">
        <ele>2106</ele>
        <time>2013-09-21T09:59:11Z</time>
      </trkpt>
      <trkpt lat="44.17115" lon="6.90194">
        <ele>2106</ele>
        <time>2013-09-21T09:59:19Z</time>
      </trkpt>
      <trkpt lat="44.17106" lon="6.90197">
        <ele>2107</ele>
        <time>2013-09-21T09:59:33Z</time>
      </trkpt>
      <trkpt lat="44.17099" lon="6.90198">
        <ele>2108</ele>
        <time>2013-09-21T09:59:49Z</time>
      </trkpt>
      <trkpt lat="44.17089" lon="6.90203">
        <ele>2109</ele>
        <time>2013-09-21T10:00:04Z</time>
      </trkpt>
      <trkpt lat="44.17082" lon="6.90202">
        <ele>2110</ele>
        <time>2013-09-21T10:00:17Z</time>
      </trkpt>
      <trkpt lat="44.17073" lon="6.90203">
        <ele>2111</ele>
        <time>2013-09-21T10:00:33Z</time>
      </trkpt>
      <trkpt lat="44.17067" lon="6.90212">
        <ele>2112</ele>
        <time>2013-09-21T10:00:48Z</time>
      </trkpt>
      <trkpt lat="44.1706" lon="6.9022">
        <ele>2113</ele>
        <time>2013-09-21T10:01:04Z</time>
      </trkpt>
      <trkpt lat="44.17054" lon="6.90219">
        <ele>2113</ele>
        <time>2013-09-21T10:01:15Z</time>
      </trkpt>
      <trkpt lat="44.17046" lon="6.90224">
        <ele>2114</ele>
        <time>2013-09-21T10:01:29Z</time>
      </trkpt>
      <trkpt lat="44.17036" lon="6.90228">
        <ele>2115</ele>
        <time>2013-09-21T10:01:45Z</time>
      </trkpt>
      <trkpt lat="44.1703" lon="6.90231">
        <ele>2115</ele>
        <time>2013-09-21T10:01:56Z</time>
      </trkpt>
      <trkpt lat="44.1702" lon="6.90237">
        <ele>2115</ele>
        <time>2013-09-21T10:02:13Z</time>
      </trkpt>
      <trkpt lat="44.17009" lon="6.90238">
        <ele>2115</ele>
        <time>2013-09-21T10:02:31Z</time>
      </trkpt>
      <trkpt lat="44.17001" lon="6.90241">
        <ele>2115</ele>
        <time>2013-09-21T10:02:46Z</time>
      </trkpt>
      <trkpt lat="44.16991" lon="6.90249">
        <ele>2115</ele>
        <time>2013-09-21T10:03:02Z</time>
      </trkpt>
      <trkpt lat="44.16983" lon="6.90254">
        <ele>2115</ele>
        <time>2013-09-21T10:03:17Z</time>
      </trkpt>
      <trkpt lat="44.16975" lon="6.90257">
        <ele>2116</ele>
        <time>2013-09-21T10:03:29Z</time>
      </trkpt>
      <trkpt lat="44.16962" lon="6.90263">
        <ele>2117</ele>
        <time>2013-09-21T10:03:48Z</time>
      </trkpt>
      <trkpt lat="44.16952" lon="6.90266">
        <ele>2117</ele>
        <time>2013-09-21T10:04:03Z</time>
      </trkpt>
      <trkpt lat="44.16946" lon="6.90268">
        <ele>2118</ele>
        <time>2013-09-21T10:04:16Z</time>
      </trkpt>
      <trkpt lat="44.16933" lon="6.9027">
        <ele>2119</ele>
        <time>2013-09-21T10:04:31Z</time>
      </trkpt>
      <trkpt lat="44.16923" lon="6.90277">
        <ele>2121</ele>
        <time>2013-09-21T10:04:49Z</time>
      </trkpt>
      <trkpt lat="44.16917" lon="6.90285">
        <ele>2122</ele>
        <time>2013-09-21T10:05:01Z</time>
      </trkpt>
      <trkpt lat="44.16911" lon="6.90293">
        <ele>2124</ele>
        <time>2013-09-21T10:05:14Z</time>
      </trkpt>
      <trkpt lat="44.16904" lon="6.903">
        <ele>2126</ele>
        <time>2013-09-21T10:05:27Z</time>
      </trkpt>
      <trkpt lat="44.16899" lon="6.90305">
        <ele>2128</ele>
        <time>2013-09-21T10:05:37Z</time>
      </trkpt>
      <trkpt lat="44.16894" lon="6.90296">
        <ele>2130</ele>
        <time>2013-09-21T10:05:50Z</time>
      </trkpt>
      <trkpt lat="44.16891" lon="6.90283">
        <ele>2132</ele>
        <time>2013-09-21T10:06:06Z</time>
      </trkpt>
      <trkpt lat="44.16885" lon="6.90284">
        <ele>2134</ele>
        <time>2013-09-21T10:06:21Z</time>
      </trkpt>
      <trkpt lat="44.16875" lon="6.90286">
        <ele>2138</ele>
        <time>2013-09-21T10:06:38Z</time>
      </trkpt>
      <trkpt lat="44.16866" lon="6.90289">
        <ele>2141</ele>
        <time>2013-09-21T10:06:53Z</time>
      </trkpt>
      <trkpt lat="44.16854" lon="6.90293">
        <ele>2145</ele>
        <time>2013-09-21T10:07:11Z</time>
      </trkpt>
      <trkpt lat="44.1684" lon="6.90298">
        <ele>2149</ele>
        <time>2013-09-21T10:07:30Z</time>
      </trkpt>
      <trkpt lat="44.1683" lon="6.90306">
        <ele>2152</ele>
        <time>2013-09-21T10:07:47Z</time>
      </trkpt>
      <trkpt lat="44.16819" lon="6.90313">
        <ele>2155</ele>
        <time>2013-09-21T10:08:04Z</time>
      </trkpt>
      <trkpt lat="44.16816" lon="6.90325">
        <ele>2157</ele>
        <time>2013-09-21T10:08:20Z</time>
      </trkpt>
      <trkpt lat="44.1682" lon="6.90339">
        <ele>2160</ele>
        <time>2013-09-21T10:08:36Z</time>
      </trkpt>
      <trkpt lat="44.16817" lon="6.90354">
        <ele>2162</ele>
        <time>2013-09-21T10:08:53Z</time>
      </trkpt>
      <trkpt lat="44.16808" lon="6.90356">
        <ele>2164</ele>
        <time>2013-09-21T10:09:09Z</time>
      </trkpt>
      <trkpt lat="44.16797" lon="6.9036">
        <ele>2166</ele>
        <time>2013-09-21T10:09:26Z</time>
      </trkpt>
      <trkpt lat="44.16798" lon="6.90377">
        <ele>2167</ele>
        <time>2013-09-21T10:09:45Z</time>
      </trkpt>
      <trkpt lat="44.16794" lon="6.90392">
        <ele>2169</ele>
        <time>2013-09-21T10:10:02Z</time>
      </trkpt>
      <trkpt lat="44.16783" lon="6.90407">
        <ele>2170</ele>
        <time>2013-09-21T10:10:18Z</time>
      </trkpt>
      <trkpt lat="44.16776" lon="6.90415">
        <ele>2170</ele>
        <time>2013-09-21T10:10:29Z</time>
      </trkpt>
      <trkpt lat="44.16774" lon="6.90425">
        <ele>2171</ele>
        <time>2013-09-21T10:10:39Z</time>
      </trkpt>
      <trkpt lat="44.16767" lon="6.90431">
        <ele>2171</ele>
        <time>2013-09-21T10:10:52Z</time>
      </trkpt>
      <trkpt lat="44.16761" lon="6.9044">
        <ele>2171</ele>
        <time>2013-09-21T10:11:04Z</time>
      </trkpt>
      <trkpt lat="44.16752" lon="6.90446">
        <ele>2171</ele>
        <time>2013-09-21T10:11:16Z</time>
      </trkpt>
      <trkpt lat="44.16745" lon="6.90448">
        <ele>2171</ele>
        <time>2013-09-21T10:11:26Z</time>
      </trkpt>
      <trkpt lat="44.16737" lon="6.90454">
        <ele>2171</ele>
        <time>2013-09-21T10:11:39Z</time>
      </trkpt>
      <trkpt lat="44.16733" lon="6.90459">
        <ele>2171</ele>
        <time>2013-09-21T10:11:48Z</time>
      </trkpt>
      <trkpt lat="44.16726" lon="6.90466">
        <ele>2171</ele>
        <time>2013-09-21T10:12:01Z</time>
      </trkpt>
      <trkpt lat="44.16719" lon="6.90467">
        <ele>2171</ele>
        <time>2013-09-21T10:12:13Z</time>
      </trkpt>
      <trkpt lat="44.16714" lon="6.90469">
        <ele>2171</ele>
        <time>2013-09-21T10:12:23Z</time>
      </trkpt>
      <trkpt lat="44.16703" lon="6.90472">
        <ele>2172</ele>
        <time>2013-09-21T10:12:38Z</time>
      </trkpt>
      <trkpt lat="44.16695" lon="6.9047">
        <ele>2172</ele>
        <time>2013-09-21T10:12:48Z</time>
      </trkpt>
      <trkpt lat="44.16692" lon="6.90472">
        <ele>2172</ele>
        <time>2013-09-21T10:12:52Z</time>
      </trkpt>
      <trkpt lat="44.16687" lon="6.9048">
        <ele>2172</ele>
        <time>2013-09-21T10:13:02Z</time>
      </trkpt>
      <trkpt lat="44.16682" lon="6.90485">
        <ele>2172</ele>
        <time>2013-09-21T10:13:10Z</time>
      </trkpt>
      <trkpt lat="44.16676" lon="6.9049">
        <ele>2173</ele>
        <time>2013-09-21T10:13:21Z</time>
      </trkpt>
      <trkpt lat="44.16671" lon="6.90496">
        <ele>2173</ele>
        <time>2013-09-21T10:13:33Z</time>
      </trkpt>
      <trkpt lat="44.16663" lon="6.90502">
        <ele>2173</ele>
        <time>2013-09-21T10:13:48Z</time>
      </trkpt>
      <trkpt lat="44.16543" lon="6.90491">
        <ele>2194</ele>
        <time>2013-09-21T11:20:23Z</time>
      </trkpt>
      <trkpt lat="44.16547" lon="6.90477">
        <ele>2191</ele>
        <time>2013-09-21T11:20:31Z</time>
      </trkpt>
      <trkpt lat="44.16545" lon="6.90474">
        <ele>2190</ele>
        <time>2013-09-21T11:20:35Z</time>
      </trkpt>
      <trkpt lat="44.16523" lon="6.9049">
        <ele>2188</ele>
        <time>2013-09-21T11:20:43Z</time>
      </trkpt>
      <trkpt lat="44.16518" lon="6.90487">
        <ele>2187</ele>
        <time>2013-09-21T11:20:46Z</time>
      </trkpt>
      <trkpt lat="44.1652" lon="6.90471">
        <ele>2186</ele>
        <time>2013-09-21T11:20:50Z</time>
      </trkpt>
      <trkpt lat="44.16515" lon="6.90471">
        <ele>2185</ele>
        <time>2013-09-21T11:20:53Z</time>
      </trkpt>
      <trkpt lat="44.165" lon="6.90472">
        <ele>2184</ele>
        <time>2013-09-21T11:20:59Z</time>
      </trkpt>
      <trkpt lat="44.16507" lon="6.90458">
        <ele>2182</ele>
        <time>2013-09-21T11:21:05Z</time>
      </trkpt>
      <trkpt lat="44.16502" lon="6.90456">
        <ele>2180</ele>
        <time>2013-09-21T11:21:11Z</time>
      </trkpt>
      <trkpt lat="44.16509" lon="6.90429">
        <ele>2178</ele>
        <time>2013-09-21T11:21:19Z</time>
      </trkpt>
      <trkpt lat="44.16503" lon="6.90427">
        <ele>2175</ele>
        <time>2013-09-21T11:21:27Z</time>
      </trkpt>
      <trkpt lat="44.16499" lon="6.9043">
        <ele>2174</ele>
        <time>2013-09-21T11:21:29Z</time>
      </trkpt>
      <trkpt lat="44.16502" lon="6.90414">
        <ele>2173</ele>
        <time>2013-09-21T11:21:34Z</time>
      </trkpt>
      <trkpt lat="44.16496" lon="6.90416">
        <ele>2172</ele>
        <time>2013-09-21T11:21:37Z</time>
      </trkpt>
      <trkpt lat="44.16494" lon="6.90414">
        <ele>2169</ele>
        <time>2013-09-21T11:21:44Z</time>
      </trkpt>
      <trkpt lat="44.16483" lon="6.90412">
        <ele>2165</ele>
        <time>2013-09-21T11:21:57Z</time>
      </trkpt>
      <trkpt lat="44.16474" lon="6.90408">
        <ele>2164</ele>
        <time>2013-09-21T11:22:01Z</time>
      </trkpt>
      <trkpt lat="44.16483" lon="6.90385">
        <ele>2161</ele>
        <time>2013-09-21T11:22:07Z</time>
      </trkpt>
      <trkpt lat="44.16467" lon="6.90385">
        <ele>2159</ele>
        <time>2013-09-21T11:22:13Z</time>
      </trkpt>
      <trkpt lat="44.16461" lon="6.90384">
        <ele>2157</ele>
        <time>2013-09-21T11:22:19Z</time>
      </trkpt>
      <trkpt lat="44.16468" lon="6.90364">
        <ele>2155</ele>
        <time>2013-09-21T11:22:24Z</time>
      </trkpt>
      <trkpt lat="44.16457" lon="6.90369">
        <ele>2153</ele>
        <time>2013-09-21T11:22:28Z</time>
      </trkpt>
      <trkpt lat="44.16442" lon="6.90383">
        <ele>2150</ele>
        <time>2013-09-21T11:22:36Z</time>
      </trkpt>
      <trkpt lat="44.16444" lon="6.90376">
        <ele>2149</ele>
        <time>2013-09-21T11:22:40Z</time>
      </trkpt>
      <trkpt lat="44.16447" lon="6.90357">
        <ele>2146</ele>
        <time>2013-09-21T11:22:46Z</time>
      </trkpt>
      <trkpt lat="44.16442" lon="6.90367">
        <ele>2144</ele>
        <time>2013-09-21T11:22:50Z</time>
      </trkpt>
      <trkpt lat="44.16431" lon="6.90386">
        <ele>2142</ele>
        <time>2013-09-21T11:22:55Z</time>
      </trkpt>
      <trkpt lat="44.16408" lon="6.90413">
        <ele>2139</ele>
        <time>2013-09-21T11:23:04Z</time>
      </trkpt>
      <trkpt lat="44.16402" lon="6.90423">
        <ele>2137</ele>
        <time>2013-09-21T11:23:08Z</time>
      </trkpt>
      <trkpt lat="44.164" lon="6.90421">
        <ele>2136</ele>
        <time>2013-09-21T11:23:12Z</time>
      </trkpt>
      <trkpt lat="44.16401" lon="6.90416">
        <ele>2131</ele>
        <time>2013-09-21T11:23:23Z</time>
      </trkpt>
      <trkpt lat="44.16394" lon="6.90381">
        <ele>2128</ele>
        <time>2013-09-21T11:23:31Z</time>
      </trkpt>
      <trkpt lat="44.16391" lon="6.90387">
        <ele>2127</ele>
        <time>2013-09-21T11:23:34Z</time>
      </trkpt>
      <trkpt lat="44.16383" lon="6.90398">
        <ele>2125</ele>
        <time>2013-09-21T11:23:39Z</time>
      </trkpt>
      <trkpt lat="44.16379" lon="6.90391">
        <ele>2124</ele>
        <time>2013-09-21T11:23:42Z</time>
      </trkpt>
      <trkpt lat="44.16375" lon="6.90391">
        <ele>2122</ele>
        <time>2013-09-21T11:23:48Z</time>
      </trkpt>
      <trkpt lat="44.16373" lon="6.90386">
        <ele>2121</ele>
        <time>2013-09-21T11:23:50Z</time>
      </trkpt>
      <trkpt lat="44.1637" lon="6.90406">
        <ele>2119</ele>
        <time>2013-09-21T11:23:56Z</time>
      </trkpt>
      <trkpt lat="44.16366" lon="6.90416">
        <ele>2117</ele>
        <time>2013-09-21T11:24:01Z</time>
      </trkpt>
      <trkpt lat="44.16366" lon="6.90416">
        <ele>2112</ele>
        <time>2013-09-21T11:24:13Z</time>
      </trkpt>
      <trkpt lat="44.16365" lon="6.90404">
        <ele>2110</ele>
        <time>2013-09-21T11:24:18Z</time>
      </trkpt>
      <trkpt lat="44.1636" lon="6.90418">
        <ele>2108</ele>
        <time>2013-09-21T11:24:24Z</time>
      </trkpt>
      <trkpt lat="44.16337" lon="6.90442">
        <ele>2105</ele>
        <time>2013-09-21T11:24:32Z</time>
      </trkpt>
      <trkpt lat="44.16308" lon="6.90452">
        <ele>2102</ele>
        <time>2013-09-21T11:24:39Z</time>
      </trkpt>
      <trkpt lat="44.1627" lon="6.90464">
        <ele>2098</ele>
        <time>2013-09-21T11:24:48Z</time>
      </trkpt>
      <trkpt lat="44.16262" lon="6.90476">
        <ele>2097</ele>
        <time>2013-09-21T11:24:51Z</time>
      </trkpt>
      <trkpt lat="44.16244" lon="6.90487">
        <ele>2094</ele>
        <time>2013-09-21T11:24:56Z</time>
      </trkpt>
      <trkpt lat="44.16228" lon="6.90489">
        <ele>2093</ele>
        <time>2013-09-21T11:24:59Z</time>
      </trkpt>
      <trkpt lat="44.16204" lon="6.90484">
        <ele>2090</ele>
        <time>2013-09-21T11:25:04Z</time>
      </trkpt>
      <trkpt lat="44.16187" lon="6.90459">
        <ele>2087</ele>
        <time>2013-09-21T11:25:10Z</time>
      </trkpt>
      <trkpt lat="44.1619" lon="6.90449">
        <ele>2085</ele>
        <time>2013-09-21T11:25:16Z</time>
      </trkpt>
      <trkpt lat="44.16208" lon="6.90442">
        <ele>2082</ele>
        <time>2013-09-21T11:25:21Z</time>
      </trkpt>
      <trkpt lat="44.16212" lon="6.90431">
        <ele>2081</ele>
        <time>2013-09-21T11:25:24Z</time>
      </trkpt>
      <trkpt lat="44.16192" lon="6.90425">
        <ele>2078</ele>
        <time>2013-09-21T11:25:29Z</time>
      </trkpt>
      <trkpt lat="44.16182" lon="6.90415">
        <ele>2077</ele>
        <time>2013-09-21T11:25:32Z</time>
      </trkpt>
      <trkpt lat="44.16148" lon="6.90432">
        <ele>2074</ele>
        <time>2013-09-21T11:25:39Z</time>
      </trkpt>
      <trkpt lat="44.16142" lon="6.90436">
        <ele>2072</ele>
        <time>2013-09-21T11:25:42Z</time>
      </trkpt>
      <trkpt lat="44.16146" lon="6.9044">
        <ele>2065</ele>
        <time>2013-09-21T11:25:57Z</time>
      </trkpt>
      <trkpt lat="44.16153" lon="6.9045">
        <ele>2030</ele>
        <time>2013-09-21T11:27:32Z</time>
      </trkpt>
      <trkpt lat="44.16142" lon="6.90461">
        <ele>2027</ele>
        <time>2013-09-21T11:27:46Z</time>
      </trkpt>
      <trkpt lat="44.16139" lon="6.90464">
        <ele>2026</ele>
        <time>2013-09-21T11:27:53Z</time>
      </trkpt>
      <trkpt lat="44.16126" lon="6.9048">
        <ele>2024</ele>
        <time>2013-09-21T11:28:02Z</time>
      </trkpt>
      <trkpt lat="44.16098" lon="6.90487">
        <ele>2023</ele>
        <time>2013-09-21T11:28:10Z</time>
      </trkpt>
      <trkpt lat="44.1609" lon="6.90484">
        <ele>2022</ele>
        <time>2013-09-21T11:28:14Z</time>
      </trkpt>
      <trkpt lat="44.16084" lon="6.90496">
        <ele>2020</ele>
        <time>2013-09-21T11:28:20Z</time>
      </trkpt>
      <trkpt lat="44.16071" lon="6.90517">
        <ele>2019</ele>
        <time>2013-09-21T11:28:27Z</time>
      </trkpt>
      <trkpt lat="44.16069" lon="6.90507">
        <ele>2017</ele>
        <time>2013-09-21T11:28:38Z</time>
      </trkpt>
      <trkpt lat="44.16073" lon="6.90488">
        <ele>2016</ele>
        <time>2013-09-21T11:28:42Z</time>
      </trkpt>
      <trkpt lat="44.16074" lon="6.90454">
        <ele>2014</ele>
        <time>2013-09-21T11:28:50Z</time>
      </trkpt>
      <trkpt lat="44.16068" lon="6.90462">
        <ele>2013</ele>
        <time>2013-09-21T11:28:54Z</time>
      </trkpt>
      <trkpt lat="44.16048" lon="6.90475">
        <ele>2011</ele>
        <time>2013-09-21T11:29:00Z</time>
      </trkpt>
      <trkpt lat="44.16048" lon="6.90464">
        <ele>2010</ele>
        <time>2013-09-21T11:29:03Z</time>
      </trkpt>
      <trkpt lat="44.16052" lon="6.90452">
        <ele>2008</ele>
        <time>2013-09-21T11:29:08Z</time>
      </trkpt>
      <trkpt lat="44.16048" lon="6.90451">
        <ele>2006</ele>
        <time>2013-09-21T11:29:15Z</time>
      </trkpt>
      <trkpt lat="44.16053" lon="6.90427">
        <ele>2004</ele>
        <time>2013-09-21T11:29:22Z</time>
      </trkpt>
      <trkpt lat="44.16036" lon="6.90442">
        <ele>2002</ele>
        <time>2013-09-21T11:29:28Z</time>
      </trkpt>
      <trkpt lat="44.16034" lon="6.90423">
        <ele>2000</ele>
        <time>2013-09-21T11:29:35Z</time>
      </trkpt>
      <trkpt lat="44.16043" lon="6.90411">
        <ele>1998</ele>
        <time>2013-09-21T11:29:39Z</time>
      </trkpt>
      <trkpt lat="44.16028" lon="6.90415">
        <ele>1996</ele>
        <time>2013-09-21T11:29:44Z</time>
      </trkpt>
      <trkpt lat="44.16005" lon="6.90429">
        <ele>1993</ele>
        <time>2013-09-21T11:29:52Z</time>
      </trkpt>
      <trkpt lat="44.16009" lon="6.90416">
        <ele>1990</ele>
        <time>2013-09-21T11:29:59Z</time>
      </trkpt>
      <trkpt lat="44.16013" lon="6.90408">
        <ele>1989</ele>
        <time>2013-09-21T11:30:02Z</time>
      </trkpt>
      <trkpt lat="44.16004" lon="6.90413">
        <ele>1987</ele>
        <time>2013-09-21T11:30:07Z</time>
      </trkpt>
      <trkpt lat="44.16014" lon="6.90394">
        <ele>1984</ele>
        <time>2013-09-21T11:30:14Z</time>
      </trkpt>
      <trkpt lat="44.16014" lon="6.90385">
        <ele>1981</ele>
        <time>2013-09-21T11:30:21Z</time>
      </trkpt>
      <trkpt lat="44.15991" lon="6.90424">
        <ele>1978</ele>
        <time>2013-09-21T11:30:29Z</time>
      </trkpt>
      <trkpt lat="44.15985" lon="6.90442">
        <ele>1976</ele>
        <time>2013-09-21T11:30:33Z</time>
      </trkpt>
      <trkpt lat="44.15977" lon="6.90455">
        <ele>1975</ele>
        <time>2013-09-21T11:30:37Z</time>
      </trkpt>
      <trkpt lat="44.15968" lon="6.90461">
        <ele>1973</ele>
        <time>2013-09-21T11:30:41Z</time>
      </trkpt>
      <trkpt lat="44.15966" lon="6.90463">
        <ele>1971</ele>
        <time>2013-09-21T11:30:48Z</time>
      </trkpt>
      <trkpt lat="44.15958" lon="6.90466">
        <ele>1965</ele>
        <time>2013-09-21T11:31:06Z</time>
      </trkpt>
      <trkpt lat="44.15942" lon="6.90486">
        <ele>1961</ele>
        <time>2013-09-21T11:31:16Z</time>
      </trkpt>
      <trkpt lat="44.15931" lon="6.90495">
        <ele>1960</ele>
        <time>2013-09-21T11:31:22Z</time>
      </trkpt>
      <trkpt lat="44.15933" lon="6.90487">
        <ele>1958</ele>
        <time>2013-09-21T11:31:26Z</time>
      </trkpt>
      <trkpt lat="44.15932" lon="6.90482">
        <ele>1958</ele>
        <time>2013-09-21T11:31:29Z</time>
      </trkpt>
      <trkpt lat="44.15921" lon="6.90494">
        <ele>1956</ele>
        <time>2013-09-21T11:31:34Z</time>
      </trkpt>
      <trkpt lat="44.15883" lon="6.90511">
        <ele>1953</ele>
        <time>2013-09-21T11:31:42Z</time>
      </trkpt>
      <trkpt lat="44.15876" lon="6.90514">
        <ele>1953</ele>
        <time>2013-09-21T11:31:44Z</time>
      </trkpt>
      <trkpt lat="44.1587" lon="6.90512">
        <ele>1952</ele>
        <time>2013-09-21T11:31:47Z</time>
      </trkpt>
      <trkpt lat="44.15879" lon="6.90502">
        <ele>1950</ele>
        <time>2013-09-21T11:31:53Z</time>
      </trkpt>
      <trkpt lat="44.15874" lon="6.90492">
        <ele>1948</ele>
        <time>2013-09-21T11:31:59Z</time>
      </trkpt>
      <trkpt lat="44.15856" lon="6.90491">
        <ele>1946</ele>
        <time>2013-09-21T11:32:04Z</time>
      </trkpt>
      <trkpt lat="44.1585" lon="6.90488">
        <ele>1944</ele>
        <time>2013-09-21T11:32:10Z</time>
      </trkpt>
      <trkpt lat="44.15854" lon="6.90471">
        <ele>1943</ele>
        <time>2013-09-21T11:32:13Z</time>
      </trkpt>
      <trkpt lat="44.15854" lon="6.90467">
        <ele>1942</ele>
        <time>2013-09-21T11:32:16Z</time>
      </trkpt>
      <trkpt lat="44.15858" lon="6.90474">
        <ele>1923</ele>
        <time>2013-09-21T11:33:16Z</time>
      </trkpt>
      <trkpt lat="44.15854" lon="6.90475">
        <ele>1916</ele>
        <time>2013-09-21T11:33:45Z</time>
      </trkpt>
      <trkpt lat="44.1584" lon="6.90481">
        <ele>1915</ele>
        <time>2013-09-21T11:33:51Z</time>
      </trkpt>
      <trkpt lat="44.15826" lon="6.90493">
        <ele>1914</ele>
        <time>2013-09-21T11:33:57Z</time>
      </trkpt>
      <trkpt lat="44.15828" lon="6.90471">
        <ele>1913</ele>
        <time>2013-09-21T11:34:02Z</time>
      </trkpt>
      <trkpt lat="44.15808" lon="6.90487">
        <ele>1911</ele>
        <time>2013-09-21T11:34:07Z</time>
      </trkpt>
      <trkpt lat="44.15788" lon="6.90505">
        <ele>1910</ele>
        <time>2013-09-21T11:34:13Z</time>
      </trkpt>
      <trkpt lat="44.15787" lon="6.90508">
        <ele>1909</ele>
        <time>2013-09-21T11:34:20Z</time>
      </trkpt>
      <trkpt lat="44.15789" lon="6.9052">
        <ele>1905</ele>
        <time>2013-09-21T11:34:41Z</time>
      </trkpt>
      <trkpt lat="44.15782" lon="6.90523">
        <ele>1904</ele>
        <time>2013-09-21T11:34:53Z</time>
      </trkpt>
      <trkpt lat="44.15775" lon="6.90526">
        <ele>1903</ele>
        <time>2013-09-21T11:35:01Z</time>
      </trkpt>
      <trkpt lat="44.15768" lon="6.90528">
        <ele>1901</ele>
        <time>2013-09-21T11:35:15Z</time>
      </trkpt>
      <trkpt lat="44.1574" lon="6.90534">
        <ele>1900</ele>
        <time>2013-09-21T11:35:23Z</time>
      </trkpt>
      <trkpt lat="44.15712" lon="6.90557">
        <ele>1898</ele>
        <time>2013-09-21T11:35:31Z</time>
      </trkpt>
      <trkpt lat="44.15699" lon="6.90556">
        <ele>1898</ele>
        <time>2013-09-21T11:35:34Z</time>
      </trkpt>
      <trkpt lat="44.15663" lon="6.90575">
        <ele>1896</ele>
        <time>2013-09-21T11:35:42Z</time>
      </trkpt>
      <trkpt lat="44.15651" lon="6.90571">
        <ele>1896</ele>
        <time>2013-09-21T11:35:45Z</time>
      </trkpt>
      <trkpt lat="44.15611" lon="6.90566">
        <ele>1894</ele>
        <time>2013-09-21T11:35:53Z</time>
      </trkpt>
      <trkpt lat="44.15598" lon="6.90581">
        <ele>1893</ele>
        <time>2013-09-21T11:35:57Z</time>
      </trkpt>
      <trkpt lat="44.15591" lon="6.90585">
        <ele>1893</ele>
        <time>2013-09-21T11:36:00Z</time>
      </trkpt>
      <trkpt lat="44.15581" lon="6.90597">
        <ele>1892</ele>
        <time>2013-09-21T11:36:05Z</time>
      </trkpt>
      <trkpt lat="44.15577" lon="6.90602">
        <ele>1891</ele>
        <time>2013-09-21T11:36:07Z</time>
      </trkpt>
      <trkpt lat="44.15567" lon="6.9063">
        <ele>1890</ele>
        <time>2013-09-21T11:36:14Z</time>
      </trkpt>
      <trkpt lat="44.15551" lon="6.90659">
        <ele>1888</ele>
        <time>2013-09-21T11:36:20Z</time>
      </trkpt>
      <trkpt lat="44.15529" lon="6.90658">
        <ele>1887</ele>
        <time>2013-09-21T11:36:25Z</time>
      </trkpt>
      <trkpt lat="44.1551" lon="6.90647">
        <ele>1886</ele>
        <time>2013-09-21T11:36:31Z</time>
      </trkpt>
      <trkpt lat="44.155" lon="6.90641">
        <ele>1885</ele>
        <time>2013-09-21T11:36:35Z</time>
      </trkpt>
      <trkpt lat="44.15503" lon="6.90618">
        <ele>1883</ele>
        <time>2013-09-21T11:36:41Z</time>
      </trkpt>
      <trkpt lat="44.15506" lon="6.90617">
        <ele>1882</ele>
        <time>2013-09-21T11:36:46Z</time>
      </trkpt>
      <trkpt lat="44.15507" lon="6.90612">
        <ele>1881</ele>
        <time>2013-09-21T11:36:49Z</time>
      </trkpt>
      <trkpt lat="44.15509" lon="6.90586">
        <ele>1880</ele>
        <time>2013-09-21T11:36:56Z</time>
      </trkpt>
      <trkpt lat="44.1549" lon="6.90577">
        <ele>1878</ele>
        <time>2013-09-21T11:37:03Z</time>
      </trkpt>
      <trkpt lat="44.15466" lon="6.90573">
        <ele>1877</ele>
        <time>2013-09-21T11:37:07Z</time>
      </trkpt>
      <trkpt lat="44.15436" lon="6.90562">
        <ele>1875</ele>
        <time>2013-09-21T11:37:13Z</time>
      </trkpt>
      <trkpt lat="44.15416" lon="6.90556">
        <ele>1874</ele>
        <time>2013-09-21T11:37:17Z</time>
      </trkpt>
      <trkpt lat="44.15383" lon="6.90561">
        <ele>1873</ele>
        <time>2013-09-21T11:37:23Z</time>
      </trkpt>
      <trkpt lat="44.15367" lon="6.90566">
        <ele>1871</ele>
        <time>2013-09-21T11:37:27Z</time>
      </trkpt>
      <trkpt lat="44.15364" lon="6.90556">
        <ele>1869</ele>
        <time>2013-09-21T11:37:36Z</time>
      </trkpt>
      <trkpt lat="44.15363" lon="6.90555">
        <ele>1868</ele>
        <time>2013-09-21T11:37:40Z</time>
      </trkpt>
      <trkpt lat="44.1537" lon="6.90558">
        <ele>1867</ele>
        <time>2013-09-21T11:37:46Z</time>
      </trkpt>
      <trkpt lat="44.15375" lon="6.90554">
        <ele>1865</ele>
        <time>2013-09-21T11:37:52Z</time>
      </trkpt>
      <trkpt lat="44.15364" lon="6.90551">
        <ele>1863</ele>
        <time>2013-09-21T11:37:59Z</time>
      </trkpt>
      <trkpt lat="44.15339" lon="6.90549">
        <ele>1862</ele>
        <time>2013-09-21T11:38:05Z</time>
      </trkpt>
      <trkpt lat="44.1531" lon="6.90561">
        <ele>1860</ele>
        <time>2013-09-21T11:38:12Z</time>
      </trkpt>
      <trkpt lat="44.15286" lon="6.90562">
        <ele>1859</ele>
        <time>2013-09-21T11:38:18Z</time>
      </trkpt>
      <trkpt lat="44.15268" lon="6.90559">
        <ele>1857</ele>
        <time>2013-09-21T11:38:25Z</time>
      </trkpt>
      <trkpt lat="44.1525" lon="6.90556">
        <ele>1855</ele>
        <time>2013-09-21T11:38:37Z</time>
      </trkpt>
      <trkpt lat="44.15219" lon="6.90565">
        <ele>1853</ele>
        <time>2013-09-21T11:38:47Z</time>
      </trkpt>
      <trkpt lat="44.15178" lon="6.90579">
        <ele>1850</ele>
        <time>2013-09-21T11:38:57Z</time>
      </trkpt>
      <trkpt lat="44.15154" lon="6.90587">
        <ele>1849</ele>
        <time>2013-09-21T11:39:00Z</time>
      </trkpt>
      <trkpt lat="44.15121" lon="6.90598">
        <ele>1848</ele>
        <time>2013-09-21T11:39:05Z</time>
      </trkpt>
      <trkpt lat="44.15095" lon="6.90614">
        <ele>1847</ele>
        <time>2013-09-21T11:39:09Z</time>
      </trkpt>
      <trkpt lat="44.15063" lon="6.90628">
        <ele>1845</ele>
        <time>2013-09-21T11:39:14Z</time>
      </trkpt>
      <trkpt lat="44.15049" lon="6.90638">
        <ele>1844</ele>
        <time>2013-09-21T11:39:17Z</time>
      </trkpt>
      <trkpt lat="44.15016" lon="6.90649">
        <ele>1842</ele>
        <time>2013-09-21T11:39:23Z</time>
      </trkpt>
      <trkpt lat="44.15001" lon="6.90643">
        <ele>1841</ele>
        <time>2013-09-21T11:39:26Z</time>
      </trkpt>
      <trkpt lat="44.14997" lon="6.90639">
        <ele>1840</ele>
        <time>2013-09-21T11:39:29Z</time>
      </trkpt>
      <trkpt lat="44.14991" lon="6.90631">
        <ele>1837</ele>
        <time>2013-09-21T11:39:40Z</time>
      </trkpt>
      <trkpt lat="44.14957" lon="6.90621">
        <ele>1834</ele>
        <time>2013-09-21T11:39:47Z</time>
      </trkpt>
      <trkpt lat="44.14943" lon="6.90632">
        <ele>1833</ele>
        <time>2013-09-21T11:39:50Z</time>
      </trkpt>
      <trkpt lat="44.1493" lon="6.90647">
        <ele>1831</ele>
        <time>2013-09-21T11:39:53Z</time>
      </trkpt>
      <trkpt lat="44.14905" lon="6.90674">
        <ele>1829</ele>
        <time>2013-09-21T11:39:58Z</time>
      </trkpt>
      <trkpt lat="44.14886" lon="6.90678">
        <ele>1827</ele>
        <time>2013-09-21T11:40:02Z</time>
      </trkpt>
      <trkpt lat="44.1489" lon="6.90658">
        <ele>1825</ele>
        <time>2013-09-21T11:40:06Z</time>
      </trkpt>
      <trkpt lat="44.14897" lon="6.90632">
        <ele>1823</ele>
        <time>2013-09-21T11:40:10Z</time>
      </trkpt>
      <trkpt lat="44.14888" lon="6.90633">
        <ele>1822</ele>
        <time>2013-09-21T11:40:12Z</time>
      </trkpt>
      <trkpt lat="44.14856" lon="6.9064">
        <ele>1819</ele>
        <time>2013-09-21T11:40:19Z</time>
      </trkpt>
      <trkpt lat="44.14836" lon="6.90651">
        <ele>1817</ele>
        <time>2013-09-21T11:40:23Z</time>
      </trkpt>
      <trkpt lat="44.14811" lon="6.90665">
        <ele>1813</ele>
        <time>2013-09-21T11:40:29Z</time>
      </trkpt>
      <trkpt lat="44.14806" lon="6.90658">
        <ele>1811</ele>
        <time>2013-09-21T11:40:34Z</time>
      </trkpt>
      <trkpt lat="44.14818" lon="6.90637">
        <ele>1808</ele>
        <time>2013-09-21T11:40:39Z</time>
      </trkpt>
      <trkpt lat="44.14808" lon="6.90638">
        <ele>1806</ele>
        <time>2013-09-21T11:40:43Z</time>
      </trkpt>
      <trkpt lat="44.14781" lon="6.9066">
        <ele>1803</ele>
        <time>2013-09-21T11:40:50Z</time>
      </trkpt>
      <trkpt lat="44.14764" lon="6.90655">
        <ele>1800</ele>
        <time>2013-09-21T11:40:55Z</time>
      </trkpt>
      <trkpt lat="44.14748" lon="6.90655">
        <ele>1797</ele>
        <time>2013-09-21T11:41:00Z</time>
      </trkpt>
      <trkpt lat="44.14723" lon="6.90667">
        <ele>1794</ele>
        <time>2013-09-21T11:41:06Z</time>
      </trkpt>
      <trkpt lat="44.14705" lon="6.90665">
        <ele>1792</ele>
        <time>2013-09-21T11:41:11Z</time>
      </trkpt>
      <trkpt lat="44.14717" lon="6.90638">
        <ele>1788</ele>
        <time>2013-09-21T11:41:17Z</time>
      </trkpt>
      <trkpt lat="44.14705" lon="6.90636">
        <ele>1785</ele>
        <time>2013-09-21T11:41:23Z</time>
      </trkpt>
      <trkpt lat="44.14677" lon="6.90637">
        <ele>1780</ele>
        <time>2013-09-21T11:41:31Z</time>
      </trkpt>
      <trkpt lat="44.14666" lon="6.90636">
        <ele>1778</ele>
        <time>2013-09-21T11:41:35Z</time>
      </trkpt>
      <trkpt lat="44.14685" lon="6.90618">
        <ele>1775</ele>
        <time>2013-09-21T11:41:41Z</time>
      </trkpt>
      <trkpt lat="44.1469" lon="6.90612">
        <ele>1773</ele>
        <time>2013-09-21T11:41:44Z</time>
      </trkpt>
      <trkpt lat="44.14661" lon="6.90607">
        <ele>1769</ele>
        <time>2013-09-21T11:41:51Z</time>
      </trkpt>
      <trkpt lat="44.14649" lon="6.90612">
        <ele>1766</ele>
        <time>2013-09-21T11:41:56Z</time>
      </trkpt>
      <trkpt lat="44.14655" lon="6.90594">
        <ele>1763</ele>
        <time>2013-09-21T11:42:00Z</time>
      </trkpt>
      <trkpt lat="44.14668" lon="6.90587">
        <ele>1762</ele>
        <time>2013-09-21T11:42:03Z</time>
      </trkpt>
      <trkpt lat="44.1467" lon="6.9058">
        <ele>1758</ele>
        <time>2013-09-21T11:42:10Z</time>
      </trkpt>
      <trkpt lat="44.14658" lon="6.90581">
        <ele>1755</ele>
        <time>2013-09-21T11:42:15Z</time>
      </trkpt>
      <trkpt lat="44.1466" lon="6.90582">
        <ele>1748</ele>
        <time>2013-09-21T11:42:27Z</time>
      </trkpt>
      <trkpt lat="44.14671" lon="6.90594">
        <ele>1693</ele>
        <time>2013-09-21T11:45:07Z</time>
      </trkpt>
      <trkpt lat="44.14667" lon="6.90594">
        <ele>1689</ele>
        <time>2013-09-21T11:45:25Z</time>
      </trkpt>
      <trkpt lat="44.14667" lon="6.90581">
        <ele>1688</ele>
        <time>2013-09-21T11:45:29Z</time>
      </trkpt>
      <trkpt lat="44.14668" lon="6.90563">
        <ele>1687</ele>
        <time>2013-09-21T11:45:33Z</time>
      </trkpt>
      <trkpt lat="44.14669" lon="6.90554">
        <ele>1686</ele>
        <time>2013-09-21T11:45:37Z</time>
      </trkpt>
      <trkpt lat="44.14643" lon="6.90548">
        <ele>1685</ele>
        <time>2013-09-21T11:45:44Z</time>
      </trkpt>
      <trkpt lat="44.14621" lon="6.90571">
        <ele>1683</ele>
        <time>2013-09-21T11:45:51Z</time>
      </trkpt>
      <trkpt lat="44.14608" lon="6.90574">
        <ele>1682</ele>
        <time>2013-09-21T11:45:55Z</time>
      </trkpt>
      <trkpt lat="44.14594" lon="6.90565">
        <ele>1681</ele>
        <time>2013-09-21T11:45:58Z</time>
      </trkpt>
      <trkpt lat="44.14585" lon="6.90573">
        <ele>1679</ele>
        <time>2013-09-21T11:46:05Z</time>
      </trkpt>
      <trkpt lat="44.14563" lon="6.90559">
        <ele>1678</ele>
        <time>2013-09-21T11:46:12Z</time>
      </trkpt>
      <trkpt lat="44.14554" lon="6.90536">
        <ele>1676</ele>
        <time>2013-09-21T11:46:19Z</time>
      </trkpt>
      <trkpt lat="44.14562" lon="6.90518">
        <ele>1674</ele>
        <time>2013-09-21T11:46:25Z</time>
      </trkpt>
      <trkpt lat="44.14564" lon="6.90505">
        <ele>1674</ele>
        <time>2013-09-21T11:46:28Z</time>
      </trkpt>
      <trkpt lat="44.14569" lon="6.90502">
        <ele>1673</ele>
        <time>2013-09-21T11:46:31Z</time>
      </trkpt>
      <trkpt lat="44.14559" lon="6.90495">
        <ele>1671</ele>
        <time>2013-09-21T11:46:36Z</time>
      </trkpt>
      <trkpt lat="44.1454" lon="6.90474">
        <ele>1669</ele>
        <time>2013-09-21T11:46:43Z</time>
      </trkpt>
      <trkpt lat="44.14553" lon="6.90464">
        <ele>1668</ele>
        <time>2013-09-21T11:46:47Z</time>
      </trkpt>
      <trkpt lat="44.14559" lon="6.9045">
        <ele>1668</ele>
        <time>2013-09-21T11:46:50Z</time>
      </trkpt>
      <trkpt lat="44.14545" lon="6.90448">
        <ele>1666</ele>
        <time>2013-09-21T11:46:56Z</time>
      </trkpt>
      <trkpt lat="44.14545" lon="6.90439">
        <ele>1665</ele>
        <time>2013-09-21T11:47:00Z</time>
      </trkpt>
      <trkpt lat="44.1456" lon="6.90425">
        <ele>1664</ele>
        <time>2013-09-21T11:47:04Z</time>
      </trkpt>
      <trkpt lat="44.14559" lon="6.90421">
        <ele>1663</ele>
        <time>2013-09-21T11:47:06Z</time>
      </trkpt>
      <trkpt lat="44.14537" lon="6.90428">
        <ele>1662</ele>
        <time>2013-09-21T11:47:11Z</time>
      </trkpt>
      <trkpt lat="44.1452" lon="6.90438">
        <ele>1661</ele>
        <time>2013-09-21T11:47:15Z</time>
      </trkpt>
      <trkpt lat="44.1452" lon="6.90431">
        <ele>1660</ele>
        <time>2013-09-21T11:47:17Z</time>
      </trkpt>
      <trkpt lat="44.14527" lon="6.90416">
        <ele>1659</ele>
        <time>2013-09-21T11:47:20Z</time>
      </trkpt>
      <trkpt lat="44.14539" lon="6.90398">
        <ele>1658</ele>
        <time>2013-09-21T11:47:24Z</time>
      </trkpt>
      <trkpt lat="44.14536" lon="6.90387">
        <ele>1656</ele>
        <time>2013-09-21T11:47:31Z</time>
      </trkpt>
      <trkpt lat="44.14523" lon="6.90383">
        <ele>1654</ele>
        <time>2013-09-21T11:47:36Z</time>
      </trkpt>
      <trkpt lat="44.14538" lon="6.90367">
        <ele>1652</ele>
        <time>2013-09-21T11:47:41Z</time>
      </trkpt>
      <trkpt lat="44.14526" lon="6.90363">
        <ele>1651</ele>
        <time>2013-09-21T11:47:45Z</time>
      </trkpt>
      <trkpt lat="44.14518" lon="6.90378">
        <ele>1650</ele>
        <time>2013-09-21T11:47:48Z</time>
      </trkpt>
      <trkpt lat="44.14506" lon="6.90393">
        <ele>1648</ele>
        <time>2013-09-21T11:47:52Z</time>
      </trkpt>
      <trkpt lat="44.14452" lon="6.90405">
        <ele>1646</ele>
        <time>2013-09-21T11:48:00Z</time>
      </trkpt>
      <trkpt lat="44.14414" lon="6.90406">
        <ele>1643</ele>
        <time>2013-09-21T11:48:07Z</time>
      </trkpt>
      <trkpt lat="44.14414" lon="6.90403">
        <ele>1642</ele>
        <time>2013-09-21T11:48:10Z</time>
      </trkpt>
      <trkpt lat="44.14442" lon="6.90387">
        <ele>1639</ele>
        <time>2013-09-21T11:48:16Z</time>
      </trkpt>
      <trkpt lat="44.14449" lon="6.90381">
        <ele>1638</ele>
        <time>2013-09-21T11:48:19Z</time>
      </trkpt>
      <trkpt lat="44.14437" lon="6.90378">
        <ele>1636</ele>
        <time>2013-09-21T11:48:22Z</time>
      </trkpt>
      <trkpt lat="44.14417" lon="6.90381">
        <ele>1635</ele>
        <time>2013-09-21T11:48:26Z</time>
      </trkpt>
      <trkpt lat="44.1439" lon="6.90389">
        <ele>1632</ele>
        <time>2013-09-21T11:48:31Z</time>
      </trkpt>
      <trkpt lat="44.1437" lon="6.90401">
        <ele>1630</ele>
        <time>2013-09-21T11:48:35Z</time>
      </trkpt>
      <trkpt lat="44.14347" lon="6.90417">
        <ele>1628</ele>
        <time>2013-09-21T11:48:40Z</time>
      </trkpt>
      <trkpt lat="44.14326" lon="6.90431">
        <ele>1625</ele>
        <time>2013-09-21T11:48:46Z</time>
      </trkpt>
      <trkpt lat="44.14305" lon="6.90435">
        <ele>1622</ele>
        <time>2013-09-21T11:48:51Z</time>
      </trkpt>
      <trkpt lat="44.14277" lon="6.90428">
        <ele>1620</ele>
        <time>2013-09-21T11:48:56Z</time>
      </trkpt>
      <trkpt lat="44.14253" lon="6.90454">
        <ele>1617</ele>
        <time>2013-09-21T11:49:01Z</time>
      </trkpt>
      <trkpt lat="44.14228" lon="6.90475">
        <ele>1614</ele>
        <time>2013-09-21T11:49:06Z</time>
      </trkpt>
      <trkpt lat="44.14219" lon="6.90481">
        <ele>1612</ele>
        <time>2013-09-21T11:49:10Z</time>
      </trkpt>
      <trkpt lat="44.14223" lon="6.90489">
        <ele>1609</ele>
        <time>2013-09-21T11:49:14Z</time>
      </trkpt>
      <trkpt lat="44.1424" lon="6.90503">
        <ele>1566</ele>
        <time>2013-09-21T11:50:20Z</time>
      </trkpt>
      <trkpt lat="44.14244" lon="6.90504">
        <ele>1556</ele>
        <time>2013-09-21T11:50:40Z</time>
      </trkpt>
      <trkpt lat="44.14221" lon="6.90519">
        <ele>1534</ele>
        <time>2013-09-21T11:51:43Z</time>
      </trkpt>
      <trkpt lat="44.14194" lon="6.90544">
        <ele>1531</ele>
        <time>2013-09-21T11:51:50Z</time>
      </trkpt>
      <trkpt lat="44.14188" lon="6.90556">
        <ele>1530</ele>
        <time>2013-09-21T11:51:54Z</time>
      </trkpt>
      <trkpt lat="44.14182" lon="6.90562">
        <ele>1529</ele>
        <time>2013-09-21T11:51:58Z</time>
      </trkpt>
      <trkpt lat="44.14153" lon="6.90585">
        <ele>1526</ele>
        <time>2013-09-21T11:52:06Z</time>
      </trkpt>
      <trkpt lat="44.14124" lon="6.90609">
        <ele>1524</ele>
        <time>2013-09-21T11:52:11Z</time>
      </trkpt>
      <trkpt lat="44.14101" lon="6.90639">
        <ele>1522</ele>
        <time>2013-09-21T11:52:15Z</time>
      </trkpt>
      <trkpt lat="44.14083" lon="6.90649">
        <ele>1521</ele>
        <time>2013-09-21T11:52:18Z</time>
      </trkpt>
      <trkpt lat="44.14059" lon="6.90659">
        <ele>1519</ele>
        <time>2013-09-21T11:52:23Z</time>
      </trkpt>
      <trkpt lat="44.14022" lon="6.90683">
        <ele>1516</ele>
        <time>2013-09-21T11:52:29Z</time>
      </trkpt>
      <trkpt lat="44.13999" lon="6.90704">
        <ele>1514</ele>
        <time>2013-09-21T11:52:35Z</time>
      </trkpt>
      <trkpt lat="44.14004" lon="6.90713">
        <ele>1506</ele>
        <time>2013-09-21T11:52:52Z</time>
      </trkpt>
      <trkpt lat="44.14013" lon="6.90735">
        <ele>1501</ele>
        <time>2013-09-21T11:53:04Z</time>
      </trkpt>
      <trkpt lat="44.14007" lon="6.90715">
        <ele>1497</ele>
        <time>2013-09-21T11:53:15Z</time>
      </trkpt>
      <trkpt lat="44.14005" lon="6.90704">
        <ele>1495</ele>
        <time>2013-09-21T11:53:21Z</time>
      </trkpt>
      <trkpt lat="44.13984" lon="6.90707">
        <ele>1492</ele>
        <time>2013-09-21T11:53:29Z</time>
      </trkpt>
      <trkpt lat="44.13942" lon="6.90703">
        <ele>1488</ele>
        <time>2013-09-21T11:53:40Z</time>
      </trkpt>
      <trkpt lat="44.13923" lon="6.90709">
        <ele>1487</ele>
        <time>2013-09-21T11:53:43Z</time>
      </trkpt>
      <trkpt lat="44.13874" lon="6.90718">
        <ele>1485</ele>
        <time>2013-09-21T11:53:51Z</time>
      </trkpt>
      <trkpt lat="44.13858" lon="6.90709">
        <ele>1483</ele>
        <time>2013-09-21T11:53:55Z</time>
      </trkpt>
      <trkpt lat="44.13855" lon="6.90707">
        <ele>1480</ele>
        <time>2013-09-21T11:54:04Z</time>
      </trkpt>
      <trkpt lat="44.13848" lon="6.90704">
        <ele>1478</ele>
        <time>2013-09-21T11:54:11Z</time>
      </trkpt>
      <trkpt lat="44.13832" lon="6.90703">
        <ele>1477</ele>
        <time>2013-09-21T11:54:17Z</time>
      </trkpt>
      <trkpt lat="44.13826" lon="6.90699">
        <ele>1475</ele>
        <time>2013-09-21T11:54:23Z</time>
      </trkpt>
      <trkpt lat="44.13824" lon="6.90702">
        <ele>1471</ele>
        <time>2013-09-21T11:54:42Z</time>
      </trkpt>
      <trkpt lat="44.13821" lon="6.90701">
        <ele>1468</ele>
        <time>2013-09-21T11:54:58Z</time>
      </trkpt>
      <trkpt lat="44.13819" lon="6.90686">
        <ele>1466</ele>
        <time>2013-09-21T11:55:09Z</time>
      </trkpt>
      <trkpt lat="44.13822" lon="6.90656">
        <ele>1465</ele>
        <time>2013-09-21T11:55:20Z</time>
      </trkpt>
      <trkpt lat="44.13821" lon="6.90645">
        <ele>1464</ele>
        <time>2013-09-21T11:55:28Z</time>
      </trkpt>
      <trkpt lat="44.13814" lon="6.90649">
        <ele>1462</ele>
        <time>2013-09-21T11:55:37Z</time>
      </trkpt>
      <trkpt lat="44.13813" lon="6.9065">
        <ele>1459</ele>
        <time>2013-09-21T11:55:52Z</time>
      </trkpt>
      <trkpt lat="44.13812" lon="6.90649">
        <ele>1455</ele>
        <time>2013-09-21T11:56:12Z</time>
      </trkpt>
      <trkpt lat="44.13815" lon="6.90637">
        <ele>1451</ele>
        <time>2013-09-21T11:56:30Z</time>
      </trkpt>
      <trkpt lat="44.13815" lon="6.90631">
        <ele>1450</ele>
        <time>2013-09-21T11:56:39Z</time>
      </trkpt>
      <trkpt lat="44.1382" lon="6.90628">
        <ele>1448</ele>
        <time>2013-09-21T11:56:46Z</time>
      </trkpt>
      <trkpt lat="44.13821" lon="6.9063">
        <ele>1446</ele>
        <time>2013-09-21T11:56:58Z</time>
      </trkpt>
      <trkpt lat="44.13822" lon="6.90631">
        <ele>1444</ele>
        <time>2013-09-21T11:57:10Z</time>
      </trkpt>
      <trkpt lat="44.13828" lon="6.90633">
        <ele>1440</ele>
        <time>2013-09-21T11:57:41Z</time>
      </trkpt>
      <trkpt lat="44.13816" lon="6.9062">
        <ele>1436</ele>
        <time>2013-09-21T12:02:19Z</time>
      </trkpt>
      <trkpt lat="44.13821" lon="6.90629">
        <ele>1437</ele>
        <time>2013-09-21T12:02:43Z</time>
      </trkpt>
      <trkpt lat="44.1382" lon="6.90627">
        <ele>1436</ele>
        <time>2013-09-21T12:02:56Z</time>
      </trkpt>
      <trkpt lat="44.13821" lon="6.90626">
        <ele>1436</ele>
        <time>2013-09-21T12:03:22Z</time>
      </trkpt>
      <trkpt lat="44.1382" lon="6.90623">
        <ele>1436</ele>
        <time>2013-09-21T12:03:33Z</time>
      </trkpt>
      <trkpt lat="44.13816" lon="6.90626">
        <ele>1436</ele>
        <time>2013-09-21T12:03:40Z</time>
      </trkpt>
      <trkpt lat="44.13805" lon="6.90626">
        <ele>1435</ele>
        <time>2013-09-21T12:03:56Z</time>
      </trkpt>
      <trkpt lat="44.13803" lon="6.9062">
        <ele>1435</ele>
        <time>2013-09-21T12:04:20Z</time>
      </trkpt>
      <trkpt lat="44.13804" lon="6.90617">
        <ele>1435</ele>
        <time>2013-09-21T12:04:32Z</time>
      </trkpt>
      <trkpt lat="44.13803" lon="6.90621">
        <ele>1434</ele>
        <time>2013-09-21T12:05:05Z</time>
      </trkpt>
      <trkpt lat="44.13805" lon="6.90636">
        <ele>1433</ele>
        <time>2013-09-21T12:06:35Z</time>
      </trkpt>
      <trkpt lat="44.13802" lon="6.90634">
        <ele>1436</ele>
        <time>2013-09-21T12:07:09Z</time>
      </trkpt>
      <trkpt lat="44.13783" lon="6.90644">
        <ele>1436</ele>
        <time>2013-09-21T12:07:31Z</time>
      </trkpt>
      <trkpt lat="44.13774" lon="6.90653">
        <ele>1436</ele>
        <time>2013-09-21T12:07:38Z</time>
      </trkpt>
      <trkpt lat="44.13745" lon="6.90678">
        <ele>1435</ele>
        <time>2013-09-21T12:07:45Z</time>
      </trkpt>
      <trkpt lat="44.13709" lon="6.90683">
        <ele>1435</ele>
        <time>2013-09-21T12:07:50Z</time>
      </trkpt>
      <trkpt lat="44.1364" lon="6.90694">
        <ele>1434</ele>
        <time>2013-09-21T12:07:59Z</time>
      </trkpt>
      <trkpt lat="44.13611" lon="6.90702">
        <ele>1433</ele>
        <time>2013-09-21T12:08:03Z</time>
      </trkpt>
      <trkpt lat="44.13598" lon="6.9071">
        <ele>1433</ele>
        <time>2013-09-21T12:08:05Z</time>
      </trkpt>
      <trkpt lat="44.13577" lon="6.90718">
        <ele>1432</ele>
        <time>2013-09-21T12:08:10Z</time>
      </trkpt>
      <trkpt lat="44.13574" lon="6.90715">
        <ele>1429</ele>
        <time>2013-09-21T12:08:21Z</time>
      </trkpt>
      <trkpt lat="44.13579" lon="6.90689">
        <ele>1422</ele>
        <time>2013-09-21T12:08:47Z</time>
      </trkpt>
      <trkpt lat="44.13588" lon="6.90688">
        <ele>1406</ele>
        <time>2013-09-21T12:09:42Z</time>
      </trkpt>
      <trkpt lat="44.13589" lon="6.90687">
        <ele>1391</ele>
        <time>2013-09-21T12:11:16Z</time>
      </trkpt>
      <trkpt lat="44.13581" lon="6.90683">
        <ele>1401</ele>
        <time>2013-09-21T12:13:50Z</time>
      </trkpt>
      <trkpt lat="44.13581" lon="6.90685">
        <ele>1402</ele>
        <time>2013-09-21T12:16:22Z</time>
      </trkpt>
      <trkpt lat="44.13585" lon="6.90684">
        <ele>1402</ele>
        <time>2013-09-21T12:16:45Z</time>
      </trkpt>
      <trkpt lat="44.13576" lon="6.9068">
        <ele>1406</ele>
        <time>2013-09-21T12:28:15Z</time>
      </trkpt>
      <trkpt lat="44.13573" lon="6.90669">
        <ele>1406</ele>
        <time>2013-09-21T12:28:22Z</time>
      </trkpt>
      <trkpt lat="44.13562" lon="6.90652">
        <ele>1406</ele>
        <time>2013-09-21T12:28:32Z</time>
      </trkpt>
      <trkpt lat="44.13553" lon="6.90639">
        <ele>1406</ele>
        <time>2013-09-21T12:28:40Z</time>
      </trkpt>
      <trkpt lat="44.13535" lon="6.90618">
        <ele>1405</ele>
        <time>2013-09-21T12:28:51Z</time>
      </trkpt>
      <trkpt lat="44.13534" lon="6.906">
        <ele>1405</ele>
        <time>2013-09-21T12:28:55Z</time>
      </trkpt>
      <trkpt lat="44.13517" lon="6.90584">
        <ele>1405</ele>
        <time>2013-09-21T12:29:01Z</time>
      </trkpt>
      <trkpt lat="44.13489" lon="6.90577">
        <ele>1405</ele>
        <time>2013-09-21T12:29:10Z</time>
      </trkpt>
      <trkpt lat="44.13477" lon="6.90578">
        <ele>1405</ele>
        <time>2013-09-21T12:29:14Z</time>
      </trkpt>
      <trkpt lat="44.1344" lon="6.90594">
        <ele>1404</ele>
        <time>2013-09-21T12:29:23Z</time>
      </trkpt>
      <trkpt lat="44.13401" lon="6.90602">
        <ele>1404</ele>
        <time>2013-09-21T12:29:36Z</time>
      </trkpt>
      <trkpt lat="44.13379" lon="6.90608">
        <ele>1403</ele>
        <time>2013-09-21T12:29:47Z</time>
      </trkpt>
      <trkpt lat="44.13372" lon="6.90609">
        <ele>1403</ele>
        <time>2013-09-21T12:29:50Z</time>
      </trkpt>
      <trkpt lat="44.1332" lon="6.90627">
        <ele>1402</ele>
        <time>2013-09-21T12:30:03Z</time>
      </trkpt>
      <trkpt lat="44.13294" lon="6.90646">
        <ele>1402</ele>
        <time>2013-09-21T12:30:09Z</time>
      </trkpt>
      <trkpt lat="44.13248" lon="6.90677">
        <ele>1401</ele>
        <time>2013-09-21T12:30:19Z</time>
      </trkpt>
      <trkpt lat="44.13223" lon="6.90699">
        <ele>1400</ele>
        <time>2013-09-21T12:30:25Z</time>
      </trkpt>
      <trkpt lat="44.13189" lon="6.90713">
        <ele>1400</ele>
        <time>2013-09-21T12:30:32Z</time>
      </trkpt>
      <trkpt lat="44.13148" lon="6.90728">
        <ele>1399</ele>
        <time>2013-09-21T12:30:43Z</time>
      </trkpt>
      <trkpt lat="44.13113" lon="6.90715">
        <ele>1397</ele>
        <time>2013-09-21T12:30:56Z</time>
      </trkpt>
      <trkpt lat="44.13071" lon="6.90694">
        <ele>1396</ele>
        <time>2013-09-21T12:31:08Z</time>
      </trkpt>
      <trkpt lat="44.13043" lon="6.90649">
        <ele>1395</ele>
        <time>2013-09-21T12:31:18Z</time>
      </trkpt>
      <trkpt lat="44.13039" lon="6.90608">
        <ele>1394</ele>
        <time>2013-09-21T12:31:25Z</time>
      </trkpt>
      <trkpt lat="44.13028" lon="6.90581">
        <ele>1393</ele>
        <time>2013-09-21T12:31:29Z</time>
      </trkpt>
      <trkpt lat="44.12999" lon="6.90584">
        <ele>1393</ele>
        <time>2013-09-21T12:31:34Z</time>
      </trkpt>
      <trkpt lat="44.12959" lon="6.90618">
        <ele>1392</ele>
        <time>2013-09-21T12:31:40Z</time>
      </trkpt>
      <trkpt lat="44.12936" lon="6.9062">
        <ele>1391</ele>
        <time>2013-09-21T12:31:43Z</time>
      </trkpt>
      <trkpt lat="44.12908" lon="6.90603">
        <ele>1391</ele>
        <time>2013-09-21T12:31:47Z</time>
      </trkpt>
      <trkpt lat="44.12834" lon="6.90552">
        <ele>1389</ele>
        <time>2013-09-21T12:31:58Z</time>
      </trkpt>
      <trkpt lat="44.12813" lon="6.90535">
        <ele>1388</ele>
        <time>2013-09-21T12:32:03Z</time>
      </trkpt>
      <trkpt lat="44.1282" lon="6.90552">
        <ele>1387</ele>
        <time>2013-09-21T12:32:07Z</time>
      </trkpt>
      <trkpt lat="44.12842" lon="6.90572">
        <ele>1386</ele>
        <time>2013-09-21T12:32:12Z</time>
      </trkpt>
      <trkpt lat="44.1286" lon="6.90587">
        <ele>1385</ele>
        <time>2013-09-21T12:32:16Z</time>
      </trkpt>
      <trkpt lat="44.12876" lon="6.90607">
        <ele>1385</ele>
        <time>2013-09-21T12:32:20Z</time>
      </trkpt>
      <trkpt lat="44.12893" lon="6.90631">
        <ele>1384</ele>
        <time>2013-09-21T12:32:24Z</time>
      </trkpt>
      <trkpt lat="44.12913" lon="6.90668">
        <ele>1383</ele>
        <time>2013-09-21T12:32:29Z</time>
      </trkpt>
      <trkpt lat="44.12897" lon="6.90706">
        <ele>1382</ele>
        <time>2013-09-21T12:32:34Z</time>
      </trkpt>
      <trkpt lat="44.12878" lon="6.90718">
        <ele>1381</ele>
        <time>2013-09-21T12:32:37Z</time>
      </trkpt>
      <trkpt lat="44.12847" lon="6.90714">
        <ele>1380</ele>
        <time>2013-09-21T12:32:41Z</time>
      </trkpt>
      <trkpt lat="44.12827" lon="6.90697">
        <ele>1379</ele>
        <time>2013-09-21T12:32:44Z</time>
      </trkpt>
      <trkpt lat="44.12765" lon="6.90638">
        <ele>1375</ele>
        <time>2013-09-21T12:32:55Z</time>
      </trkpt>
      <trkpt lat="44.12719" lon="6.90624">
        <ele>1372</ele>
        <time>2013-09-21T12:33:02Z</time>
      </trkpt>
      <trkpt lat="44.12678" lon="6.90619">
        <ele>1369</ele>
        <time>2013-09-21T12:33:09Z</time>
      </trkpt>
      <trkpt lat="44.12663" lon="6.90622">
        <ele>1367</ele>
        <time>2013-09-21T12:33:14Z</time>
      </trkpt>
      <trkpt lat="44.12658" lon="6.90624">
        <ele>1360</ele>
        <time>2013-09-21T12:33:29Z</time>
      </trkpt>
      <trkpt lat="44.12618" lon="6.90614">
        <ele>1357</ele>
        <time>2013-09-21T12:33:37Z</time>
      </trkpt>
      <trkpt lat="44.12588" lon="6.90607">
        <ele>1355</ele>
        <time>2013-09-21T12:33:42Z</time>
      </trkpt>
      <trkpt lat="44.12534" lon="6.90597">
        <ele>1351</ele>
        <time>2013-09-21T12:33:49Z</time>
      </trkpt>
      <trkpt lat="44.12503" lon="6.90601">
        <ele>1349</ele>
        <time>2013-09-21T12:33:54Z</time>
      </trkpt>
      <trkpt lat="44.12472" lon="6.906">
        <ele>1347</ele>
        <time>2013-09-21T12:33:59Z</time>
      </trkpt>
      <trkpt lat="44.12436" lon="6.90622">
        <ele>1344</ele>
        <time>2013-09-21T12:34:05Z</time>
      </trkpt>
      <trkpt lat="44.124" lon="6.90607">
        <ele>1342</ele>
        <time>2013-09-21T12:34:10Z</time>
      </trkpt>
      <trkpt lat="44.12388" lon="6.90554">
        <ele>1339</ele>
        <time>2013-09-21T12:34:15Z</time>
      </trkpt>
      <trkpt lat="44.12364" lon="6.90525">
        <ele>1337</ele>
        <time>2013-09-21T12:34:19Z</time>
      </trkpt>
      <trkpt lat="44.1235" lon="6.90494">
        <ele>1335</ele>
        <time>2013-09-21T12:34:23Z</time>
      </trkpt>
      <trkpt lat="44.1234" lon="6.9042">
        <ele>1331</ele>
        <time>2013-09-21T12:34:33Z</time>
      </trkpt>
      <trkpt lat="44.12328" lon="6.90407">
        <ele>1329</ele>
        <time>2013-09-21T12:34:36Z</time>
      </trkpt>
      <trkpt lat="44.12298" lon="6.90432">
        <ele>1326</ele>
        <time>2013-09-21T12:34:43Z</time>
      </trkpt>
      <trkpt lat="44.12282" lon="6.90463">
        <ele>1324</ele>
        <time>2013-09-21T12:34:49Z</time>
      </trkpt>
      <trkpt lat="44.12252" lon="6.90512">
        <ele>1319</ele>
        <time>2013-09-21T12:35:00Z</time>
      </trkpt>
      <trkpt lat="44.12237" lon="6.90506">
        <ele>1318</ele>
        <time>2013-09-21T12:35:03Z</time>
      </trkpt>
      <trkpt lat="44.12228" lon="6.905">
        <ele>1317</ele>
        <time>2013-09-21T12:35:05Z</time>
      </trkpt>
      <trkpt lat="44.12222" lon="6.90478">
        <ele>1316</ele>
        <time>2013-09-21T12:35:09Z</time>
      </trkpt>
      <trkpt lat="44.12223" lon="6.90458">
        <ele>1313</ele>
        <time>2013-09-21T12:35:16Z</time>
      </trkpt>
      <trkpt lat="44.12223" lon="6.90431">
        <ele>1308</ele>
        <time>2013-09-21T12:35:30Z</time>
      </trkpt>
      <trkpt lat="44.12222" lon="6.9042">
        <ele>1306</ele>
        <time>2013-09-21T12:35:37Z</time>
      </trkpt>
      <trkpt lat="44.12215" lon="6.90396">
        <ele>1302</ele>
        <time>2013-09-21T12:35:53Z</time>
      </trkpt>
      <trkpt lat="44.12212" lon="6.90365">
        <ele>1299</ele>
        <time>2013-09-21T12:36:12Z</time>
      </trkpt>
      <trkpt lat="44.1221" lon="6.9034">
        <ele>1296</ele>
        <time>2013-09-21T12:36:26Z</time>
      </trkpt>
      <trkpt lat="44.12204" lon="6.90316">
        <ele>1294</ele>
        <time>2013-09-21T12:36:41Z</time>
      </trkpt>
      <trkpt lat="44.12199" lon="6.90292">
        <ele>1293</ele>
        <time>2013-09-21T12:36:56Z</time>
      </trkpt>
      <trkpt lat="44.12194" lon="6.90269">
        <ele>1292</ele>
        <time>2013-09-21T12:37:11Z</time>
      </trkpt>
      <trkpt lat="44.1219" lon="6.90264">
        <ele>1292</ele>
        <time>2013-09-21T12:37:17Z</time>
      </trkpt>
      <trkpt lat="44.12178" lon="6.90269">
        <ele>1291</ele>
        <time>2013-09-21T12:37:31Z</time>
      </trkpt>
      <trkpt lat="44.1216" lon="6.9028">
        <ele>1291</ele>
        <time>2013-09-21T12:37:47Z</time>
      </trkpt>
      <trkpt lat="44.12149" lon="6.90306">
        <ele>1291</ele>
        <time>2013-09-21T12:38:04Z</time>
      </trkpt>
      <trkpt lat="44.1214" lon="6.90336">
        <ele>1292</ele>
        <time>2013-09-21T12:38:23Z</time>
      </trkpt>
      <trkpt lat="44.1212" lon="6.9034">
        <ele>1294</ele>
        <time>2013-09-21T12:38:40Z</time>
      </trkpt>
      <trkpt lat="44.12097" lon="6.90332">
        <ele>1295</ele>
        <time>2013-09-21T12:38:59Z</time>
      </trkpt>
      <trkpt lat="44.12082" lon="6.90311">
        <ele>1297</ele>
        <time>2013-09-21T12:39:17Z</time>
      </trkpt>
      <trkpt lat="44.12061" lon="6.90285">
        <ele>1300</ele>
        <time>2013-09-21T12:39:39Z</time>
      </trkpt>
      <trkpt lat="44.12049" lon="6.90258">
        <ele>1302</ele>
        <time>2013-09-21T12:39:54Z</time>
      </trkpt>
      <trkpt lat="44.1203" lon="6.90234">
        <ele>1304</ele>
        <time>2013-09-21T12:40:11Z</time>
      </trkpt>
      <trkpt lat="44.12011" lon="6.90218">
        <ele>1306</ele>
        <time>2013-09-21T12:40:26Z</time>
      </trkpt>
      <trkpt lat="44.12014" lon="6.90206">
        <ele>1307</ele>
        <time>2013-09-21T12:40:32Z</time>
      </trkpt>
      <trkpt lat="44.12037" lon="6.90178">
        <ele>1309</ele>
        <time>2013-09-21T12:40:49Z</time>
      </trkpt>
      <trkpt lat="44.12056" lon="6.9014">
        <ele>1312</ele>
        <time>2013-09-21T12:41:08Z</time>
      </trkpt>
      <trkpt lat="44.12066" lon="6.9009">
        <ele>1315</ele>
        <time>2013-09-21T12:41:29Z</time>
      </trkpt>
      <trkpt lat="44.12077" lon="6.90039">
        <ele>1319</ele>
        <time>2013-09-21T12:41:49Z</time>
      </trkpt>
      <trkpt lat="44.12086" lon="6.89989">
        <ele>1321</ele>
        <time>2013-09-21T12:42:06Z</time>
      </trkpt>
      <trkpt lat="44.12082" lon="6.89936">
        <ele>1325</ele>
        <time>2013-09-21T12:42:26Z</time>
      </trkpt>
      <trkpt lat="44.12064" lon="6.89881">
        <ele>1328</ele>
        <time>2013-09-21T12:42:46Z</time>
      </trkpt>
      <trkpt lat="44.12051" lon="6.89853">
        <ele>1330</ele>
        <time>2013-09-21T12:42:58Z</time>
      </trkpt>
      <trkpt lat="44.12025" lon="6.89867">
        <ele>1331</ele>
        <time>2013-09-21T12:43:11Z</time>
      </trkpt>
      <trkpt lat="44.11987" lon="6.89898">
        <ele>1332</ele>
        <time>2013-09-21T12:43:29Z</time>
      </trkpt>
      <trkpt lat="44.11953" lon="6.8993">
        <ele>1333</ele>
        <time>2013-09-21T12:43:46Z</time>
      </trkpt>
      <trkpt lat="44.11944" lon="6.89927">
        <ele>1334</ele>
        <time>2013-09-21T12:43:51Z</time>
      </trkpt>
      <trkpt lat="44.11965" lon="6.89903">
        <ele>1335</ele>
        <time>2013-09-21T12:44:03Z</time>
      </trkpt>
      <trkpt lat="44.12001" lon="6.89855">
        <ele>1338</ele>
        <time>2013-09-21T12:44:19Z</time>
      </trkpt>
      <trkpt lat="44.12038" lon="6.89818">
        <ele>1340</ele>
        <time>2013-09-21T12:44:34Z</time>
      </trkpt>
      <trkpt lat="44.12078" lon="6.8978">
        <ele>1342</ele>
        <time>2013-09-21T12:44:50Z</time>
      </trkpt>
      <trkpt lat="44.12093" lon="6.89752">
        <ele>1344</ele>
        <time>2013-09-21T12:45:01Z</time>
      </trkpt>
      <trkpt lat="44.12088" lon="6.89748">
        <ele>1344</ele>
        <time>2013-09-21T12:45:04Z</time>
      </trkpt>
      <trkpt lat="44.12077" lon="6.89755">
        <ele>1345</ele>
        <time>2013-09-21T12:45:10Z</time>
      </trkpt>
      <trkpt lat="44.12051" lon="6.89772">
        <ele>1347</ele>
        <time>2013-09-21T12:45:25Z</time>
      </trkpt>
      <trkpt lat="44.12015" lon="6.8979">
        <ele>1349</ele>
        <time>2013-09-21T12:45:42Z</time>
      </trkpt>
      <trkpt lat="44.11977" lon="6.89807">
        <ele>1352</ele>
        <time>2013-09-21T12:46:00Z</time>
      </trkpt>
      <trkpt lat="44.11941" lon="6.89837">
        <ele>1355</ele>
        <time>2013-09-21T12:46:15Z</time>
      </trkpt>
      <trkpt lat="44.11892" lon="6.89852">
        <ele>1357</ele>
        <time>2013-09-21T12:46:27Z</time>
      </trkpt>
      <trkpt lat="44.11875" lon="6.89862">
        <ele>1358</ele>
        <time>2013-09-21T12:46:32Z</time>
      </trkpt>
      <trkpt lat="44.11847" lon="6.89897">
        <ele>1360</ele>
        <time>2013-09-21T12:46:45Z</time>
      </trkpt>
      <trkpt lat="44.11819" lon="6.89928">
        <ele>1362</ele>
        <time>2013-09-21T12:46:57Z</time>
      </trkpt>
      <trkpt lat="44.11812" lon="6.89927">
        <ele>1363</ele>
        <time>2013-09-21T12:47:01Z</time>
      </trkpt>
      <trkpt lat="44.11818" lon="6.89911">
        <ele>1364</ele>
        <time>2013-09-21T12:47:09Z</time>
      </trkpt>
      <trkpt lat="44.11829" lon="6.8989">
        <ele>1365</ele>
        <time>2013-09-21T12:47:19Z</time>
      </trkpt>
      <trkpt lat="44.11843" lon="6.89863">
        <ele>1367</ele>
        <time>2013-09-21T12:47:31Z</time>
      </trkpt>
      <trkpt lat="44.11852" lon="6.89841">
        <ele>1368</ele>
        <time>2013-09-21T12:47:42Z</time>
      </trkpt>
      <trkpt lat="44.11855" lon="6.8981">
        <ele>1370</ele>
        <time>2013-09-21T12:47:57Z</time>
      </trkpt>
      <trkpt lat="44.11857" lon="6.898">
        <ele>1370</ele>
        <time>2013-09-21T12:48:02Z</time>
      </trkpt>
      <trkpt lat="44.11866" lon="6.89786">
        <ele>1371</ele>
        <time>2013-09-21T12:48:10Z</time>
      </trkpt>
      <trkpt lat="44.11877" lon="6.89783">
        <ele>1374</ele>
        <time>2013-09-21T12:48:24Z</time>
      </trkpt>
      <trkpt lat="44.11878" lon="6.89783">
        <ele>1376</ele>
        <time>2013-09-21T12:48:39Z</time>
      </trkpt>
      <trkpt lat="44.11875" lon="6.89777">
        <ele>1382</ele>
        <time>2013-09-21T12:49:20Z</time>
      </trkpt>
      <trkpt lat="44.11873" lon="6.89774">
        <ele>1385</ele>
        <time>2013-09-21T12:50:12Z</time>
      </trkpt>
      <trkpt lat="44.11858" lon="6.8977">
        <ele>1386</ele>
        <time>2013-09-21T12:50:28Z</time>
      </trkpt>
      <trkpt lat="44.11848" lon="6.89756">
        <ele>1388</ele>
        <time>2013-09-21T12:50:46Z</time>
      </trkpt>
      <trkpt lat="44.11839" lon="6.8975">
        <ele>1390</ele>
        <time>2013-09-21T12:51:01Z</time>
      </trkpt>
      <trkpt lat="44.11831" lon="6.89751">
        <ele>1391</ele>
        <time>2013-09-21T12:51:16Z</time>
      </trkpt>
      <trkpt lat="44.11824" lon="6.89754">
        <ele>1393</ele>
        <time>2013-09-21T12:51:32Z</time>
      </trkpt>
      <trkpt lat="44.11818" lon="6.8975">
        <ele>1393</ele>
        <time>2013-09-21T12:51:47Z</time>
      </trkpt>
      <trkpt lat="44.11814" lon="6.89755">
        <ele>1394</ele>
        <time>2013-09-21T12:51:59Z</time>
      </trkpt>
      <trkpt lat="44.11807" lon="6.89759">
        <ele>1394</ele>
        <time>2013-09-21T12:52:11Z</time>
      </trkpt>
      <trkpt lat="44.11802" lon="6.89763">
        <ele>1394</ele>
        <time>2013-09-21T12:52:24Z</time>
      </trkpt>
      <trkpt lat="44.11792" lon="6.89768">
        <ele>1394</ele>
        <time>2013-09-21T12:52:39Z</time>
      </trkpt>
      <trkpt lat="44.11781" lon="6.89776">
        <ele>1393</ele>
        <time>2013-09-21T12:52:54Z</time>
      </trkpt>
      <trkpt lat="44.11769" lon="6.89781">
        <ele>1393</ele>
        <time>2013-09-21T12:53:10Z</time>
      </trkpt>
      <trkpt lat="44.1176" lon="6.89786">
        <ele>1393</ele>
        <time>2013-09-21T12:53:38Z</time>
      </trkpt>
      <trkpt lat="44.11741" lon="6.89789">
        <ele>1392</ele>
        <time>2013-09-21T12:53:51Z</time>
      </trkpt>
      <trkpt lat="44.11731" lon="6.89786">
        <ele>1392</ele>
        <time>2013-09-21T12:53:57Z</time>
      </trkpt>
      <trkpt lat="44.11729" lon="6.89776">
        <ele>1392</ele>
        <time>2013-09-21T12:54:03Z</time>
      </trkpt>
      <trkpt lat="44.11729" lon="6.8976">
        <ele>1392</ele>
        <time>2013-09-21T12:54:13Z</time>
      </trkpt>
      <trkpt lat="44.1172" lon="6.89739">
        <ele>1393</ele>
        <time>2013-09-21T12:54:28Z</time>
      </trkpt>
      <trkpt lat="44.11707" lon="6.89718">
        <ele>1395</ele>
        <time>2013-09-21T12:54:44Z</time>
      </trkpt>
      <trkpt lat="44.11697" lon="6.89704">
        <ele>1396</ele>
        <time>2013-09-21T12:54:55Z</time>
      </trkpt>
      <trkpt lat="44.11697" lon="6.89699">
        <ele>1397</ele>
        <time>2013-09-21T12:55:02Z</time>
      </trkpt>
      <trkpt lat="44.11691" lon="6.89703">
        <ele>1432</ele>
        <time>2013-09-21T12:58:24Z</time>
      </trkpt>
      <trkpt lat="44.11688" lon="6.89691">
        <ele>1433</ele>
        <time>2013-09-21T12:58:32Z</time>
      </trkpt>
      <trkpt lat="44.11682" lon="6.8968">
        <ele>1434</ele>
        <time>2013-09-21T12:58:46Z</time>
      </trkpt>
      <trkpt lat="44.11681" lon="6.89677">
        <ele>1436</ele>
        <time>2013-09-21T12:59:01Z</time>
      </trkpt>
      <trkpt lat="44.11682" lon="6.89679">
        <ele>1441</ele>
        <time>2013-09-21T12:59:55Z</time>
      </trkpt>
      <trkpt lat="44.11682" lon="6.89679">
        <ele>1443</ele>
        <time>2013-09-21T13:00:16Z</time>
      </trkpt>
      <trkpt lat="44.11677" lon="6.89673">
        <ele>1445</ele>
        <time>2013-09-21T13:00:30Z</time>
      </trkpt>
      <trkpt lat="44.11663" lon="6.89666">
        <ele>1445</ele>
        <time>2013-09-21T13:00:43Z</time>
      </trkpt>
      <trkpt lat="44.11647" lon="6.89654">
        <ele>1446</ele>
        <time>2013-09-21T13:00:57Z</time>
      </trkpt>
      <trkpt lat="44.11639" lon="6.89645">
        <ele>1446</ele>
        <time>2013-09-21T13:01:04Z</time>
      </trkpt>
      <trkpt lat="44.11631" lon="6.89633">
        <ele>1446</ele>
        <time>2013-09-21T13:01:12Z</time>
      </trkpt>
      <trkpt lat="44.11615" lon="6.89614">
        <ele>1447</ele>
        <time>2013-09-21T13:01:28Z</time>
      </trkpt>
      <trkpt lat="44.11601" lon="6.89584">
        <ele>1448</ele>
        <time>2013-09-21T13:01:43Z</time>
      </trkpt>
      <trkpt lat="44.11596" lon="6.89541">
        <ele>1449</ele>
        <time>2013-09-21T13:02:01Z</time>
      </trkpt>
      <trkpt lat="44.1159" lon="6.8953">
        <ele>1452</ele>
        <time>2013-09-21T13:02:49Z</time>
      </trkpt>
      <trkpt lat="44.11572" lon="6.89504">
        <ele>1452</ele>
        <time>2013-09-21T13:02:57Z</time>
      </trkpt>
      <trkpt lat="44.11566" lon="6.89472">
        <ele>1451</ele>
        <time>2013-09-21T13:03:05Z</time>
      </trkpt>
      <trkpt lat="44.11572" lon="6.89461">
        <ele>1451</ele>
        <time>2013-09-21T13:03:09Z</time>
      </trkpt>
      <trkpt lat="44.11586" lon="6.89429">
        <ele>1451</ele>
        <time>2013-09-21T13:03:15Z</time>
      </trkpt>
      <trkpt lat="44.11595" lon="6.89402">
        <ele>1450</ele>
        <time>2013-09-21T13:03:22Z</time>
      </trkpt>
      <trkpt lat="44.11599" lon="6.89389">
        <ele>1450</ele>
        <time>2013-09-21T13:03:26Z</time>
      </trkpt>
      <trkpt lat="44.11608" lon="6.89356">
        <ele>1450</ele>
        <time>2013-09-21T13:03:35Z</time>
      </trkpt>
      <trkpt lat="44.11617" lon="6.89329">
        <ele>1450</ele>
        <time>2013-09-21T13:03:43Z</time>
      </trkpt>
      <trkpt lat="44.11617" lon="6.89314">
        <ele>1450</ele>
        <time>2013-09-21T13:03:48Z</time>
      </trkpt>
      <trkpt lat="44.11621" lon="6.89295">
        <ele>1450</ele>
        <time>2013-09-21T13:03:54Z</time>
      </trkpt>
      <trkpt lat="44.11634" lon="6.89263">
        <ele>1450</ele>
        <time>2013-09-21T13:04:02Z</time>
      </trkpt>
      <trkpt lat="44.11643" lon="6.89251">
        <ele>1450</ele>
        <time>2013-09-21T13:04:10Z</time>
      </trkpt>
      <trkpt lat="44.11649" lon="6.89245">
        <ele>1450</ele>
        <time>2013-09-21T13:04:16Z</time>
      </trkpt>
      <trkpt lat="44.11649" lon="6.89237">
        <ele>1450</ele>
        <time>2013-09-21T13:04:22Z</time>
      </trkpt>
      <trkpt lat="44.11653" lon="6.8923">
        <ele>1452</ele>
        <time>2013-09-21T13:04:37Z</time>
      </trkpt>
      <trkpt lat="44.1165" lon="6.8922">
        <ele>1453</ele>
        <time>2013-09-21T13:04:46Z</time>
      </trkpt>
      <trkpt lat="44.11656" lon="6.8922">
        <ele>1454</ele>
        <time>2013-09-21T13:04:56Z</time>
      </trkpt>
      <trkpt lat="44.11666" lon="6.89226">
        <ele>1455</ele>
        <time>2013-09-21T13:05:11Z</time>
      </trkpt>
      <trkpt lat="44.1167" lon="6.89226">
        <ele>1456</ele>
        <time>2013-09-21T13:05:25Z</time>
      </trkpt>
      <trkpt lat="44.11678" lon="6.89224">
        <ele>1457</ele>
        <time>2013-09-21T13:05:36Z</time>
      </trkpt>
      <trkpt lat="44.11679" lon="6.89218">
        <ele>1457</ele>
        <time>2013-09-21T13:05:48Z</time>
      </trkpt>
      <trkpt lat="44.11684" lon="6.89213">
        <ele>1459</ele>
        <time>2013-09-21T13:06:03Z</time>
      </trkpt>
      <trkpt lat="44.11682" lon="6.892">
        <ele>1461</ele>
        <time>2013-09-21T13:06:19Z</time>
      </trkpt>
      <trkpt lat="44.11675" lon="6.8919">
        <ele>1463</ele>
        <time>2013-09-21T13:06:32Z</time>
      </trkpt>
      <trkpt lat="44.11665" lon="6.89169">
        <ele>1464</ele>
        <time>2013-09-21T13:06:39Z</time>
      </trkpt>
      <trkpt lat="44.11658" lon="6.89159">
        <ele>1464</ele>
        <time>2013-09-21T13:06:42Z</time>
      </trkpt>
      <trkpt lat="44.11644" lon="6.89148">
        <ele>1464</ele>
        <time>2013-09-21T13:06:47Z</time>
      </trkpt>
      <trkpt lat="44.11639" lon="6.89144">
        <ele>1464</ele>
        <time>2013-09-21T13:06:50Z</time>
      </trkpt>
      <trkpt lat="44.11634" lon="6.89142">
        <ele>1464</ele>
        <time>2013-09-21T13:06:53Z</time>
      </trkpt>
      <trkpt lat="44.11621" lon="6.89119">
        <ele>1465</ele>
        <time>2013-09-21T13:07:02Z</time>
      </trkpt>
      <trkpt lat="44.11586" lon="6.89074">
        <ele>1465</ele>
        <time>2013-09-21T13:07:12Z</time>
      </trkpt>
      <trkpt lat="44.11553" lon="6.8904">
        <ele>1465</ele>
        <time>2013-09-21T13:07:20Z</time>
      </trkpt>
      <trkpt lat="44.11536" lon="6.89016">
        <ele>1465</ele>
        <time>2013-09-21T13:07:26Z</time>
      </trkpt>
      <trkpt lat="44.11521" lon="6.88975">
        <ele>1464</ele>
        <time>2013-09-21T13:07:33Z</time>
      </trkpt>
      <trkpt lat="44.11514" lon="6.88946">
        <ele>1464</ele>
        <time>2013-09-21T13:07:38Z</time>
      </trkpt>
      <trkpt lat="44.11511" lon="6.88935">
        <ele>1464</ele>
        <time>2013-09-21T13:07:41Z</time>
      </trkpt>
      <trkpt lat="44.11506" lon="6.8891">
        <ele>1464</ele>
        <time>2013-09-21T13:07:46Z</time>
      </trkpt>
      <trkpt lat="44.11502" lon="6.88882">
        <ele>1463</ele>
        <time>2013-09-21T13:07:53Z</time>
      </trkpt>
      <trkpt lat="44.11504" lon="6.88875">
        <ele>1461</ele>
        <time>2013-09-21T13:11:00Z</time>
      </trkpt>
      <trkpt lat="44.1151" lon="6.88866">
        <ele>1462</ele>
        <time>2013-09-21T13:11:39Z</time>
      </trkpt>
      <trkpt lat="44.11509" lon="6.88853">
        <ele>1462</ele>
        <time>2013-09-21T13:11:42Z</time>
      </trkpt>
      <trkpt lat="44.11523" lon="6.88794">
        <ele>1461</ele>
        <time>2013-09-21T13:11:53Z</time>
      </trkpt>
      <trkpt lat="44.11537" lon="6.88769">
        <ele>1461</ele>
        <time>2013-09-21T13:11:59Z</time>
      </trkpt>
      <trkpt lat="44.1155" lon="6.88746">
        <ele>1461</ele>
        <time>2013-09-21T13:12:06Z</time>
      </trkpt>
      <trkpt lat="44.11549" lon="6.88725">
        <ele>1460</ele>
        <time>2013-09-21T13:12:10Z</time>
      </trkpt>
      <trkpt lat="44.1156" lon="6.88707">
        <ele>1460</ele>
        <time>2013-09-21T13:12:14Z</time>
      </trkpt>
      <trkpt lat="44.11559" lon="6.88693">
        <ele>1460</ele>
        <time>2013-09-21T13:12:20Z</time>
      </trkpt>
      <trkpt lat="44.11554" lon="6.88684">
        <ele>1459</ele>
        <time>2013-09-21T13:12:28Z</time>
      </trkpt>
      <trkpt lat="44.11541" lon="6.88666">
        <ele>1459</ele>
        <time>2013-09-21T13:12:51Z</time>
      </trkpt>
      <trkpt lat="44.11529" lon="6.88651">
        <ele>1459</ele>
        <time>2013-09-21T13:13:09Z</time>
      </trkpt>
      <trkpt lat="44.11522" lon="6.88642">
        <ele>1459</ele>
        <time>2013-09-21T13:13:25Z</time>
      </trkpt>
      <trkpt lat="44.11516" lon="6.88641">
        <ele>1459</ele>
        <time>2013-09-21T13:13:30Z</time>
      </trkpt>
      <trkpt lat="44.11508" lon="6.88644">
        <ele>1459</ele>
        <time>2013-09-21T13:13:36Z</time>
      </trkpt>
      <trkpt lat="44.11489" lon="6.88645">
        <ele>1459</ele>
        <time>2013-09-21T13:13:48Z</time>
      </trkpt>
      <trkpt lat="44.11467" lon="6.88644">
        <ele>1460</ele>
        <time>2013-09-21T13:14:01Z</time>
      </trkpt>
      <trkpt lat="44.1146" lon="6.88642">
        <ele>1460</ele>
        <time>2013-09-21T13:14:06Z</time>
      </trkpt>
      <trkpt lat="44.11451" lon="6.88641">
        <ele>1460</ele>
        <time>2013-09-21T13:14:12Z</time>
      </trkpt>
      <trkpt lat="44.11444" lon="6.88639">
        <ele>1460</ele>
        <time>2013-09-21T13:14:17Z</time>
      </trkpt>
      <trkpt lat="44.11433" lon="6.88635">
        <ele>1460</ele>
        <time>2013-09-21T13:14:24Z</time>
      </trkpt>
      <trkpt lat="44.11416" lon="6.88625">
        <ele>1461</ele>
        <time>2013-09-21T13:14:36Z</time>
      </trkpt>
      <trkpt lat="44.11408" lon="6.88622">
        <ele>1462</ele>
        <time>2013-09-21T13:14:42Z</time>
      </trkpt>
      <trkpt lat="44.11395" lon="6.88617">
        <ele>1463</ele>
        <time>2013-09-21T13:14:53Z</time>
      </trkpt>
      <trkpt lat="44.11388" lon="6.88613">
        <ele>1464</ele>
        <time>2013-09-21T13:14:58Z</time>
      </trkpt>
      <trkpt lat="44.1138" lon="6.88613">
        <ele>1465</ele>
        <time>2013-09-21T13:15:03Z</time>
      </trkpt>
      <trkpt lat="44.1137" lon="6.88613">
        <ele>1465</ele>
        <time>2013-09-21T13:15:08Z</time>
      </trkpt>
      <trkpt lat="44.11351" lon="6.88613">
        <ele>1466</ele>
        <time>2013-09-21T13:15:19Z</time>
      </trkpt>
      <trkpt lat="44.11344" lon="6.88611">
        <ele>1466</ele>
        <time>2013-09-21T13:15:23Z</time>
      </trkpt>
      <trkpt lat="44.11322" lon="6.88606">
        <ele>1468</ele>
        <time>2013-09-21T13:15:34Z</time>
      </trkpt>
      <trkpt lat="44.11301" lon="6.88593">
        <ele>1470</ele>
        <time>2013-09-21T13:15:45Z</time>
      </trkpt>
      <trkpt lat="44.11294" lon="6.88586">
        <ele>1470</ele>
        <time>2013-09-21T13:15:49Z</time>
      </trkpt>
      <trkpt lat="44.11267" lon="6.88562">
        <ele>1472</ele>
        <time>2013-09-21T13:16:01Z</time>
      </trkpt>
      <trkpt lat="44.11239" lon="6.88531">
        <ele>1473</ele>
        <time>2013-09-21T13:16:10Z</time>
      </trkpt>
      <trkpt lat="44.11227" lon="6.8848">
        <ele>1473</ele>
        <time>2013-09-21T13:16:18Z</time>
      </trkpt>
      <trkpt lat="44.11227" lon="6.88457">
        <ele>1474</ele>
        <time>2013-09-21T13:16:22Z</time>
      </trkpt>
      <trkpt lat="44.11214" lon="6.88429">
        <ele>1474</ele>
        <time>2013-09-21T13:16:28Z</time>
      </trkpt>
      <trkpt lat="44.11206" lon="6.88417">
        <ele>1474</ele>
        <time>2013-09-21T13:16:31Z</time>
      </trkpt>
      <trkpt lat="44.11198" lon="6.88389">
        <ele>1475</ele>
        <time>2013-09-21T13:16:37Z</time>
      </trkpt>
      <trkpt lat="44.11198" lon="6.88353">
        <ele>1476</ele>
        <time>2013-09-21T13:16:49Z</time>
      </trkpt>
      <trkpt lat="44.11197" lon="6.88316">
        <ele>1477</ele>
        <time>2013-09-21T13:17:02Z</time>
      </trkpt>
      <trkpt lat="44.11196" lon="6.88282">
        <ele>1478</ele>
        <time>2013-09-21T13:17:19Z</time>
      </trkpt>
      <trkpt lat="44.11195" lon="6.88256">
        <ele>1479</ele>
        <time>2013-09-21T13:17:31Z</time>
      </trkpt>
      <trkpt lat="44.11192" lon="6.8823">
        <ele>1480</ele>
        <time>2013-09-21T13:17:44Z</time>
      </trkpt>
      <trkpt lat="44.11195" lon="6.88204">
        <ele>1482</ele>
        <time>2013-09-21T13:17:57Z</time>
      </trkpt>
      <trkpt lat="44.112" lon="6.88176">
        <ele>1484</ele>
        <time>2013-09-21T13:18:12Z</time>
      </trkpt>
      <trkpt lat="44.112" lon="6.88158">
        <ele>1486</ele>
        <time>2013-09-21T13:18:22Z</time>
      </trkpt>
      <trkpt lat="44.11208" lon="6.88128">
        <ele>1488</ele>
        <time>2013-09-21T13:18:38Z</time>
      </trkpt>
      <trkpt lat="44.11213" lon="6.88118">
        <ele>1489</ele>
        <time>2013-09-21T13:18:50Z</time>
      </trkpt>
      <trkpt lat="44.11213" lon="6.88117">
        <ele>1490</ele>
        <time>2013-09-21T13:18:58Z</time>
      </trkpt>
      <trkpt lat="44.11213" lon="6.88114">
        <ele>1494</ele>
        <time>2013-09-21T13:31:49Z</time>
      </trkpt>
      <trkpt lat="44.11226" lon="6.88079">
        <ele>1494</ele>
        <time>2013-09-21T13:31:59Z</time>
      </trkpt>
      <trkpt lat="44.11239" lon="6.8806">
        <ele>1494</ele>
        <time>2013-09-21T13:32:03Z</time>
      </trkpt>
      <trkpt lat="44.11271" lon="6.88015">
        <ele>1494</ele>
        <time>2013-09-21T13:32:10Z</time>
      </trkpt>
      <trkpt lat="44.11295" lon="6.8799">
        <ele>1494</ele>
        <time>2013-09-21T13:32:14Z</time>
      </trkpt>
      <trkpt lat="44.11325" lon="6.87963">
        <ele>1494</ele>
        <time>2013-09-21T13:32:19Z</time>
      </trkpt>
      <trkpt lat="44.11351" lon="6.8796">
        <ele>1493</ele>
        <time>2013-09-21T13:32:23Z</time>
      </trkpt>
      <trkpt lat="44.1139" lon="6.87959">
        <ele>1493</ele>
        <time>2013-09-21T13:32:29Z</time>
      </trkpt>
      <trkpt lat="44.11416" lon="6.87976">
        <ele>1492</ele>
        <time>2013-09-21T13:32:34Z</time>
      </trkpt>
      <trkpt lat="44.11436" lon="6.87992">
        <ele>1492</ele>
        <time>2013-09-21T13:32:39Z</time>
      </trkpt>
      <trkpt lat="44.11446" lon="6.87993">
        <ele>1491</ele>
        <time>2013-09-21T13:32:43Z</time>
      </trkpt>
      <trkpt lat="44.11457" lon="6.87996">
        <ele>1491</ele>
        <time>2013-09-21T13:32:47Z</time>
      </trkpt>
      <trkpt lat="44.11464" lon="6.87994">
        <ele>1490</ele>
        <time>2013-09-21T13:32:51Z</time>
      </trkpt>
      <trkpt lat="44.11485" lon="6.87988">
        <ele>1489</ele>
        <time>2013-09-21T13:32:58Z</time>
      </trkpt>
      <trkpt lat="44.11501" lon="6.87989">
        <ele>1488</ele>
        <time>2013-09-21T13:33:02Z</time>
      </trkpt>
      <trkpt lat="44.11517" lon="6.87987">
        <ele>1487</ele>
        <time>2013-09-21T13:33:07Z</time>
      </trkpt>
      <trkpt lat="44.11529" lon="6.87986">
        <ele>1487</ele>
        <time>2013-09-21T13:33:11Z</time>
      </trkpt>
      <trkpt lat="44.11548" lon="6.87989">
        <ele>1486</ele>
        <time>2013-09-21T13:33:15Z</time>
      </trkpt>
      <trkpt lat="44.11583" lon="6.88011">
        <ele>1484</ele>
        <time>2013-09-21T13:33:23Z</time>
      </trkpt>
      <trkpt lat="44.116" lon="6.88027">
        <ele>1482</ele>
        <time>2013-09-21T13:33:28Z</time>
      </trkpt>
      <trkpt lat="44.11617" lon="6.88035">
        <ele>1481</ele>
        <time>2013-09-21T13:33:32Z</time>
      </trkpt>
      <trkpt lat="44.11638" lon="6.88051">
        <ele>1480</ele>
        <time>2013-09-21T13:33:37Z</time>
      </trkpt>
      <trkpt lat="44.11644" lon="6.88058">
        <ele>1478</ele>
        <time>2013-09-21T13:33:41Z</time>
      </trkpt>
      <trkpt lat="44.11653" lon="6.88064">
        <ele>1472</ele>
        <time>2013-09-21T13:34:03Z</time>
      </trkpt>
      <trkpt lat="44.11678" lon="6.88062">
        <ele>1469</ele>
        <time>2013-09-21T13:34:12Z</time>
      </trkpt>
      <trkpt lat="44.1169" lon="6.88066">
        <ele>1467</ele>
        <time>2013-09-21T13:34:17Z</time>
      </trkpt>
      <trkpt lat="44.117" lon="6.88067">
        <ele>1465</ele>
        <time>2013-09-21T13:34:21Z</time>
      </trkpt>
      <trkpt lat="44.11704" lon="6.88061">
        <ele>1464</ele>
        <time>2013-09-21T13:34:25Z</time>
      </trkpt>
      <trkpt lat="44.11681" lon="6.88033">
        <ele>1461</ele>
        <time>2013-09-21T13:34:33Z</time>
      </trkpt>
      <trkpt lat="44.11676" lon="6.88017">
        <ele>1459</ele>
        <time>2013-09-21T13:34:39Z</time>
      </trkpt>
      <trkpt lat="44.11688" lon="6.88016">
        <ele>1458</ele>
        <time>2013-09-21T13:34:43Z</time>
      </trkpt>
      <trkpt lat="44.11716" lon="6.88013">
        <ele>1455</ele>
        <time>2013-09-21T13:34:50Z</time>
      </trkpt>
      <trkpt lat="44.11721" lon="6.8801">
        <ele>1454</ele>
        <time>2013-09-21T13:34:53Z</time>
      </trkpt>
      <trkpt lat="44.1172" lon="6.87998">
        <ele>1452</ele>
        <time>2013-09-21T13:34:58Z</time>
      </trkpt>
      <trkpt lat="44.11721" lon="6.87996">
        <ele>1451</ele>
        <time>2013-09-21T13:35:01Z</time>
      </trkpt>
      <trkpt lat="44.1172" lon="6.87994">
        <ele>1444</ele>
        <time>2013-09-21T13:35:23Z</time>
      </trkpt>
      <trkpt lat="44.11715" lon="6.87982">
        <ele>1443</ele>
        <time>2013-09-21T13:35:27Z</time>
      </trkpt>
      <trkpt lat="44.11707" lon="6.87973">
        <ele>1441</ele>
        <time>2013-09-21T13:35:31Z</time>
      </trkpt>
      <trkpt lat="44.11686" lon="6.87948">
        <ele>1439</ele>
        <time>2013-09-21T13:35:37Z</time>
      </trkpt>
      <trkpt lat="44.11676" lon="6.87937">
        <ele>1438</ele>
        <time>2013-09-21T13:35:41Z</time>
      </trkpt>
      <trkpt lat="44.11684" lon="6.87929">
        <ele>1436</ele>
        <time>2013-09-21T13:35:46Z</time>
      </trkpt>
      <trkpt lat="44.11694" lon="6.87927">
        <ele>1434</ele>
        <time>2013-09-21T13:35:50Z</time>
      </trkpt>
      <trkpt lat="44.11698" lon="6.8793">
        <ele>1429</ele>
        <time>2013-09-21T13:36:01Z</time>
      </trkpt>
      <trkpt lat="44.11695" lon="6.87921">
        <ele>1425</ele>
        <time>2013-09-21T13:36:11Z</time>
      </trkpt>
      <trkpt lat="44.11681" lon="6.8791">
        <ele>1422</ele>
        <time>2013-09-21T13:36:18Z</time>
      </trkpt>
      <trkpt lat="44.11684" lon="6.87905">
        <ele>1418</ele>
        <time>2013-09-21T13:36:26Z</time>
      </trkpt>
      <trkpt lat="44.1169" lon="6.87904">
        <ele>1415</ele>
        <time>2013-09-21T13:36:32Z</time>
      </trkpt>
      <trkpt lat="44.11689" lon="6.87896">
        <ele>1410</ele>
        <time>2013-09-21T13:36:42Z</time>
      </trkpt>
      <trkpt lat="44.11693" lon="6.87895">
        <ele>1409</ele>
        <time>2013-09-21T13:36:46Z</time>
      </trkpt>
      <trkpt lat="44.11702" lon="6.87901">
        <ele>1404</ele>
        <time>2013-09-21T13:36:55Z</time>
      </trkpt>
      <trkpt lat="44.11706" lon="6.87901">
        <ele>1402</ele>
        <time>2013-09-21T13:37:01Z</time>
      </trkpt>
      <trkpt lat="44.1171" lon="6.87899">
        <ele>1398</ele>
        <time>2013-09-21T13:37:09Z</time>
      </trkpt>
      <trkpt lat="44.1172" lon="6.87897">
        <ele>1394</ele>
        <time>2013-09-21T13:37:17Z</time>
      </trkpt>
      <trkpt lat="44.11725" lon="6.87902">
        <ele>1391</ele>
        <time>2013-09-21T13:37:24Z</time>
      </trkpt>
      <trkpt lat="44.11734" lon="6.87906">
        <ele>1387</ele>
        <time>2013-09-21T13:37:34Z</time>
      </trkpt>
      <trkpt lat="44.1175" lon="6.87912">
        <ele>1385</ele>
        <time>2013-09-21T13:37:40Z</time>
      </trkpt>
      <trkpt lat="44.11759" lon="6.87913">
        <ele>1382</ele>
        <time>2013-09-21T13:37:45Z</time>
      </trkpt>
      <trkpt lat="44.11774" lon="6.87917">
        <ele>1380</ele>
        <time>2013-09-21T13:37:52Z</time>
      </trkpt>
      <trkpt lat="44.1178" lon="6.87917">
        <ele>1378</ele>
        <time>2013-09-21T13:37:57Z</time>
      </trkpt>
      <trkpt lat="44.11782" lon="6.87914">
        <ele>1372</ele>
        <time>2013-09-21T13:38:14Z</time>
      </trkpt>
      <trkpt lat="44.11782" lon="6.87913">
        <ele>1366</ele>
        <time>2013-09-21T13:38:33Z</time>
      </trkpt>
      <trkpt lat="44.11779" lon="6.87903">
        <ele>1364</ele>
        <time>2013-09-21T13:38:42Z</time>
      </trkpt>
      <trkpt lat="44.11783" lon="6.87902">
        <ele>1363</ele>
        <time>2013-09-21T13:38:48Z</time>
      </trkpt>
      <trkpt lat="44.11784" lon="6.87903">
        <ele>1362</ele>
        <time>2013-09-21T13:38:51Z</time>
      </trkpt>
      <trkpt lat="44.11787" lon="6.87901">
        <ele>1361</ele>
        <time>2013-09-21T13:39:01Z</time>
      </trkpt>
      <trkpt lat="44.11791" lon="6.87907">
        <ele>1360</ele>
        <time>2013-09-21T13:39:08Z</time>
      </trkpt>
      <trkpt lat="44.11797" lon="6.8791">
        <ele>1358</ele>
        <time>2013-09-21T13:39:20Z</time>
      </trkpt>
      <trkpt lat="44.118" lon="6.87906">
        <ele>1357</ele>
        <time>2013-09-21T13:39:30Z</time>
      </trkpt>
      <trkpt lat="44.11803" lon="6.87902">
        <ele>1356</ele>
        <time>2013-09-21T13:39:43Z</time>
      </trkpt>
      <trkpt lat="44.11802" lon="6.87888">
        <ele>1355</ele>
        <time>2013-09-21T13:39:58Z</time>
      </trkpt>
      <trkpt lat="44.11806" lon="6.87879">
        <ele>1354</ele>
        <time>2013-09-21T13:40:10Z</time>
      </trkpt>
      <trkpt lat="44.11813" lon="6.87886">
        <ele>1354</ele>
        <time>2013-09-21T13:40:20Z</time>
      </trkpt>
      <trkpt lat="44.11815" lon="6.87889">
        <ele>1354</ele>
        <time>2013-09-21T13:40:25Z</time>
      </trkpt>
      <trkpt lat="44.11818" lon="6.87893">
        <ele>1354</ele>
        <time>2013-09-21T13:40:31Z</time>
      </trkpt>
      <trkpt lat="44.11827" lon="6.87895">
        <ele>1354</ele>
        <time>2013-09-21T13:40:47Z</time>
      </trkpt>
      <trkpt lat="44.11831" lon="6.87888">
        <ele>1356</ele>
        <time>2013-09-21T13:41:04Z</time>
      </trkpt>
      <trkpt lat="44.11834" lon="6.87876">
        <ele>1358</ele>
        <time>2013-09-21T13:41:21Z</time>
      </trkpt>
      <trkpt lat="44.11826" lon="6.87849">
        <ele>1360</ele>
        <time>2013-09-21T13:41:34Z</time>
      </trkpt>
      <trkpt lat="44.1181" lon="6.87814">
        <ele>1363</ele>
        <time>2013-09-21T13:41:50Z</time>
      </trkpt>
      <trkpt lat="44.11811" lon="6.87812">
        <ele>1364</ele>
        <time>2013-09-21T13:42:02Z</time>
      </trkpt>
      <trkpt lat="44.11813" lon="6.87812">
        <ele>1365</ele>
        <time>2013-09-21T13:42:43Z</time>
      </trkpt>
      <trkpt lat="44.11816" lon="6.87813">
        <ele>1366</ele>
        <time>2013-09-21T13:43:23Z</time>
      </trkpt>
      <trkpt lat="44.11819" lon="6.87813">
        <ele>1369</ele>
        <time>2013-09-21T13:44:17Z</time>
      </trkpt>
      <trkpt lat="44.11819" lon="6.87808">
        <ele>1368</ele>
        <time>2013-09-21T13:46:38Z</time>
      </trkpt>
      <trkpt lat="44.118" lon="6.8769">
        <ele>1372</ele>
        <time>2013-09-21T13:50:34Z</time>
      </trkpt>
      <trkpt lat="44.11795" lon="6.87681">
        <ele>1373</ele>
        <time>2013-09-21T13:50:46Z</time>
      </trkpt>
      <trkpt lat="44.11789" lon="6.87673">
        <ele>1374</ele>
        <time>2013-09-21T13:50:57Z</time>
      </trkpt>
      <trkpt lat="44.11781" lon="6.87657">
        <ele>1376</ele>
        <time>2013-09-21T13:51:12Z</time>
      </trkpt>
      <trkpt lat="44.11781" lon="6.87637">
        <ele>1378</ele>
        <time>2013-09-21T13:51:28Z</time>
      </trkpt>
      <trkpt lat="44.11781" lon="6.8761">
        <ele>1380</ele>
        <time>2013-09-21T13:51:49Z</time>
      </trkpt>
      <trkpt lat="44.11784" lon="6.87592">
        <ele>1383</ele>
        <time>2013-09-21T13:52:05Z</time>
      </trkpt>
      <trkpt lat="44.11791" lon="6.87581">
        <ele>1384</ele>
        <time>2013-09-21T13:52:13Z</time>
      </trkpt>
      <trkpt lat="44.11785" lon="6.87575">
        <ele>1385</ele>
        <time>2013-09-21T13:52:18Z</time>
      </trkpt>
      <trkpt lat="44.11784" lon="6.87574">
        <ele>1386</ele>
        <time>2013-09-21T13:52:33Z</time>
      </trkpt>
      <trkpt lat="44.11772" lon="6.87564">
        <ele>1387</ele>
        <time>2013-09-21T13:52:42Z</time>
      </trkpt>
      <trkpt lat="44.11761" lon="6.87549">
        <ele>1387</ele>
        <time>2013-09-21T13:52:49Z</time>
      </trkpt>
      <trkpt lat="44.1176" lon="6.87541">
        <ele>1387</ele>
        <time>2013-09-21T13:52:55Z</time>
      </trkpt>
      <trkpt lat="44.11763" lon="6.87542">
        <ele>1388</ele>
        <time>2013-09-21T13:53:01Z</time>
      </trkpt>
      <trkpt lat="44.11777" lon="6.87557">
        <ele>1389</ele>
        <time>2013-09-21T13:53:19Z</time>
      </trkpt>
      <trkpt lat="44.11782" lon="6.87555">
        <ele>1390</ele>
        <time>2013-09-21T13:53:27Z</time>
      </trkpt>
      <trkpt lat="44.11782" lon="6.87537">
        <ele>1393</ele>
        <time>2013-09-21T13:53:47Z</time>
      </trkpt>
      <trkpt lat="44.11784" lon="6.87516">
        <ele>1395</ele>
        <time>2013-09-21T13:54:05Z</time>
      </trkpt>
      <trkpt lat="44.11791" lon="6.87499">
        <ele>1398</ele>
        <time>2013-09-21T13:54:27Z</time>
      </trkpt>
      <trkpt lat="44.11792" lon="6.87489">
        <ele>1400</ele>
        <time>2013-09-21T13:54:40Z</time>
      </trkpt>
      <trkpt lat="44.11791" lon="6.87465">
        <ele>1401</ele>
        <time>2013-09-21T13:54:51Z</time>
      </trkpt>
      <trkpt lat="44.11793" lon="6.87424">
        <ele>1403</ele>
        <time>2013-09-21T13:55:04Z</time>
      </trkpt>
      <trkpt lat="44.11778" lon="6.87377">
        <ele>1404</ele>
        <time>2013-09-21T13:55:18Z</time>
      </trkpt>
      <trkpt lat="44.11758" lon="6.87337">
        <ele>1405</ele>
        <time>2013-09-21T13:55:32Z</time>
      </trkpt>
      <trkpt lat="44.11755" lon="6.873">
        <ele>1406</ele>
        <time>2013-09-21T13:55:44Z</time>
      </trkpt>
      <trkpt lat="44.11757" lon="6.87292">
        <ele>1407</ele>
        <time>2013-09-21T13:55:47Z</time>
      </trkpt>
      <trkpt lat="44.11746" lon="6.87286">
        <ele>1407</ele>
        <time>2013-09-21T13:55:52Z</time>
      </trkpt>
      <trkpt lat="44.11732" lon="6.87257">
        <ele>1407</ele>
        <time>2013-09-21T13:56:00Z</time>
      </trkpt>
      <trkpt lat="44.11736" lon="6.87212">
        <ele>1408</ele>
        <time>2013-09-21T13:56:10Z</time>
      </trkpt>
      <trkpt lat="44.11744" lon="6.87171">
        <ele>1409</ele>
        <time>2013-09-21T13:56:19Z</time>
      </trkpt>
      <trkpt lat="44.11758" lon="6.87136">
        <ele>1409</ele>
        <time>2013-09-21T13:56:25Z</time>
      </trkpt>
      <trkpt lat="44.11768" lon="6.87122">
        <ele>1409</ele>
        <time>2013-09-21T13:56:29Z</time>
      </trkpt>
      <trkpt lat="44.11789" lon="6.87085">
        <ele>1409</ele>
        <time>2013-09-21T13:56:41Z</time>
      </trkpt>
      <trkpt lat="44.11825" lon="6.87063">
        <ele>1410</ele>
        <time>2013-09-21T13:56:57Z</time>
      </trkpt>
      <trkpt lat="44.11863" lon="6.87047">
        <ele>1412</ele>
        <time>2013-09-21T13:57:14Z</time>
      </trkpt>
      <trkpt lat="44.11898" lon="6.87035">
        <ele>1415</ele>
        <time>2013-09-21T13:57:31Z</time>
      </trkpt>
      <trkpt lat="44.11914" lon="6.87038">
        <ele>1416</ele>
        <time>2013-09-21T13:57:43Z</time>
      </trkpt>
      <trkpt lat="44.11918" lon="6.87037">
        <ele>1417</ele>
        <time>2013-09-21T13:57:47Z</time>
      </trkpt>
      <trkpt lat="44.11921" lon="6.87037">
        <ele>1418</ele>
        <time>2013-09-21T13:58:20Z</time>
      </trkpt>
      <trkpt lat="44.11946" lon="6.87033">
        <ele>1418</ele>
        <time>2013-09-21T13:58:35Z</time>
      </trkpt>
      <trkpt lat="44.11971" lon="6.87047">
        <ele>1418</ele>
        <time>2013-09-21T13:58:42Z</time>
      </trkpt>
      <trkpt lat="44.12006" lon="6.87078">
        <ele>1418</ele>
        <time>2013-09-21T13:58:50Z</time>
      </trkpt>
      <trkpt lat="44.12016" lon="6.87075">
        <ele>1417</ele>
        <time>2013-09-21T13:58:52Z</time>
      </trkpt>
      <trkpt lat="44.1206" lon="6.87094">
        <ele>1417</ele>
        <time>2013-09-21T13:59:00Z</time>
      </trkpt>
      <trkpt lat="44.12075" lon="6.87095">
        <ele>1416</ele>
        <time>2013-09-21T13:59:07Z</time>
      </trkpt>
      <trkpt lat="44.12078" lon="6.87087">
        <ele>1416</ele>
        <time>2013-09-21T13:59:10Z</time>
      </trkpt>
      <trkpt lat="44.12077" lon="6.87058">
        <ele>1415</ele>
        <time>2013-09-21T13:59:17Z</time>
      </trkpt>
      <trkpt lat="44.12077" lon="6.87027">
        <ele>1414</ele>
        <time>2013-09-21T13:59:27Z</time>
      </trkpt>
      <trkpt lat="44.1207" lon="6.86994">
        <ele>1413</ele>
        <time>2013-09-21T13:59:41Z</time>
      </trkpt>
      <trkpt lat="44.1207" lon="6.86959">
        <ele>1413</ele>
        <time>2013-09-21T13:59:49Z</time>
      </trkpt>
      <trkpt lat="44.12072" lon="6.86929">
        <ele>1413</ele>
        <time>2013-09-21T13:59:58Z</time>
      </trkpt>
      <trkpt lat="44.12099" lon="6.86899">
        <ele>1412</ele>
        <time>2013-09-21T14:00:12Z</time>
      </trkpt>
      <trkpt lat="44.12108" lon="6.86887">
        <ele>1412</ele>
        <time>2013-09-21T14:00:18Z</time>
      </trkpt>
      <trkpt lat="44.12116" lon="6.86868">
        <ele>1412</ele>
        <time>2013-09-21T14:00:28Z</time>
      </trkpt>
      <trkpt lat="44.12114" lon="6.86861">
        <ele>1412</ele>
        <time>2013-09-21T14:00:34Z</time>
      </trkpt>
      <trkpt lat="44.12112" lon="6.86857">
        <ele>1412</ele>
        <time>2013-09-21T14:00:37Z</time>
      </trkpt>
      <trkpt lat="44.12107" lon="6.86853">
        <ele>1412</ele>
        <time>2013-09-21T14:00:41Z</time>
      </trkpt>
      <trkpt lat="44.12091" lon="6.86838">
        <ele>1412</ele>
        <time>2013-09-21T14:00:53Z</time>
      </trkpt>
      <trkpt lat="44.12071" lon="6.86803">
        <ele>1413</ele>
        <time>2013-09-21T14:01:11Z</time>
      </trkpt>
      <trkpt lat="44.12063" lon="6.8676">
        <ele>1414</ele>
        <time>2013-09-21T14:01:25Z</time>
      </trkpt>
      <trkpt lat="44.12084" lon="6.86723">
        <ele>1415</ele>
        <time>2013-09-21T14:01:42Z</time>
      </trkpt>
      <trkpt lat="44.12089" lon="6.86726">
        <ele>1415</ele>
        <time>2013-09-21T14:01:45Z</time>
      </trkpt>
      <trkpt lat="44.12085" lon="6.86717">
        <ele>1434</ele>
        <time>2013-09-21T14:07:29Z</time>
      </trkpt>
      <trkpt lat="44.12093" lon="6.86695">
        <ele>1434</ele>
        <time>2013-09-21T14:07:37Z</time>
      </trkpt>
      <trkpt lat="44.12099" lon="6.86681">
        <ele>1434</ele>
        <time>2013-09-21T14:07:45Z</time>
      </trkpt>
      <trkpt lat="44.12095" lon="6.86664">
        <ele>1433</ele>
        <time>2013-09-21T14:07:58Z</time>
      </trkpt>
      <trkpt lat="44.12091" lon="6.86657">
        <ele>1433</ele>
        <time>2013-09-21T14:08:04Z</time>
      </trkpt>
      <trkpt lat="44.12086" lon="6.86647">
        <ele>1433</ele>
        <time>2013-09-21T14:08:12Z</time>
      </trkpt>
      <trkpt lat="44.1208" lon="6.86623">
        <ele>1432</ele>
        <time>2013-09-21T14:08:28Z</time>
      </trkpt>
      <trkpt lat="44.12071" lon="6.86588">
        <ele>1432</ele>
        <time>2013-09-21T14:08:46Z</time>
      </trkpt>
      <trkpt lat="44.12051" lon="6.86553">
        <ele>1431</ele>
        <time>2013-09-21T14:08:58Z</time>
      </trkpt>
      <trkpt lat="44.12011" lon="6.8652">
        <ele>1431</ele>
        <time>2013-09-21T14:09:13Z</time>
      </trkpt>
      <trkpt lat="44.11989" lon="6.86499">
        <ele>1431</ele>
        <time>2013-09-21T14:09:22Z</time>
      </trkpt>
      <trkpt lat="44.1199" lon="6.86495">
        <ele>1431</ele>
        <time>2013-09-21T14:09:26Z</time>
      </trkpt>
      <trkpt lat="44.11975" lon="6.8648">
        <ele>1430</ele>
        <time>2013-09-21T14:09:36Z</time>
      </trkpt>
      <trkpt lat="44.11973" lon="6.86464">
        <ele>1430</ele>
        <time>2013-09-21T14:09:41Z</time>
      </trkpt>
      <trkpt lat="44.11977" lon="6.86456">
        <ele>1430</ele>
        <time>2013-09-21T14:09:47Z</time>
      </trkpt>
      <trkpt lat="44.11978" lon="6.86447">
        <ele>1429</ele>
        <time>2013-09-21T14:11:55Z</time>
      </trkpt>
      <trkpt lat="44.11979" lon="6.86393">
        <ele>1428</ele>
        <time>2013-09-21T14:12:05Z</time>
      </trkpt>
      <trkpt lat="44.11987" lon="6.86348">
        <ele>1428</ele>
        <time>2013-09-21T14:12:11Z</time>
      </trkpt>
      <trkpt lat="44.11995" lon="6.86308">
        <ele>1428</ele>
        <time>2013-09-21T14:12:16Z</time>
      </trkpt>
      <trkpt lat="44.12004" lon="6.86283">
        <ele>1427</ele>
        <time>2013-09-21T14:12:21Z</time>
      </trkpt>
      <trkpt lat="44.12019" lon="6.86256">
        <ele>1427</ele>
        <time>2013-09-21T14:12:29Z</time>
      </trkpt>
      <trkpt lat="44.1202" lon="6.8622">
        <ele>1426</ele>
        <time>2013-09-21T14:12:38Z</time>
      </trkpt>
      <trkpt lat="44.12022" lon="6.86195">
        <ele>1426</ele>
        <time>2013-09-21T14:12:42Z</time>
      </trkpt>
      <trkpt lat="44.1203" lon="6.8619">
        <ele>1425</ele>
        <time>2013-09-21T14:12:49Z</time>
      </trkpt>
      <trkpt lat="44.12059" lon="6.86187">
        <ele>1423</ele>
        <time>2013-09-21T14:13:13Z</time>
      </trkpt>
      <trkpt lat="44.12075" lon="6.86169">
        <ele>1423</ele>
        <time>2013-09-21T14:13:16Z</time>
      </trkpt>
      <trkpt lat="44.12084" lon="6.86122">
        <ele>1422</ele>
        <time>2013-09-21T14:13:20Z</time>
      </trkpt>
      <trkpt lat="44.12119" lon="6.86019">
        <ele>1421</ele>
        <time>2013-09-21T14:13:30Z</time>
      </trkpt>
      <trkpt lat="44.1213" lon="6.85998">
        <ele>1420</ele>
        <time>2013-09-21T14:13:33Z</time>
      </trkpt>
      <trkpt lat="44.12139" lon="6.85986">
        <ele>1420</ele>
        <time>2013-09-21T14:13:37Z</time>
      </trkpt>
      <trkpt lat="44.12141" lon="6.85982">
        <ele>1414</ele>
        <time>2013-09-21T14:14:13Z</time>
      </trkpt>
      <trkpt lat="44.12171" lon="6.85957">
        <ele>1413</ele>
        <time>2013-09-21T14:14:20Z</time>
      </trkpt>
      <trkpt lat="44.1218" lon="6.85937">
        <ele>1412</ele>
        <time>2013-09-21T14:14:24Z</time>
      </trkpt>
      <trkpt lat="44.1219" lon="6.85931">
        <ele>1411</ele>
        <time>2013-09-21T14:14:27Z</time>
      </trkpt>
      <trkpt lat="44.12214" lon="6.85925">
        <ele>1409</ele>
        <time>2013-09-21T14:14:33Z</time>
      </trkpt>
      <trkpt lat="44.12212" lon="6.85921">
        <ele>1408</ele>
        <time>2013-09-21T14:14:37Z</time>
      </trkpt>
      <trkpt lat="44.122" lon="6.85902">
        <ele>1406</ele>
        <time>2013-09-21T14:14:43Z</time>
      </trkpt>
      <trkpt lat="44.1221" lon="6.85903">
        <ele>1405</ele>
        <time>2013-09-21T14:14:46Z</time>
      </trkpt>
      <trkpt lat="44.12238" lon="6.85908">
        <ele>1403</ele>
        <time>2013-09-21T14:14:54Z</time>
      </trkpt>
      <trkpt lat="44.12238" lon="6.85888">
        <ele>1401</ele>
        <time>2013-09-21T14:15:02Z</time>
      </trkpt>
      <trkpt lat="44.12238" lon="6.8588">
        <ele>1399</ele>
        <time>2013-09-21T14:15:11Z</time>
      </trkpt>
      <trkpt lat="44.12237" lon="6.85856">
        <ele>1395</ele>
        <time>2013-09-21T14:15:26Z</time>
      </trkpt>
      <trkpt lat="44.1223" lon="6.85849">
        <ele>1394</ele>
        <time>2013-09-21T14:15:35Z</time>
      </trkpt>
      <trkpt lat="44.12225" lon="6.85834">
        <ele>1393</ele>
        <time>2013-09-21T14:15:41Z</time>
      </trkpt>
      <trkpt lat="44.12222" lon="6.85812">
        <ele>1392</ele>
        <time>2013-09-21T14:15:48Z</time>
      </trkpt>
      <trkpt lat="44.12216" lon="6.85798">
        <ele>1391</ele>
        <time>2013-09-21T14:15:53Z</time>
      </trkpt>
      <trkpt lat="44.12198" lon="6.85766">
        <ele>1390</ele>
        <time>2013-09-21T14:16:00Z</time>
      </trkpt>
      <trkpt lat="44.12198" lon="6.85749">
        <ele>1389</ele>
        <time>2013-09-21T14:16:04Z</time>
      </trkpt>
      <trkpt lat="44.12192" lon="6.85734">
        <ele>1387</ele>
        <time>2013-09-21T14:16:13Z</time>
      </trkpt>
      <trkpt lat="44.12194" lon="6.85723">
        <ele>1386</ele>
        <time>2013-09-21T14:16:19Z</time>
      </trkpt>
      <trkpt lat="44.12198" lon="6.85716">
        <ele>1384</ele>
        <time>2013-09-21T14:16:28Z</time>
      </trkpt>
      <trkpt lat="44.12208" lon="6.85688">
        <ele>1382</ele>
        <time>2013-09-21T14:16:37Z</time>
      </trkpt>
      <trkpt lat="44.12222" lon="6.85684">
        <ele>1381</ele>
        <time>2013-09-21T14:16:41Z</time>
      </trkpt>
      <trkpt lat="44.12225" lon="6.85676">
        <ele>1380</ele>
        <time>2013-09-21T14:16:43Z</time>
      </trkpt>
      <trkpt lat="44.1222" lon="6.85651">
        <ele>1379</ele>
        <time>2013-09-21T14:16:52Z</time>
      </trkpt>
      <trkpt lat="44.12212" lon="6.85641">
        <ele>1378</ele>
        <time>2013-09-21T14:16:56Z</time>
      </trkpt>
      <trkpt lat="44.12209" lon="6.85634">
        <ele>1374</ele>
        <time>2013-09-21T14:17:20Z</time>
      </trkpt>
      <trkpt lat="44.12078" lon="6.85659">
        <ele>1359</ele>
        <time>2013-09-21T14:29:42Z</time>
      </trkpt>
      <trkpt lat="44.12066" lon="6.85662">
        <ele>1359</ele>
        <time>2013-09-21T14:29:48Z</time>
      </trkpt>
      <trkpt lat="44.1203" lon="6.85655">
        <ele>1358</ele>
        <time>2013-09-21T14:29:56Z</time>
      </trkpt>
      <trkpt lat="44.12014" lon="6.8564">
        <ele>1357</ele>
        <time>2013-09-21T14:30:00Z</time>
      </trkpt>
      <trkpt lat="44.12" lon="6.85645">
        <ele>1357</ele>
        <time>2013-09-21T14:30:04Z</time>
      </trkpt>
      <trkpt lat="44.11974" lon="6.85656">
        <ele>1356</ele>
        <time>2013-09-21T14:30:11Z</time>
      </trkpt>
      <trkpt lat="44.11951" lon="6.85657">
        <ele>1356</ele>
        <time>2013-09-21T14:30:18Z</time>
      </trkpt>
      <trkpt lat="44.11937" lon="6.85657">
        <ele>1355</ele>
        <time>2013-09-21T14:30:23Z</time>
      </trkpt>
      <trkpt lat="44.11929" lon="6.85654">
        <ele>1355</ele>
        <time>2013-09-21T14:30:27Z</time>
      </trkpt>
      <trkpt lat="44.11917" lon="6.85652">
        <ele>1354</ele>
        <time>2013-09-21T14:30:35Z</time>
      </trkpt>
      <trkpt lat="44.11909" lon="6.85652">
        <ele>1354</ele>
        <time>2013-09-21T14:30:41Z</time>
      </trkpt>
      <trkpt lat="44.11897" lon="6.85654">
        <ele>1354</ele>
        <time>2013-09-21T14:30:48Z</time>
      </trkpt>
      <trkpt lat="44.1188" lon="6.85653">
        <ele>1353</ele>
        <time>2013-09-21T14:31:00Z</time>
      </trkpt>
      <trkpt lat="44.11863" lon="6.85652">
        <ele>1353</ele>
        <time>2013-09-21T14:31:06Z</time>
      </trkpt>
      <trkpt lat="44.1183" lon="6.85643">
        <ele>1353</ele>
        <time>2013-09-21T14:31:16Z</time>
      </trkpt>
      <trkpt lat="44.11795" lon="6.85644">
        <ele>1352</ele>
        <time>2013-09-21T14:31:25Z</time>
      </trkpt>
      <trkpt lat="44.11759" lon="6.85632">
        <ele>1352</ele>
        <time>2013-09-21T14:31:35Z</time>
      </trkpt>
      <trkpt lat="44.1174" lon="6.85625">
        <ele>1351</ele>
        <time>2013-09-21T14:31:41Z</time>
      </trkpt>
      <trkpt lat="44.11703" lon="6.85615">
        <ele>1351</ele>
        <time>2013-09-21T14:31:49Z</time>
      </trkpt>
      <trkpt lat="44.11682" lon="6.85609">
        <ele>1350</ele>
        <time>2013-09-21T14:31:54Z</time>
      </trkpt>
      <trkpt lat="44.11667" lon="6.85598">
        <ele>1350</ele>
        <time>2013-09-21T14:31:58Z</time>
      </trkpt>
      <trkpt lat="44.11645" lon="6.85567">
        <ele>1349</ele>
        <time>2013-09-21T14:32:04Z</time>
      </trkpt>
      <trkpt lat="44.11633" lon="6.85549">
        <ele>1348</ele>
        <time>2013-09-21T14:32:09Z</time>
      </trkpt>
      <trkpt lat="44.11625" lon="6.85544">
        <ele>1347</ele>
        <time>2013-09-21T14:32:13Z</time>
      </trkpt>
      <trkpt lat="44.11617" lon="6.85535">
        <ele>1345</ele>
        <time>2013-09-21T14:32:21Z</time>
      </trkpt>
      <trkpt lat="44.11596" lon="6.85495">
        <ele>1343</ele>
        <time>2013-09-21T14:32:31Z</time>
      </trkpt>
      <trkpt lat="44.11576" lon="6.85457">
        <ele>1340</ele>
        <time>2013-09-21T14:32:40Z</time>
      </trkpt>
      <trkpt lat="44.11576" lon="6.85437">
        <ele>1338</ele>
        <time>2013-09-21T14:32:46Z</time>
      </trkpt>
      <trkpt lat="44.11572" lon="6.85437">
        <ele>1337</ele>
        <time>2013-09-21T14:32:50Z</time>
      </trkpt>
      <trkpt lat="44.11574" lon="6.85435">
        <ele>1331</ele>
        <time>2013-09-21T14:33:17Z</time>
      </trkpt>
      <trkpt lat="44.11575" lon="6.8544">
        <ele>1328</ele>
        <time>2013-09-21T14:33:31Z</time>
      </trkpt>
      <trkpt lat="44.11574" lon="6.85441">
        <ele>1323</ele>
        <time>2013-09-21T14:34:02Z</time>
      </trkpt>
      <trkpt lat="44.11563" lon="6.85437">
        <ele>1319</ele>
        <time>2013-09-21T14:34:36Z</time>
      </trkpt>
      <trkpt lat="44.11531" lon="6.85454">
        <ele>1317</ele>
        <time>2013-09-21T14:34:47Z</time>
      </trkpt>
      <trkpt lat="44.11504" lon="6.8546">
        <ele>1316</ele>
        <time>2013-09-21T14:34:55Z</time>
      </trkpt>
      <trkpt lat="44.11464" lon="6.85469">
        <ele>1314</ele>
        <time>2013-09-21T14:35:05Z</time>
      </trkpt>
      <trkpt lat="44.11447" lon="6.85482">
        <ele>1312</ele>
        <time>2013-09-21T14:35:10Z</time>
      </trkpt>
      <trkpt lat="44.11427" lon="6.85497">
        <ele>1309</ele>
        <time>2013-09-21T14:35:21Z</time>
      </trkpt>
      <trkpt lat="44.11419" lon="6.85494">
        <ele>1307</ele>
        <time>2013-09-21T14:35:27Z</time>
      </trkpt>
      <trkpt lat="44.11393" lon="6.85474">
        <ele>1305</ele>
        <time>2013-09-21T14:35:36Z</time>
      </trkpt>
      <trkpt lat="44.11388" lon="6.85465">
        <ele>1301</ele>
        <time>2013-09-21T14:35:49Z</time>
      </trkpt>
      <trkpt lat="44.11392" lon="6.85426">
        <ele>1299</ele>
        <time>2013-09-21T14:35:56Z</time>
      </trkpt>
      <trkpt lat="44.11408" lon="6.85396">
        <ele>1297</ele>
        <time>2013-09-21T14:36:02Z</time>
      </trkpt>
      <trkpt lat="44.11421" lon="6.85385">
        <ele>1295</ele>
        <time>2013-09-21T14:36:06Z</time>
      </trkpt>
      <trkpt lat="44.1142" lon="6.85377">
        <ele>1294</ele>
        <time>2013-09-21T14:36:10Z</time>
      </trkpt>
      <trkpt lat="44.11406" lon="6.85368">
        <ele>1292</ele>
        <time>2013-09-21T14:36:16Z</time>
      </trkpt>
      <trkpt lat="44.11401" lon="6.85366">
        <ele>1291</ele>
        <time>2013-09-21T14:36:19Z</time>
      </trkpt>
      <trkpt lat="44.11379" lon="6.8537">
        <ele>1289</ele>
        <time>2013-09-21T14:36:27Z</time>
      </trkpt>
      <trkpt lat="44.11356" lon="6.85367">
        <ele>1286</ele>
        <time>2013-09-21T14:36:34Z</time>
      </trkpt>
      <trkpt lat="44.11353" lon="6.85367">
        <ele>1285</ele>
        <time>2013-09-21T14:36:38Z</time>
      </trkpt>
      <trkpt lat="44.11348" lon="6.85362">
        <ele>1282</ele>
        <time>2013-09-21T14:36:51Z</time>
      </trkpt>
      <trkpt lat="44.11346" lon="6.8536">
        <ele>1281</ele>
        <time>2013-09-21T14:36:55Z</time>
      </trkpt>
      <trkpt lat="44.11326" lon="6.85342">
        <ele>1278</ele>
        <time>2013-09-21T14:37:04Z</time>
      </trkpt>
      <trkpt lat="44.11297" lon="6.85323">
        <ele>1276</ele>
        <time>2013-09-21T14:37:12Z</time>
      </trkpt>
      <trkpt lat="44.11283" lon="6.85313">
        <ele>1275</ele>
        <time>2013-09-21T14:37:16Z</time>
      </trkpt>
      <trkpt lat="44.11269" lon="6.85328">
        <ele>1273</ele>
        <time>2013-09-21T14:37:23Z</time>
      </trkpt>
      <trkpt lat="44.11249" lon="6.85322">
        <ele>1271</ele>
        <time>2013-09-21T14:37:29Z</time>
      </trkpt>
      <trkpt lat="44.11228" lon="6.85311">
        <ele>1270</ele>
        <time>2013-09-21T14:37:34Z</time>
      </trkpt>
      <trkpt lat="44.11212" lon="6.85301">
        <ele>1268</ele>
        <time>2013-09-21T14:37:38Z</time>
      </trkpt>
      <trkpt lat="44.11192" lon="6.85292">
        <ele>1267</ele>
        <time>2013-09-21T14:37:42Z</time>
      </trkpt>
      <trkpt lat="44.11186" lon="6.85293">
        <ele>1266</ele>
        <time>2013-09-21T14:37:45Z</time>
      </trkpt>
      <trkpt lat="44.11171" lon="6.85304">
        <ele>1264</ele>
        <time>2013-09-21T14:37:51Z</time>
      </trkpt>
      <trkpt lat="44.11157" lon="6.85296">
        <ele>1263</ele>
        <time>2013-09-21T14:37:55Z</time>
      </trkpt>
      <trkpt lat="44.11142" lon="6.85275">
        <ele>1260</ele>
        <time>2013-09-21T14:38:02Z</time>
      </trkpt>
      <trkpt lat="44.11133" lon="6.85299">
        <ele>1258</ele>
        <time>2013-09-21T14:38:07Z</time>
      </trkpt>
      <trkpt lat="44.11125" lon="6.85295">
        <ele>1256</ele>
        <time>2013-09-21T14:38:11Z</time>
      </trkpt>
      <trkpt lat="44.11118" lon="6.8527">
        <ele>1254</ele>
        <time>2013-09-21T14:38:16Z</time>
      </trkpt>
      <trkpt lat="44.11109" lon="6.85247">
        <ele>1252</ele>
        <time>2013-09-21T14:38:22Z</time>
      </trkpt>
      <trkpt lat="44.11098" lon="6.85272">
        <ele>1249</ele>
        <time>2013-09-21T14:38:29Z</time>
      </trkpt>
      <trkpt lat="44.11089" lon="6.85296">
        <ele>1246</ele>
        <time>2013-09-21T14:38:35Z</time>
      </trkpt>
      <trkpt lat="44.11081" lon="6.8528">
        <ele>1244</ele>
        <time>2013-09-21T14:38:39Z</time>
      </trkpt>
      <trkpt lat="44.11056" lon="6.85259">
        <ele>1240</ele>
        <time>2013-09-21T14:38:47Z</time>
      </trkpt>
      <trkpt lat="44.11039" lon="6.85246">
        <ele>1238</ele>
        <time>2013-09-21T14:38:51Z</time>
      </trkpt>
      <trkpt lat="44.11022" lon="6.85231">
        <ele>1236</ele>
        <time>2013-09-21T14:38:55Z</time>
      </trkpt>
      <trkpt lat="44.11005" lon="6.85226">
        <ele>1234</ele>
        <time>2013-09-21T14:38:59Z</time>
      </trkpt>
      <trkpt lat="44.10986" lon="6.8523">
        <ele>1232</ele>
        <time>2013-09-21T14:39:03Z</time>
      </trkpt>
      <trkpt lat="44.10964" lon="6.85234">
        <ele>1229</ele>
        <time>2013-09-21T14:39:08Z</time>
      </trkpt>
      <trkpt lat="44.10947" lon="6.85236">
        <ele>1227</ele>
        <time>2013-09-21T14:39:12Z</time>
      </trkpt>
      <trkpt lat="44.10933" lon="6.85224">
        <ele>1223</ele>
        <time>2013-09-21T14:39:18Z</time>
      </trkpt>
      <trkpt lat="44.10912" lon="6.85212">
        <ele>1219</ele>
        <time>2013-09-21T14:39:25Z</time>
      </trkpt>
      <trkpt lat="44.10906" lon="6.85214">
        <ele>1217</ele>
        <time>2013-09-21T14:39:28Z</time>
      </trkpt>
      <trkpt lat="44.10901" lon="6.85219">
        <ele>1215</ele>
        <time>2013-09-21T14:39:31Z</time>
      </trkpt>
      <trkpt lat="44.10897" lon="6.85221">
        <ele>1212</ele>
        <time>2013-09-21T14:39:36Z</time>
      </trkpt>
      <trkpt lat="44.10896" lon="6.85199">
        <ele>1208</ele>
        <time>2013-09-21T14:39:44Z</time>
      </trkpt>
      <trkpt lat="44.10894" lon="6.85194">
        <ele>1206</ele>
        <time>2013-09-21T14:39:48Z</time>
      </trkpt>
      <trkpt lat="44.10879" lon="6.85211">
        <ele>1202</ele>
        <time>2013-09-21T14:39:54Z</time>
      </trkpt>
      <trkpt lat="44.1087" lon="6.85212">
        <ele>1201</ele>
        <time>2013-09-21T14:39:57Z</time>
      </trkpt>
      <trkpt lat="44.10847" lon="6.85214">
        <ele>1197</ele>
        <time>2013-09-21T14:40:03Z</time>
      </trkpt>
      <trkpt lat="44.10823" lon="6.85203">
        <ele>1193</ele>
        <time>2013-09-21T14:40:09Z</time>
      </trkpt>
      <trkpt lat="44.10813" lon="6.85198">
        <ele>1190</ele>
        <time>2013-09-21T14:40:14Z</time>
      </trkpt>
      <trkpt lat="44.10822" lon="6.85189">
        <ele>1188</ele>
        <time>2013-09-21T14:40:18Z</time>
      </trkpt>
      <trkpt lat="44.10819" lon="6.85185">
        <ele>1186</ele>
        <time>2013-09-21T14:40:21Z</time>
      </trkpt>
      <trkpt lat="44.10796" lon="6.85172">
        <ele>1182</ele>
        <time>2013-09-21T14:40:28Z</time>
      </trkpt>
      <trkpt lat="44.10783" lon="6.85167">
        <ele>1178</ele>
        <time>2013-09-21T14:40:33Z</time>
      </trkpt>
      <trkpt lat="44.10781" lon="6.85159">
        <ele>1176</ele>
        <time>2013-09-21T14:40:37Z</time>
      </trkpt>
      <trkpt lat="44.10775" lon="6.85158">
        <ele>1175</ele>
        <time>2013-09-21T14:40:39Z</time>
      </trkpt>
      <trkpt lat="44.10756" lon="6.85167">
        <ele>1172</ele>
        <time>2013-09-21T14:40:44Z</time>
      </trkpt>
      <trkpt lat="44.10743" lon="6.85175">
        <ele>1169</ele>
        <time>2013-09-21T14:40:48Z</time>
      </trkpt>
      <trkpt lat="44.10742" lon="6.85181">
        <ele>1167</ele>
        <time>2013-09-21T14:40:52Z</time>
      </trkpt>
      <trkpt lat="44.10742" lon="6.85178">
        <ele>1157</ele>
        <time>2013-09-21T14:41:09Z</time>
      </trkpt>
      <trkpt lat="44.10738" lon="6.8518">
        <ele>1155</ele>
        <time>2013-09-21T14:41:13Z</time>
      </trkpt>
      <trkpt lat="44.10736" lon="6.85186">
        <ele>1153</ele>
        <time>2013-09-21T14:41:16Z</time>
      </trkpt>
      <trkpt lat="44.10731" lon="6.85184">
        <ele>1149</ele>
        <time>2013-09-21T14:41:23Z</time>
      </trkpt>
      <trkpt lat="44.10732" lon="6.85196">
        <ele>1147</ele>
        <time>2013-09-21T14:41:27Z</time>
      </trkpt>
      <trkpt lat="44.10728" lon="6.85197">
        <ele>1145</ele>
        <time>2013-09-21T14:41:30Z</time>
      </trkpt>
      <trkpt lat="44.1072" lon="6.85159">
        <ele>1140</ele>
        <time>2013-09-21T14:41:39Z</time>
      </trkpt>
      <trkpt lat="44.10722" lon="6.85133">
        <ele>1137</ele>
        <time>2013-09-21T14:41:45Z</time>
      </trkpt>
      <trkpt lat="44.10723" lon="6.85129">
        <ele>1134</ele>
        <time>2013-09-21T14:41:49Z</time>
      </trkpt>
      <trkpt lat="44.10727" lon="6.85128">
        <ele>1131</ele>
        <time>2013-09-21T14:41:54Z</time>
      </trkpt>
      <trkpt lat="44.10725" lon="6.8513">
        <ele>1129</ele>
        <time>2013-09-21T14:41:59Z</time>
      </trkpt>
      <trkpt lat="44.10711" lon="6.85131">
        <ele>1124</ele>
        <time>2013-09-21T14:42:08Z</time>
      </trkpt>
      <trkpt lat="44.10704" lon="6.85144">
        <ele>1122</ele>
        <time>2013-09-21T14:42:12Z</time>
      </trkpt>
      <trkpt lat="44.10691" lon="6.8517">
        <ele>1118</ele>
        <time>2013-09-21T14:42:19Z</time>
      </trkpt>
      <trkpt lat="44.10685" lon="6.85161">
        <ele>1115</ele>
        <time>2013-09-21T14:42:25Z</time>
      </trkpt>
      <trkpt lat="44.10683" lon="6.85133">
        <ele>1112</ele>
        <time>2013-09-21T14:42:30Z</time>
      </trkpt>
      <trkpt lat="44.1068" lon="6.851">
        <ele>1108</ele>
        <time>2013-09-21T14:42:38Z</time>
      </trkpt>
      <trkpt lat="44.10678" lon="6.85102">
        <ele>1106</ele>
        <time>2013-09-21T14:42:42Z</time>
      </trkpt>
      <trkpt lat="44.10678" lon="6.85088">
        <ele>1102</ele>
        <time>2013-09-21T14:42:50Z</time>
      </trkpt>
      <trkpt lat="44.10674" lon="6.85079">
        <ele>1098</ele>
        <time>2013-09-21T14:42:57Z</time>
      </trkpt>
      <trkpt lat="44.10662" lon="6.85096">
        <ele>1095</ele>
        <time>2013-09-21T14:43:03Z</time>
      </trkpt>
      <trkpt lat="44.1066" lon="6.85096">
        <ele>1094</ele>
        <time>2013-09-21T14:43:05Z</time>
      </trkpt>
      <trkpt lat="44.10659" lon="6.85089">
        <ele>1091</ele>
        <time>2013-09-21T14:43:10Z</time>
      </trkpt>
      <trkpt lat="44.1066" lon="6.85075">
        <ele>1089</ele>
        <time>2013-09-21T14:43:14Z</time>
      </trkpt>
      <trkpt lat="44.10669" lon="6.85055">
        <ele>1086</ele>
        <time>2013-09-21T14:43:20Z</time>
      </trkpt>
      <trkpt lat="44.10672" lon="6.8505">
        <ele>1084</ele>
        <time>2013-09-21T14:43:24Z</time>
      </trkpt>
      <trkpt lat="44.10668" lon="6.85052">
        <ele>1078</ele>
        <time>2013-09-21T14:43:36Z</time>
      </trkpt>
      <trkpt lat="44.10648" lon="6.85063">
        <ele>1075</ele>
        <time>2013-09-21T14:43:44Z</time>
      </trkpt>
      <trkpt lat="44.10648" lon="6.8506">
        <ele>1074</ele>
        <time>2013-09-21T14:43:46Z</time>
      </trkpt>
      <trkpt lat="44.10658" lon="6.85039">
        <ele>1071</ele>
        <time>2013-09-21T14:43:52Z</time>
      </trkpt>
      <trkpt lat="44.10666" lon="6.85032">
        <ele>1069</ele>
        <time>2013-09-21T14:43:56Z</time>
      </trkpt>
      <trkpt lat="44.1066" lon="6.85031">
        <ele>1066</ele>
        <time>2013-09-21T14:44:01Z</time>
      </trkpt>
      <trkpt lat="44.10663" lon="6.85024">
        <ele>1060</ele>
        <time>2013-09-21T14:44:14Z</time>
      </trkpt>
      <trkpt lat="44.10664" lon="6.85023">
        <ele>1055</ele>
        <time>2013-09-21T14:44:26Z</time>
      </trkpt>
      <trkpt lat="44.10649" lon="6.85016">
        <ele>1046</ele>
        <time>2013-09-21T14:44:49Z</time>
      </trkpt>
      <trkpt lat="44.10648" lon="6.8501">
        <ele>1045</ele>
        <time>2013-09-21T14:44:53Z</time>
      </trkpt>
      <trkpt lat="44.10654" lon="6.85003">
        <ele>1042</ele>
        <time>2013-09-21T14:44:59Z</time>
      </trkpt>
      <trkpt lat="44.10648" lon="6.85002">
        <ele>1040</ele>
        <time>2013-09-21T14:45:05Z</time>
      </trkpt>
      <trkpt lat="44.10632" lon="6.85001">
        <ele>1037</ele>
        <time>2013-09-21T14:45:11Z</time>
      </trkpt>
      <trkpt lat="44.1063" lon="6.85001">
        <ele>1034</ele>
        <time>2013-09-21T14:45:20Z</time>
      </trkpt>
      <trkpt lat="44.10625" lon="6.85001">
        <ele>1003</ele>
        <time>2013-09-21T14:47:56Z</time>
      </trkpt>
      <trkpt lat="44.10631" lon="6.84994">
        <ele>1002</ele>
        <time>2013-09-21T14:48:07Z</time>
      </trkpt>
      <trkpt lat="44.10634" lon="6.84987">
        <ele>1001</ele>
        <time>2013-09-21T14:48:12Z</time>
      </trkpt>
      <trkpt lat="44.10615" lon="6.84978">
        <ele>999</ele>
        <time>2013-09-21T14:48:22Z</time>
      </trkpt>
      <trkpt lat="44.10608" lon="6.84971">
        <ele>998</ele>
        <time>2013-09-21T14:48:27Z</time>
      </trkpt>
      <trkpt lat="44.10608" lon="6.84965">
        <ele>997</ele>
        <time>2013-09-21T14:48:31Z</time>
      </trkpt>
      <trkpt lat="44.10611" lon="6.84949">
        <ele>996</ele>
        <time>2013-09-21T14:48:36Z</time>
      </trkpt>
      <trkpt lat="44.10598" lon="6.84948">
        <ele>995</ele>
        <time>2013-09-21T14:48:41Z</time>
      </trkpt>
      <trkpt lat="44.10593" lon="6.84943">
        <ele>994</ele>
        <time>2013-09-21T14:48:44Z</time>
      </trkpt>
      <trkpt lat="44.10593" lon="6.84938">
        <ele>994</ele>
        <time>2013-09-21T14:48:47Z</time>
      </trkpt>
      <trkpt lat="44.10598" lon="6.84927">
        <ele>989</ele>
        <time>2013-09-21T14:49:05Z</time>
      </trkpt>
      <trkpt lat="44.1059" lon="6.84929">
        <ele>986</ele>
        <time>2013-09-21T14:49:20Z</time>
      </trkpt>
      <trkpt lat="44.10598" lon="6.84909">
        <ele>984</ele>
        <time>2013-09-21T14:49:31Z</time>
      </trkpt>
      <trkpt lat="44.10593" lon="6.8491">
        <ele>983</ele>
        <time>2013-09-21T14:49:36Z</time>
      </trkpt>
      <trkpt lat="44.10591" lon="6.8491">
        <ele>980</ele>
        <time>2013-09-21T14:49:48Z</time>
      </trkpt>
      <trkpt lat="44.10549" lon="6.84911">
        <ele>978</ele>
        <time>2013-09-21T14:50:01Z</time>
      </trkpt>
      <trkpt lat="44.10547" lon="6.84907">
        <ele>976</ele>
        <time>2013-09-21T14:50:06Z</time>
      </trkpt>
      <trkpt lat="44.10542" lon="6.84904">
        <ele>975</ele>
        <time>2013-09-21T14:50:10Z</time>
      </trkpt>
      <trkpt lat="44.1054" lon="6.84905">
        <ele>973</ele>
        <time>2013-09-21T14:50:21Z</time>
      </trkpt>
      <trkpt lat="44.10518" lon="6.84906">
        <ele>970</ele>
        <time>2013-09-21T14:50:31Z</time>
      </trkpt>
      <trkpt lat="44.10513" lon="6.84905">
        <ele>969</ele>
        <time>2013-09-21T14:50:34Z</time>
      </trkpt>
      <trkpt lat="44.1051" lon="6.84905">
        <ele>967</ele>
        <time>2013-09-21T14:50:40Z</time>
      </trkpt>
      <trkpt lat="44.10514" lon="6.84899">
        <ele>966</ele>
        <time>2013-09-21T14:50:43Z</time>
      </trkpt>
      <trkpt lat="44.1053" lon="6.84872">
        <ele>963</ele>
        <time>2013-09-21T14:50:53Z</time>
      </trkpt>
      <trkpt lat="44.10524" lon="6.84877">
        <ele>962</ele>
        <time>2013-09-21T14:50:57Z</time>
      </trkpt>
      <trkpt lat="44.10491" lon="6.84901">
        <ele>959</ele>
        <time>2013-09-21T14:51:06Z</time>
      </trkpt>
      <trkpt lat="44.10482" lon="6.84918">
        <ele>956</ele>
        <time>2013-09-21T14:51:16Z</time>
      </trkpt>
      <trkpt lat="44.1049" lon="6.84884">
        <ele>953</ele>
        <time>2013-09-21T14:51:25Z</time>
      </trkpt>
      <trkpt lat="44.10495" lon="6.84871">
        <ele>951</ele>
        <time>2013-09-21T14:51:30Z</time>
      </trkpt>
      <trkpt lat="44.10488" lon="6.84877">
        <ele>951</ele>
        <time>2013-09-21T14:51:32Z</time>
      </trkpt>
      <trkpt lat="44.10464" lon="6.84913">
        <ele>947</ele>
        <time>2013-09-21T14:51:43Z</time>
      </trkpt>
      <trkpt lat="44.10463" lon="6.84913">
        <ele>946</ele>
        <time>2013-09-21T14:51:46Z</time>
      </trkpt>
      <trkpt lat="44.10464" lon="6.84903">
        <ele>944</ele>
        <time>2013-09-21T14:51:51Z</time>
      </trkpt>
      <trkpt lat="44.10462" lon="6.84879">
        <ele>942</ele>
        <time>2013-09-21T14:51:58Z</time>
      </trkpt>
      <trkpt lat="44.10457" lon="6.84883">
        <ele>940</ele>
        <time>2013-09-21T14:52:01Z</time>
      </trkpt>
      <trkpt lat="44.1045" lon="6.84883">
        <ele>939</ele>
        <time>2013-09-21T14:52:04Z</time>
      </trkpt>
      <trkpt lat="44.10456" lon="6.84864">
        <ele>937</ele>
        <time>2013-09-21T14:52:10Z</time>
      </trkpt>
      <trkpt lat="44.10474" lon="6.84826">
        <ele>934</ele>
        <time>2013-09-21T14:52:16Z</time>
      </trkpt>
      <trkpt lat="44.10493" lon="6.84787">
        <ele>932</ele>
        <time>2013-09-21T14:52:22Z</time>
      </trkpt>
      <trkpt lat="44.10495" lon="6.84787">
        <ele>929</ele>
        <time>2013-09-21T14:52:30Z</time>
      </trkpt>
      <trkpt lat="44.10501" lon="6.84787">
        <ele>914</ele>
        <time>2013-09-21T14:53:13Z</time>
      </trkpt>
      <trkpt lat="44.1051" lon="6.84781">
        <ele>908</ele>
        <time>2013-09-21T14:53:40Z</time>
      </trkpt>
      <trkpt lat="44.10516" lon="6.84762">
        <ele>907</ele>
        <time>2013-09-21T14:53:44Z</time>
      </trkpt>
      <trkpt lat="44.10527" lon="6.84725">
        <ele>904</ele>
        <time>2013-09-21T14:53:55Z</time>
      </trkpt>
      <trkpt lat="44.10535" lon="6.84718">
        <ele>903</ele>
        <time>2013-09-21T14:53:59Z</time>
      </trkpt>
      <trkpt lat="44.10542" lon="6.84708">
        <ele>902</ele>
        <time>2013-09-21T14:54:04Z</time>
      </trkpt>
      <trkpt lat="44.10534" lon="6.84684">
        <ele>900</ele>
        <time>2013-09-21T14:54:11Z</time>
      </trkpt>
      <trkpt lat="44.10549" lon="6.84668">
        <ele>898</ele>
        <time>2013-09-21T14:54:20Z</time>
      </trkpt>
      <trkpt lat="44.10574" lon="6.84637">
        <ele>895</ele>
        <time>2013-09-21T14:54:34Z</time>
      </trkpt>
      <trkpt lat="44.10589" lon="6.84619">
        <ele>892</ele>
        <time>2013-09-21T14:54:47Z</time>
      </trkpt>
      <trkpt lat="44.10609" lon="6.84574">
        <ele>887</ele>
        <time>2013-09-21T14:55:20Z</time>
      </trkpt>
      <trkpt lat="44.10637" lon="6.84494">
        <ele>885</ele>
        <time>2013-09-21T14:55:36Z</time>
      </trkpt>
      <trkpt lat="44.10654" lon="6.84435">
        <ele>884</ele>
        <time>2013-09-21T14:55:49Z</time>
      </trkpt>
      <trkpt lat="44.1067" lon="6.84399">
        <ele>883</ele>
        <time>2013-09-21T14:55:59Z</time>
      </trkpt>
      <trkpt lat="44.10667" lon="6.84335">
        <ele>881</ele>
        <time>2013-09-21T14:56:12Z</time>
      </trkpt>
      <trkpt lat="44.1071" lon="6.8422">
        <ele>879</ele>
        <time>2013-09-21T14:56:36Z</time>
      </trkpt>
      <trkpt lat="44.10719" lon="6.84183">
        <ele>879</ele>
        <time>2013-09-21T14:56:43Z</time>
      </trkpt>
      <trkpt lat="44.1073" lon="6.84118">
        <ele>878</ele>
        <time>2013-09-21T14:56:55Z</time>
      </trkpt>
      <trkpt lat="44.10756" lon="6.84065">
        <ele>878</ele>
        <time>2013-09-21T14:57:06Z</time>
      </trkpt>
      <trkpt lat="44.10785" lon="6.83984">
        <ele>877</ele>
        <time>2013-09-21T14:57:21Z</time>
      </trkpt>
      <trkpt lat="44.10785" lon="6.83959">
        <ele>877</ele>
        <time>2013-09-21T14:57:25Z</time>
      </trkpt>
      <trkpt lat="44.10788" lon="6.83941">
        <ele>877</ele>
        <time>2013-09-21T14:57:28Z</time>
      </trkpt>
      <trkpt lat="44.10798" lon="6.83917">
        <ele>876</ele>
        <time>2013-09-21T14:57:32Z</time>
      </trkpt>
      <trkpt lat="44.10806" lon="6.83892">
        <ele>876</ele>
        <time>2013-09-21T14:57:36Z</time>
      </trkpt>
      <trkpt lat="44.10809" lon="6.83872">
        <ele>876</ele>
        <time>2013-09-21T14:57:39Z</time>
      </trkpt>
      <trkpt lat="44.10817" lon="6.83853">
        <ele>876</ele>
        <time>2013-09-21T14:57:42Z</time>
      </trkpt>
      <trkpt lat="44.10838" lon="6.83829">
        <ele>876</ele>
        <time>2013-09-21T14:57:47Z</time>
      </trkpt>
      <trkpt lat="44.10868" lon="6.83804">
        <ele>876</ele>
        <time>2013-09-21T14:57:53Z</time>
      </trkpt>
      <trkpt lat="44.10909" lon="6.83784">
        <ele>875</ele>
        <time>2013-09-21T14:58:00Z</time>
      </trkpt>
      <trkpt lat="44.10938" lon="6.83775">
        <ele>875</ele>
        <time>2013-09-21T14:58:04Z</time>
      </trkpt>
      <trkpt lat="44.10995" lon="6.83739">
        <ele>875</ele>
        <time>2013-09-21T14:58:12Z</time>
      </trkpt>
      <trkpt lat="44.11032" lon="6.83716">
        <ele>875</ele>
        <time>2013-09-21T14:58:18Z</time>
      </trkpt>
      <trkpt lat="44.111" lon="6.83699">
        <ele>875</ele>
        <time>2013-09-21T14:58:29Z</time>
      </trkpt>
      <trkpt lat="44.11168" lon="6.83692">
        <ele>875</ele>
        <time>2013-09-21T14:58:40Z</time>
      </trkpt>
      <trkpt lat="44.11205" lon="6.83679">
        <ele>875</ele>
        <time>2013-09-21T14:58:46Z</time>
      </trkpt>
      <trkpt lat="44.11218" lon="6.83641">
        <ele>875</ele>
        <time>2013-09-21T14:58:51Z</time>
      </trkpt>
      <trkpt lat="44.11223" lon="6.8357">
        <ele>875</ele>
        <time>2013-09-21T14:58:59Z</time>
      </trkpt>
      <trkpt lat="44.11209" lon="6.83542">
        <ele>875</ele>
        <time>2013-09-21T14:59:03Z</time>
      </trkpt>
      <trkpt lat="44.11174" lon="6.83496">
        <ele>876</ele>
        <time>2013-09-21T14:59:11Z</time>
      </trkpt>
      <trkpt lat="44.11129" lon="6.83452">
        <ele>877</ele>
        <time>2013-09-21T14:59:22Z</time>
      </trkpt>
      <trkpt lat="44.11111" lon="6.83434">
        <ele>878</ele>
        <time>2013-09-21T14:59:27Z</time>
      </trkpt>
      <trkpt lat="44.11091" lon="6.83418">
        <ele>878</ele>
        <time>2013-09-21T14:59:32Z</time>
      </trkpt>
      <trkpt lat="44.11048" lon="6.83408">
        <ele>879</ele>
        <time>2013-09-21T14:59:42Z</time>
      </trkpt>
      <trkpt lat="44.10992" lon="6.83395">
        <ele>880</ele>
        <time>2013-09-21T14:59:56Z</time>
      </trkpt>
      <trkpt lat="44.10958" lon="6.83373">
        <ele>882</ele>
        <time>2013-09-21T15:00:07Z</time>
      </trkpt>
      <trkpt lat="44.10923" lon="6.83336">
        <ele>883</ele>
        <time>2013-09-21T15:00:21Z</time>
      </trkpt>
      <trkpt lat="44.10904" lon="6.83273">
        <ele>885</ele>
        <time>2013-09-21T15:00:37Z</time>
      </trkpt>
      <trkpt lat="44.10892" lon="6.83192">
        <ele>886</ele>
        <time>2013-09-21T15:00:55Z</time>
      </trkpt>
      <trkpt lat="44.10886" lon="6.83105">
        <ele>886</ele>
        <time>2013-09-21T15:01:12Z</time>
      </trkpt>
      <trkpt lat="44.10895" lon="6.83012">
        <ele>887</ele>
        <time>2013-09-21T15:01:30Z</time>
      </trkpt>
      <trkpt lat="44.10881" lon="6.82937">
        <ele>889</ele>
        <time>2013-09-21T15:01:44Z</time>
      </trkpt>
      <trkpt lat="44.10881" lon="6.82893">
        <ele>889</ele>
        <time>2013-09-21T15:01:52Z</time>
      </trkpt>
      <trkpt lat="44.10888" lon="6.82789">
        <ele>890</ele>
        <time>2013-09-21T15:02:11Z</time>
      </trkpt>
      <trkpt lat="44.10904" lon="6.82732">
        <ele>890</ele>
        <time>2013-09-21T15:02:22Z</time>
      </trkpt>
      <trkpt lat="44.10914" lon="6.82707">
        <ele>891</ele>
        <time>2013-09-21T15:02:27Z</time>
      </trkpt>
      <trkpt lat="44.10926" lon="6.82661">
        <ele>891</ele>
        <time>2013-09-21T15:02:35Z</time>
      </trkpt>
      <trkpt lat="44.10922" lon="6.82637">
        <ele>891</ele>
        <time>2013-09-21T15:02:39Z</time>
      </trkpt>
      <trkpt lat="44.10912" lon="6.82606">
        <ele>892</ele>
        <time>2013-09-21T15:02:44Z</time>
      </trkpt>
      <trkpt lat="44.10908" lon="6.82585">
        <ele>892</ele>
        <time>2013-09-21T15:02:47Z</time>
      </trkpt>
      <trkpt lat="44.10907" lon="6.82526">
        <ele>893</ele>
        <time>2013-09-21T15:02:55Z</time>
      </trkpt>
      <trkpt lat="44.10906" lon="6.82459">
        <ele>894</ele>
        <time>2013-09-21T15:03:03Z</time>
      </trkpt>
      <trkpt lat="44.10915" lon="6.82397">
        <ele>894</ele>
        <time>2013-09-21T15:03:10Z</time>
      </trkpt>
      <trkpt lat="44.10927" lon="6.82354">
        <ele>895</ele>
        <time>2013-09-21T15:03:15Z</time>
      </trkpt>
      <trkpt lat="44.10951" lon="6.82319">
        <ele>895</ele>
        <time>2013-09-21T15:03:20Z</time>
      </trkpt>
      <trkpt lat="44.10979" lon="6.82287">
        <ele>895</ele>
        <time>2013-09-21T15:03:25Z</time>
      </trkpt>
      <trkpt lat="44.11007" lon="6.8227">
        <ele>895</ele>
        <time>2013-09-21T15:03:29Z</time>
      </trkpt>
      <trkpt lat="44.11042" lon="6.82183">
        <ele>895</ele>
        <time>2013-09-21T15:03:38Z</time>
      </trkpt>
      <trkpt lat="44.11056" lon="6.82138">
        <ele>895</ele>
        <time>2013-09-21T15:03:42Z</time>
      </trkpt>
      <trkpt lat="44.11081" lon="6.82097">
        <ele>895</ele>
        <time>2013-09-21T15:03:46Z</time>
      </trkpt>
      <trkpt lat="44.11114" lon="6.82063">
        <ele>895</ele>
        <time>2013-09-21T15:03:50Z</time>
      </trkpt>
      <trkpt lat="44.11157" lon="6.82045">
        <ele>895</ele>
        <time>2013-09-21T15:03:54Z</time>
      </trkpt>
      <trkpt lat="44.11196" lon="6.82016">
        <ele>895</ele>
        <time>2013-09-21T15:03:58Z</time>
      </trkpt>
      <trkpt lat="44.11194" lon="6.8196">
        <ele>894</ele>
        <time>2013-09-21T15:04:02Z</time>
      </trkpt>
      <trkpt lat="44.11187" lon="6.81897">
        <ele>894</ele>
        <time>2013-09-21T15:04:07Z</time>
      </trkpt>
      <trkpt lat="44.11221" lon="6.81853">
        <ele>894</ele>
        <time>2013-09-21T15:04:12Z</time>
      </trkpt>
      <trkpt lat="44.11258" lon="6.81815">
        <ele>894</ele>
        <time>2013-09-21T15:04:17Z</time>
      </trkpt>
      <trkpt lat="44.11332" lon="6.81704">
        <ele>893</ele>
        <time>2013-09-21T15:04:29Z</time>
      </trkpt>
      <trkpt lat="44.11372" lon="6.81609">
        <ele>893</ele>
        <time>2013-09-21T15:04:38Z</time>
      </trkpt>
      <trkpt lat="44.114" lon="6.81495">
        <ele>892</ele>
        <time>2013-09-21T15:04:48Z</time>
      </trkpt>
      <trkpt lat="44.11444" lon="6.81353">
        <ele>892</ele>
        <time>2013-09-21T15:05:02Z</time>
      </trkpt>
      <trkpt lat="44.11459" lon="6.81296">
        <ele>892</ele>
        <time>2013-09-21T15:05:09Z</time>
      </trkpt>
      <trkpt lat="44.1148" lon="6.81202">
        <ele>893</ele>
        <time>2013-09-21T15:05:25Z</time>
      </trkpt>
      <trkpt lat="44.11498" lon="6.81132">
        <ele>895</ele>
        <time>2013-09-21T15:05:41Z</time>
      </trkpt>
      <trkpt lat="44.11509" lon="6.81049">
        <ele>896</ele>
        <time>2013-09-21T15:06:00Z</time>
      </trkpt>
      <trkpt lat="44.11514" lon="6.80986">
        <ele>897</ele>
        <time>2013-09-21T15:06:13Z</time>
      </trkpt>
      <trkpt lat="44.11534" lon="6.80906">
        <ele>899</ele>
        <time>2013-09-21T15:06:29Z</time>
      </trkpt>
      <trkpt lat="44.11575" lon="6.80838">
        <ele>900</ele>
        <time>2013-09-21T15:06:45Z</time>
      </trkpt>
      <trkpt lat="44.11594" lon="6.8076">
        <ele>902</ele>
        <time>2013-09-21T15:06:59Z</time>
      </trkpt>
      <trkpt lat="44.1163" lon="6.80647">
        <ele>905</ele>
        <time>2013-09-21T15:07:18Z</time>
      </trkpt>
      <trkpt lat="44.11644" lon="6.80602">
        <ele>905</ele>
        <time>2013-09-21T15:07:25Z</time>
      </trkpt>
      <trkpt lat="44.11662" lon="6.80576">
        <ele>906</ele>
        <time>2013-09-21T15:07:30Z</time>
      </trkpt>
      <trkpt lat="44.11684" lon="6.80545">
        <ele>906</ele>
        <time>2013-09-21T15:07:36Z</time>
      </trkpt>
      <trkpt lat="44.11703" lon="6.80502">
        <ele>907</ele>
        <time>2013-09-21T15:07:42Z</time>
      </trkpt>
      <trkpt lat="44.11732" lon="6.80459">
        <ele>907</ele>
        <time>2013-09-21T15:07:49Z</time>
      </trkpt>
      <trkpt lat="44.11769" lon="6.80427">
        <ele>908</ele>
        <time>2013-09-21T15:07:56Z</time>
      </trkpt>
      <trkpt lat="44.11832" lon="6.80407">
        <ele>909</ele>
        <time>2013-09-21T15:08:06Z</time>
      </trkpt>
      <trkpt lat="44.11859" lon="6.80379">
        <ele>909</ele>
        <time>2013-09-21T15:08:12Z</time>
      </trkpt>
      <trkpt lat="44.11864" lon="6.80322">
        <ele>910</ele>
        <time>2013-09-21T15:08:20Z</time>
      </trkpt>
      <trkpt lat="44.11854" lon="6.80302">
        <ele>911</ele>
        <time>2013-09-21T15:08:24Z</time>
      </trkpt>
      <trkpt lat="44.11823" lon="6.80275">
        <ele>913</ele>
        <time>2013-09-21T15:08:36Z</time>
      </trkpt>
      <trkpt lat="44.11787" lon="6.80244">
        <ele>915</ele>
        <time>2013-09-21T15:08:51Z</time>
      </trkpt>
      <trkpt lat="44.11788" lon="6.80198">
        <ele>917</ele>
        <time>2013-09-21T15:09:03Z</time>
      </trkpt>
      <trkpt lat="44.11821" lon="6.80122">
        <ele>921</ele>
        <time>2013-09-21T15:09:24Z</time>
      </trkpt>
      <trkpt lat="44.11829" lon="6.80066">
        <ele>923</ele>
        <time>2013-09-21T15:09:37Z</time>
      </trkpt>
      <trkpt lat="44.11812" lon="6.79996">
        <ele>926</ele>
        <time>2013-09-21T15:09:53Z</time>
      </trkpt>
      <trkpt lat="44.1182" lon="6.79906">
        <ele>929</ele>
        <time>2013-09-21T15:10:12Z</time>
      </trkpt>
      <trkpt lat="44.11842" lon="6.79818">
        <ele>933</ele>
        <time>2013-09-21T15:10:32Z</time>
      </trkpt>
      <trkpt lat="44.11879" lon="6.79745">
        <ele>936</ele>
        <time>2013-09-21T15:10:49Z</time>
      </trkpt>
      <trkpt lat="44.1194" lon="6.79669">
        <ele>939</ele>
        <time>2013-09-21T15:11:06Z</time>
      </trkpt>
      <trkpt lat="44.12" lon="6.79591">
        <ele>942</ele>
        <time>2013-09-21T15:11:25Z</time>
      </trkpt>
      <trkpt lat="44.12035" lon="6.79528">
        <ele>944</ele>
        <time>2013-09-21T15:11:37Z</time>
      </trkpt>
      <trkpt lat="44.12079" lon="6.79472">
        <ele>946</ele>
        <time>2013-09-21T15:11:49Z</time>
      </trkpt>
      <trkpt lat="44.12128" lon="6.79392">
        <ele>948</ele>
        <time>2013-09-21T15:12:06Z</time>
      </trkpt>
      <trkpt lat="44.12149" lon="6.7936">
        <ele>948</ele>
        <time>2013-09-21T15:12:14Z</time>
      </trkpt>
      <trkpt lat="44.12178" lon="6.79319">
        <ele>949</ele>
        <time>2013-09-21T15:12:27Z</time>
      </trkpt>
      <trkpt lat="44.12213" lon="6.79278">
        <ele>949</ele>
        <time>2013-09-21T15:12:40Z</time>
      </trkpt>
      <trkpt lat="44.12219" lon="6.79223">
        <ele>949</ele>
        <time>2013-09-21T15:12:51Z</time>
      </trkpt>
      <trkpt lat="44.12225" lon="6.79169">
        <ele>950</ele>
        <time>2013-09-21T15:13:02Z</time>
      </trkpt>
      <trkpt lat="44.12257" lon="6.79125">
        <ele>950</ele>
        <time>2013-09-21T15:13:13Z</time>
      </trkpt>
      <trkpt lat="44.12261" lon="6.79106">
        <ele>950</ele>
        <time>2013-09-21T15:13:16Z</time>
      </trkpt>
      <trkpt lat="44.12268" lon="6.79041">
        <ele>951</ele>
        <time>2013-09-21T15:13:26Z</time>
      </trkpt>
      <trkpt lat="44.1228" lon="6.79006">
        <ele>951</ele>
        <time>2013-09-21T15:13:32Z</time>
      </trkpt>
      <trkpt lat="44.12304" lon="6.78951">
        <ele>952</ele>
        <time>2013-09-21T15:13:42Z</time>
      </trkpt>
      <trkpt lat="44.12303" lon="6.78907">
        <ele>952</ele>
        <time>2013-09-21T15:13:49Z</time>
      </trkpt>
      <trkpt lat="44.12285" lon="6.78861">
        <ele>953</ele>
        <time>2013-09-21T15:13:57Z</time>
      </trkpt>
      <trkpt lat="44.12284" lon="6.78821">
        <ele>953</ele>
        <time>2013-09-21T15:14:03Z</time>
      </trkpt>
      <trkpt lat="44.12289" lon="6.78779">
        <ele>954</ele>
        <time>2013-09-21T15:14:09Z</time>
      </trkpt>
      <trkpt lat="44.12317" lon="6.78754">
        <ele>954</ele>
        <time>2013-09-21T15:14:15Z</time>
      </trkpt>
      <trkpt lat="44.12357" lon="6.78737">
        <ele>955</ele>
        <time>2013-09-21T15:14:23Z</time>
      </trkpt>
      <trkpt lat="44.12373" lon="6.78709">
        <ele>955</ele>
        <time>2013-09-21T15:14:28Z</time>
      </trkpt>
      <trkpt lat="44.12382" lon="6.78651">
        <ele>955</ele>
        <time>2013-09-21T15:14:36Z</time>
      </trkpt>
      <trkpt lat="44.12386" lon="6.78585">
        <ele>955</ele>
        <time>2013-09-21T15:14:45Z</time>
      </trkpt>
      <trkpt lat="44.12391" lon="6.78551">
        <ele>955</ele>
        <time>2013-09-21T15:14:50Z</time>
      </trkpt>
      <trkpt lat="44.12415" lon="6.78507">
        <ele>956</ele>
        <time>2013-09-21T15:14:58Z</time>
      </trkpt>
      <trkpt lat="44.12432" lon="6.78483">
        <ele>956</ele>
        <time>2013-09-21T15:15:03Z</time>
      </trkpt>
      <trkpt lat="44.12445" lon="6.78471">
        <ele>956</ele>
        <time>2013-09-21T15:15:06Z</time>
      </trkpt>
      <trkpt lat="44.12491" lon="6.78455">
        <ele>957</ele>
        <time>2013-09-21T15:15:16Z</time>
      </trkpt>
      <trkpt lat="44.12507" lon="6.78443">
        <ele>957</ele>
        <time>2013-09-21T15:15:20Z</time>
      </trkpt>
      <trkpt lat="44.12522" lon="6.78411">
        <ele>957</ele>
        <time>2013-09-21T15:15:26Z</time>
      </trkpt>
      <trkpt lat="44.1255" lon="6.78345">
        <ele>958</ele>
        <time>2013-09-21T15:15:38Z</time>
      </trkpt>
      <trkpt lat="44.12558" lon="6.78339">
        <ele>958</ele>
        <time>2013-09-21T15:15:40Z</time>
      </trkpt>
      <trkpt lat="44.12583" lon="6.78319">
        <ele>959</ele>
        <time>2013-09-21T15:15:46Z</time>
      </trkpt>
      <trkpt lat="44.12591" lon="6.78298">
        <ele>959</ele>
        <time>2013-09-21T15:15:50Z</time>
      </trkpt>
      <trkpt lat="44.126" lon="6.78275">
        <ele>960</ele>
        <time>2013-09-21T15:15:54Z</time>
      </trkpt>
      <trkpt lat="44.12617" lon="6.78254">
        <ele>960</ele>
        <time>2013-09-21T15:15:59Z</time>
      </trkpt>
      <trkpt lat="44.12635" lon="6.78242">
        <ele>961</ele>
        <time>2013-09-21T15:16:04Z</time>
      </trkpt>
      <trkpt lat="44.12661" lon="6.78235">
        <ele>962</ele>
        <time>2013-09-21T15:16:11Z</time>
      </trkpt>
      <trkpt lat="44.12685" lon="6.78204">
        <ele>963</ele>
        <time>2013-09-21T15:16:21Z</time>
      </trkpt>
      <trkpt lat="44.1268" lon="6.78143">
        <ele>965</ele>
        <time>2013-09-21T15:16:33Z</time>
      </trkpt>
      <trkpt lat="44.12695" lon="6.78089">
        <ele>967</ele>
        <time>2013-09-21T15:16:45Z</time>
      </trkpt>
      <trkpt lat="44.1272" lon="6.78026">
        <ele>970</ele>
        <time>2013-09-21T15:16:59Z</time>
      </trkpt>
      <trkpt lat="44.12732" lon="6.77917">
        <ele>973</ele>
        <time>2013-09-21T15:17:18Z</time>
      </trkpt>
      <trkpt lat="44.12749" lon="6.77824">
        <ele>974</ele>
        <time>2013-09-21T15:17:34Z</time>
      </trkpt>
      <trkpt lat="44.12766" lon="6.77798">
        <ele>975</ele>
        <time>2013-09-21T15:17:40Z</time>
      </trkpt>
      <trkpt lat="44.12785" lon="6.77765">
        <ele>976</ele>
        <time>2013-09-21T15:17:47Z</time>
      </trkpt>
      <trkpt lat="44.12801" lon="6.77737">
        <ele>976</ele>
        <time>2013-09-21T15:17:53Z</time>
      </trkpt>
      <trkpt lat="44.12826" lon="6.77714">
        <ele>977</ele>
        <time>2013-09-21T15:18:00Z</time>
      </trkpt>
      <trkpt lat="44.12844" lon="6.7769">
        <ele>977</ele>
        <time>2013-09-21T15:18:06Z</time>
      </trkpt>
      <trkpt lat="44.12862" lon="6.77653">
        <ele>978</ele>
        <time>2013-09-21T15:18:14Z</time>
      </trkpt>
      <trkpt lat="44.12903" lon="6.77578">
        <ele>980</ele>
        <time>2013-09-21T15:18:30Z</time>
      </trkpt>
      <trkpt lat="44.12936" lon="6.77539">
        <ele>981</ele>
        <time>2013-09-21T15:18:40Z</time>
      </trkpt>
      <trkpt lat="44.1295" lon="6.7751">
        <ele>982</ele>
        <time>2013-09-21T15:18:46Z</time>
      </trkpt>
      <trkpt lat="44.12954" lon="6.77474">
        <ele>982</ele>
        <time>2013-09-21T15:18:52Z</time>
      </trkpt>
      <trkpt lat="44.1296" lon="6.77434">
        <ele>983</ele>
        <time>2013-09-21T15:18:59Z</time>
      </trkpt>
      <trkpt lat="44.12967" lon="6.7742">
        <ele>983</ele>
        <time>2013-09-21T15:19:02Z</time>
      </trkpt>
      <trkpt lat="44.12994" lon="6.77402">
        <ele>984</ele>
        <time>2013-09-21T15:19:10Z</time>
      </trkpt>
      <trkpt lat="44.13044" lon="6.77403">
        <ele>985</ele>
        <time>2013-09-21T15:19:23Z</time>
      </trkpt>
      <trkpt lat="44.1306" lon="6.77407">
        <ele>985</ele>
        <time>2013-09-21T15:19:30Z</time>
      </trkpt>
      <trkpt lat="44.13059" lon="6.77408">
        <ele>993</ele>
        <time>2013-09-21T15:20:21Z</time>
      </trkpt>
      <trkpt lat="44.13074" lon="6.77407">
        <ele>994</ele>
        <time>2013-09-21T15:20:32Z</time>
      </trkpt>
      <trkpt lat="44.13102" lon="6.77412">
        <ele>995</ele>
        <time>2013-09-21T15:20:42Z</time>
      </trkpt>
      <trkpt lat="44.13152" lon="6.77393">
        <ele>995</ele>
        <time>2013-09-21T15:20:54Z</time>
      </trkpt>
      <trkpt lat="44.13177" lon="6.77369">
        <ele>996</ele>
        <time>2013-09-21T15:21:01Z</time>
      </trkpt>
      <trkpt lat="44.13192" lon="6.7734">
        <ele>996</ele>
        <time>2013-09-21T15:21:07Z</time>
      </trkpt>
      <trkpt lat="44.13223" lon="6.77287">
        <ele>997</ele>
        <time>2013-09-21T15:21:19Z</time>
      </trkpt>
      <trkpt lat="44.13248" lon="6.77241">
        <ele>998</ele>
        <time>2013-09-21T15:21:29Z</time>
      </trkpt>
      <trkpt lat="44.13281" lon="6.77147">
        <ele>1000</ele>
        <time>2013-09-21T15:21:47Z</time>
      </trkpt>
      <trkpt lat="44.13316" lon="6.77078">
        <ele>1001</ele>
        <time>2013-09-21T15:22:00Z</time>
      </trkpt>
      <trkpt lat="44.1335" lon="6.77011">
        <ele>1002</ele>
        <time>2013-09-21T15:22:12Z</time>
      </trkpt>
      <trkpt lat="44.13374" lon="6.76967">
        <ele>1003</ele>
        <time>2013-09-21T15:22:20Z</time>
      </trkpt>
      <trkpt lat="44.134" lon="6.76954">
        <ele>1003</ele>
        <time>2013-09-21T15:22:25Z</time>
      </trkpt>
      <trkpt lat="44.13491" lon="6.76919">
        <ele>1004</ele>
        <time>2013-09-21T15:22:41Z</time>
      </trkpt>
      <trkpt lat="44.1351" lon="6.76902">
        <ele>1004</ele>
        <time>2013-09-21T15:22:45Z</time>
      </trkpt>
      <trkpt lat="44.13557" lon="6.76852">
        <ele>1005</ele>
        <time>2013-09-21T15:22:55Z</time>
      </trkpt>
      <trkpt lat="44.13589" lon="6.76831">
        <ele>1005</ele>
        <time>2013-09-21T15:23:01Z</time>
      </trkpt>
      <trkpt lat="44.13616" lon="6.76817">
        <ele>1005</ele>
        <time>2013-09-21T15:23:06Z</time>
      </trkpt>
      <trkpt lat="44.13637" lon="6.76792">
        <ele>1005</ele>
        <time>2013-09-21T15:23:11Z</time>
      </trkpt>
      <trkpt lat="44.13646" lon="6.76774">
        <ele>1005</ele>
        <time>2013-09-21T15:23:14Z</time>
      </trkpt>
      <trkpt lat="44.13696" lon="6.76655">
        <ele>1007</ele>
        <time>2013-09-21T15:23:33Z</time>
      </trkpt>
      <trkpt lat="44.13748" lon="6.76583">
        <ele>1009</ele>
        <time>2013-09-21T15:23:48Z</time>
      </trkpt>
      <trkpt lat="44.1378" lon="6.7655">
        <ele>1010</ele>
        <time>2013-09-21T15:23:56Z</time>
      </trkpt>
      <trkpt lat="44.1384" lon="6.76495">
        <ele>1012</ele>
        <time>2013-09-21T15:24:12Z</time>
      </trkpt>
      <trkpt lat="44.1392" lon="6.76425">
        <ele>1015</ele>
        <time>2013-09-21T15:24:33Z</time>
      </trkpt>
      <trkpt lat="44.13947" lon="6.76395">
        <ele>1016</ele>
        <time>2013-09-21T15:24:41Z</time>
      </trkpt>
      <trkpt lat="44.14012" lon="6.76346">
        <ele>1018</ele>
        <time>2013-09-21T15:24:59Z</time>
      </trkpt>
      <trkpt lat="44.14054" lon="6.76319">
        <ele>1019</ele>
        <time>2013-09-21T15:25:12Z</time>
      </trkpt>
      <trkpt lat="44.14077" lon="6.76329">
        <ele>1020</ele>
        <time>2013-09-21T15:25:21Z</time>
      </trkpt>
      <trkpt lat="44.14079" lon="6.76333">
        <ele>1020</ele>
        <time>2013-09-21T15:25:25Z</time>
      </trkpt>
      <trkpt lat="44.14083" lon="6.76345">
        <ele>1022</ele>
        <time>2013-09-21T15:25:38Z</time>
      </trkpt>
      <trkpt lat="44.14091" lon="6.76359">
        <ele>1025</ele>
        <time>2013-09-21T15:25:54Z</time>
      </trkpt>
      <trkpt lat="44.14101" lon="6.76363">
        <ele>1029</ele>
        <time>2013-09-21T15:26:10Z</time>
      </trkpt>
      <trkpt lat="44.1411" lon="6.76363">
        <ele>1032</ele>
        <time>2013-09-21T15:26:25Z</time>
      </trkpt>
      <trkpt lat="44.14108" lon="6.76348">
        <ele>1035</ele>
        <time>2013-09-21T15:26:40Z</time>
      </trkpt>
      <trkpt lat="44.14114" lon="6.76329">
        <ele>1037</ele>
        <time>2013-09-21T15:26:56Z</time>
      </trkpt>
      <trkpt lat="44.14119" lon="6.76321">
        <ele>1039</ele>
        <time>2013-09-21T15:27:04Z</time>
      </trkpt>
      <trkpt lat="44.14123" lon="6.76309">
        <ele>1040</ele>
        <time>2013-09-21T15:27:13Z</time>
      </trkpt>
      <trkpt lat="44.1413" lon="6.76296">
        <ele>1042</ele>
        <time>2013-09-21T15:27:22Z</time>
      </trkpt>
      <trkpt lat="44.14137" lon="6.76287">
        <ele>1043</ele>
        <time>2013-09-21T15:27:29Z</time>
      </trkpt>
      <trkpt lat="44.14143" lon="6.76276">
        <ele>1044</ele>
        <time>2013-09-21T15:27:38Z</time>
      </trkpt>
      <trkpt lat="44.14162" lon="6.76245">
        <ele>1046</ele>
        <time>2013-09-21T15:27:52Z</time>
      </trkpt>
      <trkpt lat="44.14176" lon="6.76206">
        <ele>1047</ele>
        <time>2013-09-21T15:28:02Z</time>
      </trkpt>
      <trkpt lat="44.14215" lon="6.76167">
        <ele>1050</ele>
        <time>2013-09-21T15:28:19Z</time>
      </trkpt>
      <trkpt lat="44.14241" lon="6.76143">
        <ele>1051</ele>
        <time>2013-09-21T15:28:30Z</time>
      </trkpt>
      <trkpt lat="44.14271" lon="6.76119">
        <ele>1052</ele>
        <time>2013-09-21T15:28:42Z</time>
      </trkpt>
      <trkpt lat="44.14288" lon="6.76099">
        <ele>1053</ele>
        <time>2013-09-21T15:28:56Z</time>
      </trkpt>
      <trkpt lat="44.14308" lon="6.76078">
        <ele>1054</ele>
        <time>2013-09-21T15:29:13Z</time>
      </trkpt>
      <trkpt lat="44.14319" lon="6.76053">
        <ele>1057</ele>
        <time>2013-09-21T15:29:30Z</time>
      </trkpt>
      <trkpt lat="44.14336" lon="6.76026">
        <ele>1060</ele>
        <time>2013-09-21T15:29:50Z</time>
      </trkpt>
      <trkpt lat="44.14349" lon="6.76008">
        <ele>1062</ele>
        <time>2013-09-21T15:30:05Z</time>
      </trkpt>
      <trkpt lat="44.1436" lon="6.75984">
        <ele>1065</ele>
        <time>2013-09-21T15:30:22Z</time>
      </trkpt>
      <trkpt lat="44.14367" lon="6.7598">
        <ele>1066</ele>
        <time>2013-09-21T15:30:28Z</time>
      </trkpt>
      <trkpt lat="44.14382" lon="6.75956">
        <ele>1070</ele>
        <time>2013-09-21T15:30:43Z</time>
      </trkpt>
      <trkpt lat="44.14401" lon="6.75924">
        <ele>1072</ele>
        <time>2013-09-21T15:30:58Z</time>
      </trkpt>
      <trkpt lat="44.1442" lon="6.75904">
        <ele>1073</ele>
        <time>2013-09-21T15:31:08Z</time>
      </trkpt>
    </trkseg>
  </trk>
</gpx>